[[{"header":{"parameterUnit":"m.s-1","parameterCategory":1,"la1":31.0,"la2":29.5877,"lo1":-88.7671,"lo2":-86.6584,"dy":0.0162,"dx":0.0185,"nx":115,"ny":88,"refTime":"2024-03-18T12:00:00:Z","depth":0,"parameterNumber":2,"parameterNumberName":"U-component_of_WINDS"},"data":[0.0,0.0,0.0,0.0,0.0,0.0,0.0,0.0,0.0,0.0,0.0,0.0,0.0,0.0,0.0,0.0,0.0,0.0,0.0,0.0,0.0,0.0,0.0,0.0,0.0,0.0,0.0,0.0,0.0,0.0,0.0,0.0,0.0,0.0,0.0,0.0,0.0,0.0,0.0,0.0,0.0,0.0,0.0,0.0,0.0,0.0,0.0,0.0,0.0,0.0,0.0,0.0,0.0,0.0,0.0,0.0,0.0,0.0,0.0,0.0,0.0,0.0,0.0,0.0,0.0,0.0,0.0,0.0,0.0,0.0,0.0,0.0,0.0,0.0,0.0,0.0,0.0,0.0,0.0,0.0,0.0,0.0,0.0,0.0,0.0,0.0,0.0,0.0,0.0,0.0,0.0,0.0,0.0,0.0,0.0,0.0,0.0,0.0,0.0,0.0,0.0,0.0,0.0,0.0,0.0,0.0,0.0,0.0,0.0,0.0,0.0,0.0,0.0,0.0,0.0,0.0,0.0,0.0,0.0,0.0,0.0,0.0,0.0,0.0,0.0,0.0,0.0,0.0,0.0,0.0,0.0,0.0,0.0,0.0,0.0,0.0,0.0,0.0,0.0,0.0,0.0,0.0,0.0,0.0,0.0,0.0,0.0,0.0,0.0,0.0,0.0,0.0,0.0,0.0,0.0,0.0,0.0,0.0,0.0,0.0,0.0,0.0,0.0,0.0,0.0,0.0,0.0,0.0,0.0,0.0,0.0,0.0,0.0,0.0,0.0,0.0,0.0,0.0,0.0,0.0,0.0,0.0,0.0,0.0,0.0,0.0,0.0,0.0,0.0,0.0,0.0,0.0,0.0,0.0,0.0,0.0,0.0,0.0,0.0,0.0,0.0,0.0,0.0,0.0,0.0,0.0,0.0,0.0,0.0,0.0,0.0,0.0,0.0,0.0,0.0,0.0,0.0,0.0,0.0,0.0,0.0,0.0,0.0,0.0,0.0,0.0,0.0,0.0,0.0,0.0,0.0,0.0,0.0,0.0,0.0,0.0,0.0,0.0,0.0,0.0,0.0,0.0,0.0,0.0,0.0,0.0,0.0,0.0,0.0,0.0,0.0,0.0,0.0,0.0,0.0,0.0,0.0,0.0,0.0,0.0,0.0,0.0,0.0,0.0,0.0,0.0,0.0,0.0,0.0,0.0,0.0,0.0,0.0,0.0,0.0,0.0,0.0,0.0,0.0,0.0,0.0,0.0,0.0,0.0,0.0,0.0,0.0,0.0,0.0,0.0,0.0,0.0,0.0,0.0,0.0,0.0,0.0,0.0,0.0,0.0,0.0,0.0,0.0,0.0,0.0,0.0,0.0,0.0,0.0,0.0,0.0,0.0,0.0,0.0,0.0,0.0,0.0,0.0,0.0,0.0,0.0,0.0,0.0,0.0,0.0,0.0,0.0,0.0,0.0,0.0,0.0,0.0,0.0,0.0,0.0,0.0,0.0,0.0,0.0,0.0,0.0,0.0,0.0,0.0,0.0,0.0,0.0,0.0,0.0,0.0,0.0,0.0,0.0,0.0,0.0,0.0,0.0,0.0,0.0,0.0,0.0,0.0,0.0,0.0,0.0,0.0,0.0,0.0,0.0,0.0,0.0,0.0,0.0,0.0,0.0,0.0,0.0,0.0,0.0,0.0,0.0,0.0,0.0,0.0,0.0,0.0,0.0,0.0,0.0,0.0,0.0,0.0,0.0,0.0,0.0,0.0,0.0,0.0,0.0,0.0,0.0,0.0,0.0,0.0,0.0,0.0,0.0,0.0,0.0,0.0,0.0,0.0,0.0,0.0,0.0,0.0,0.0,0.0,0.0,0.0,0.0,0.0,0.0,0.0,0.0,0.0,0.0,0.0,0.0,0.0,0.0,0.0,0.0,0.0,0.0,0.0,0.0,0.0,0.0,0.0,0.0,0.0,0.0,0.0,0.0,0.0,0.0,0.0,0.0,0.0,0.0,0.0,0.0,0.0,0.0,0.0,0.0,0.0,0.0,0.0,0.0,0.0,0.0,0.0,0.0,0.0,0.0,0.0,0.0,0.0,0.0,0.0,0.0,0.0,0.0,0.0,0.0,0.0,0.0,0.0,0.0,0.0,0.0,0.0,0.0,0.0,0.0,0.0,0.0,0.0,0.0,0.0,0.0,0.0,0.0,0.0,0.0,0.0,0.0,0.0,0.0,0.0,0.0,0.0,0.0,0.0,0.0,0.0,0.0,0.0,0.0,0.0,0.0,0.0,0.0,0.0,0.0,0.0,0.0,0.0,0.0,0.0,0.0,0.0,0.0,0.0,0.0,0.0,0.0,0.0,0.0,0.0,0.0,0.0,0.0,0.0,0.0,0.0,0.0,0.0,0.0,0.0,0.0,0.0,0.0,0.0,0.0,0.0,0.0,0.0,0.0,0.0,0.0,0.0,0.0,0.0,0.0,0.0,0.0,0.0,0.0,0.0,0.0,0.0,0.0,0.0,0.0,0.0,0.0,0.0,0.0,0.0,0.0,0.0,0.0,0.0,0.0,0.0,0.0,0.0,0.0,0.0,0.0,0.0,0.0,0.0,0.0,0.0,0.0,0.0,0.0,0.0,0.0,0.0,0.0,0.0,0.0,0.0,0.0,0.0,0.0,0.0,0.0,0.0,0.0,0.0,0.0,0.0,0.0,0.0,0.0,0.0,0.0,0.0,0.0,0.0,0.0,0.0,0.0,0.0,0.0,0.0,0.0,0.0,0.0,0.0,0.0,0.0,0.0,0.0,0.0,0.0,0.0,0.0,0.0,0.0,0.0,0.0,0.0,0.0,0.0,0.0,0.0,0.0,0.0,0.0,0.0,0.0,0.0,0.0,0.0,0.0,0.0,0.0,0.0,0.0,0.0,0.0,0.0,0.0,0.0,0.0,0.0,0.0,0.0,0.0,0.0,0.0,0.0,0.0,0.0,0.0,0.0,0.0,0.0,0.0,0.0,0.0,0.0,0.0,0.0,0.0,0.0,0.0,0.0,0.0,0.0,0.0,0.0,0.0,0.0,0.0,0.0,0.0,0.0,0.0,0.0,0.0,0.0,0.0,0.0,0.0,0.0,0.0,0.0,0.0,0.0,0.0,0.0,0.0,0.0,0.0,0.0,0.0,0.0,0.0,0.0,0.0,0.0,0.0,0.0,0.0,0.0,0.0,0.0,0.0,0.0,0.0,0.0,0.0,0.0,0.0,0.0,0.0,0.0,0.0,0.0,0.0,0.0,0.0,0.0,0.0,0.0,0.0,0.0,0.0,0.0,0.0,0.0,0.0,0.0,0.0,0.0,0.0,0.0,0.0,0.0,0.0,0.0,0.0,0.0,0.0,0.0,0.0,0.0,0.0,0.0,0.0,0.0,0.0,0.0,0.0,0.0,0.0,0.0,0.0,0.0,0.0,0.0,0.0,0.0,0.0,0.0,0.0,0.0,0.0,0.0,0.0,0.0,0.0,0.0,0.0,0.0,0.0,0.0,0.0,0.0,0.0,0.0,0.0,0.0,0.0,0.0,0.0,0.0,0.0,0.0,0.0,0.0,0.0,0.0,0.0,0.0,0.0,0.0,0.0,0.0,0.0,0.0,0.0,0.0,0.0,0.0,0.0,0.0,0.0,0.0,0.0,0.0,0.0,0.0,0.0,0.0,0.0,0.0,0.0,0.0,0.0,0.0,0.0,0.0,0.0,0.0,0.0,0.0,0.0,0.0,0.0,0.0,0.0,0.0,0.0,0.0,0.0,0.0,0.0,0.0,0.0,0.0,0.0,0.0,0.0,0.0,0.0,0.0,0.0,0.0,0.0,0.0,0.0,0.0,0.0,0.0,0.0,0.0,0.0,0.0,0.0,0.0,0.0,0.0,0.0,0.0,0.0,0.0,0.0,0.0,0.0,0.0,0.0,0.0,0.0,0.0,0.0,0.0,0.0,0.0,0.0,0.0,0.0,0.0,0.0,0.0,0.0,0.0,0.0,0.0,0.0,0.0,0.0,0.0,0.0,0.0,0.0,0.0,0.0,0.0,0.0,0.0,0.0,0.0,0.0,0.0,0.0,0.0,0.0,0.0,0.0,0.0,0.0,0.0,0.0,0.0,0.0,0.0,0.0,0.0,0.0,0.0,0.0,0.0,0.0,0.0,0.0,0.0,0.0,0.0,0.0,0.0,0.0,0.0,0.0,0.0,0.0,0.0,0.0,0.0,0.0,0.0,0.0,0.0,0.0,0.0,0.0,0.0,0.0,-0.267,0.0,0.0,0.0,0.0,0.0,0.0,0.0,0.0,0.0,0.0,0.0,0.0,0.0,0.0,0.0,0.0,0.0,0.0,0.0,0.0,0.0,0.0,0.0,0.0,0.0,0.0,0.0,0.0,0.0,0.0,0.0,0.0,0.0,0.0,0.0,0.0,0.0,0.0,0.0,0.0,0.0,0.0,0.0,0.0,0.0,0.0,0.0,0.0,0.0,0.0,0.0,0.0,0.0,0.0,0.0,0.0,0.0,0.0,0.0,0.0,0.0,0.0,0.0,0.0,0.0,0.0,0.0,0.0,0.0,0.0,0.0,0.0,0.0,0.0,0.0,0.0,0.0,0.0,0.0,0.0,0.0,0.0,0.0,0.0,0.0,0.0,0.0,0.0,0.0,0.0,0.0,0.0,0.0,0.0,0.0,0.0,0.0,0.0,0.0,0.0,0.0,0.0,0.0,0.0,0.0,0.0,0.0,0.0,0.0,0.0,-0.0671,-0.0936,-0.138,-0.1799,-0.215,0.0,0.0,0.0,0.0,0.0,0.0,0.0,0.0,0.0,0.0,0.0,0.0,0.0,0.0,0.0,0.0,0.0,0.0,0.0,0.0,0.0,0.0,0.0,0.0,0.0,0.0,0.0,0.0,0.0,0.0,0.0,0.0,0.0,0.0,0.0,0.0,0.0,0.0,0.0,0.0,0.0,0.0,0.0,0.0,0.0,0.0,0.0,0.0,0.0,0.0,0.0,0.0,0.0,0.0,0.0,0.0,0.0,0.0,0.0,0.0,0.0,0.0,0.0,0.0,0.0,0.0,0.0,0.0,0.0,0.0,0.0,0.0,0.0,0.0,0.0,0.0,0.0,0.0,0.0,0.0,0.0,0.0,0.0,0.0,0.0,0.0,0.0,0.0,0.0,0.0,0.0,0.0,0.0,0.0,0.0,0.0,0.0,0.0,0.0,0.0,0.0,0.0,0.0,0.0,0.0,0.0,0.0,0.0,0.0,0.0,0.0,0.0,-0.0914,-0.1316,-0.1696,0.0,0.0,0.0,0.0,0.0,0.0,0.0,0.0,0.0,0.0,0.0,0.0,0.0,0.0,0.0,0.0,0.0,0.0,0.0,0.0,0.0,0.0,0.0,0.0,0.0,0.0,0.0,0.0,0.0,0.0,0.0,0.0,0.0,0.0,0.0,0.0,0.0,0.0,0.0,0.0,0.0,0.0,0.0,0.0,0.0,0.0,0.0,0.0,0.0,0.0,0.0,0.0,0.0,0.0,0.0,0.0,0.0,0.0,0.0,0.0,0.0,0.0,0.0,0.0,0.0,0.0,0.0,0.0,0.0,0.0,0.0,0.0,0.0,0.0,0.0,0.0,0.0,0.0,0.0,0.0,0.0,0.0,0.0,0.0,0.0,0.0,0.0,0.0,0.0,0.0,0.0,0.0,0.0,0.0,0.0,0.0,0.0,0.0,0.0,0.0,0.0,0.0,0.0,0.0,0.0,0.0,0.0,0.0,0.0,0.0,-0.0112,-0.0314,-0.0491,0.0,-0.141,0.0,0.0,0.0,0.0,0.0,0.0,0.0,0.0,0.0,0.0,0.0,0.0,0.0,0.0,0.0,0.0,0.0,0.0,0.0,0.0,0.0,0.0,0.0,0.0,0.0,0.0,0.0,0.0,0.0,0.0,0.0,0.0,0.0,0.0,0.0,0.0,0.0,0.0,0.0,0.0,0.0,0.0,0.0,0.0,0.0,0.0,0.0,0.0,0.0,0.0,0.0,0.0,0.0,0.0,0.0,0.0,0.0,0.0,0.0,0.0,0.0,0.0,0.0,0.0,0.0,0.0,0.0,0.0,0.0,0.0,0.0,0.0,0.0,0.0,0.0,0.0,0.0,0.0,0.0,0.0,0.0,0.0,0.0,0.0,0.0,0.0,0.0,0.0,0.0,0.0,0.0,0.0,0.0,0.0,0.0,0.0,0.0,0.0,0.0,0.0,0.0,0.0,0.0,0.0,0.0,0.0,0.0,0.0,0.0,0.0,0.0225,0.018,-0.0,-0.0222,0.0,0.0,0.0,0.0,0.0,0.0,0.0,0.0,0.0,0.0,0.0,0.0,0.0,0.0,0.0,0.0,0.0,0.0,0.0,0.0,0.0,0.0,0.0,0.0,0.0,0.0,0.0,0.0,0.0,0.0,0.0,0.0,0.0,0.0,0.0,0.0,0.0,0.0,0.0,0.0,0.0,0.0,0.0,0.0,0.0,0.0,0.0,0.0,0.0,0.0,0.0,0.0,0.0,0.0,0.0,0.0,0.0,0.0,0.0,0.0,0.0,0.0,0.0,0.0,0.0,0.0,0.0,0.0,0.0,0.0,0.0,0.0,0.0,0.0,0.0,0.0,0.0,0.0,0.0,0.0,0.0,0.0,0.0,0.0,0.0,0.0,0.0,0.0,0.0,0.0,0.0,0.0,0.0,0.0,0.0,0.0,0.0,0.0,0.0,0.0,0.0,0.0,0.0,0.0,0.0,0.0,0.0,0.0,0.0,0.0,0.0561,0.0628,0.0651,0.0513,0.04,0.0289,0.0,0.0,0.0,0.0,0.0,0.0,0.0,0.0,0.0,0.0,0.0,0.0,0.0,0.0,0.0,0.0,0.0,0.0,0.0,0.0,0.0,0.0,0.0,0.0,0.0,0.0,0.0,0.0,0.0,0.0,0.0,0.0,0.0,0.0,0.0,0.0,0.0,0.0,0.0,0.0,0.0,0.0,0.0,0.0,0.0,0.0,0.0,0.0,0.0,0.0,0.0,0.0,0.0,0.0,0.0,0.0,0.0,0.0,0.0,0.0,0.0,0.0,0.0,0.0,0.0,0.0,0.0,0.0,0.0,0.0,0.0,0.0,0.0,0.0,0.0,0.0,0.0,0.0,0.0,0.0,0.0,0.0,0.0,0.0,0.0,0.0,0.0,0.0,0.0,0.0,0.0,0.0,0.0,0.0,0.0,0.0,0.0,0.0,0.0,0.0,0.0,0.0,0.0,0.0,0.0,0.0,0.0,0.0,0.0787,0.0987,0.1072,0.1094,0.1072,0.1027,0.0,0.0,0.0,0.0,0.0,0.0,0.0,0.0,0.0,0.0,0.0,0.0,0.0,0.0,0.0,0.0,0.0,0.0,0.0,0.0,0.0,0.0,0.0,0.0,0.0,0.0,0.0,0.0,0.0,0.0,0.0,0.0,0.0,0.0,0.0,0.0,0.0,0.0,0.0,0.0,0.0,0.0,0.0,0.0,0.0,0.0,0.0,0.0,0.0,0.0,0.0,0.0,0.0,0.0,0.0,0.0,0.0,0.0,0.0,0.0,0.0,0.0,0.0,0.0,0.0,0.0,0.0,0.0,0.0,0.0,0.0,0.0,0.0,0.0,0.0,0.0,0.0,0.0,0.0,0.0,0.0,0.0,0.0,0.0,0.0,0.0,0.0,0.0,0.0,0.0,0.0,0.0,0.0,0.0,0.0,0.0,0.0,0.0,0.0,0.0,0.0,0.0,0.0,0.0,0.0,0.0,0.0,0.0,0.0,0.0942,0.1188,0.1408,0.1491,0.1538,0.1491,0.0,0.0,0.0,0.0,0.0,0.0,0.0,0.0,0.0,0.0,0.0,0.0,0.0,0.0,0.0,0.0,0.0,0.0,0.0,0.0,0.0,0.0,0.0,0.0,0.0,0.0,0.0,0.0,0.0,0.0,0.0,0.0,0.0,0.0,0.0,0.0,0.0,0.0,0.0,0.0,0.0,0.0,0.0,0.0,0.0,0.0,0.0,0.0,0.0,0.0,0.0,0.0,0.0,0.0,0.0,0.0,0.0,0.0,0.0,0.0,0.0,0.0,0.0,0.0,0.0,0.0,0.0,0.0,0.0,0.0,0.0,0.0,0.0,0.0,0.0,0.0,0.0,0.0,0.0,0.0,0.0,0.0,0.0,0.0,0.0,0.0,0.0,0.0,0.0,0.0,0.0,0.0,0.0,0.0,0.0,0.0,0.0,0.0,0.0,0.0,0.0,0.0,0.0,0.0,0.0,0.0,0.0,0.0,0.0,0.1247,0.0,0.174,0.1869,0.1913,0.1891,0.0,0.0,0.0,0.0,0.0,0.0,0.0,0.0,0.0,0.0,0.0,0.0,0.0,0.0,0.0,0.0,0.0,0.0,0.0,0.0,0.0,0.0,0.0,0.0,0.0,0.0,0.0,0.0,0.0,0.0,0.0,0.0,0.0,0.0,0.0,0.0,0.0,0.0,0.0,0.0,0.0,0.0,0.0,0.0,0.0,0.0,0.0,0.0,0.0,0.0,0.0,0.0,0.0,0.0,0.0,0.0,0.0,0.0,0.0,0.0,0.0,0.0,0.0,0.0,0.0,0.0,0.0,0.0,0.0,0.0,0.0,0.0,0.0,0.0,0.0,0.0,0.0,0.0,0.0,0.0,0.0,0.0,0.0,0.0,0.0,0.0,0.0,0.0,0.0,0.0,0.0,0.0,0.0,0.0,0.0,0.0,0.0,0.0,0.0,0.0,0.0,0.0,0.0,0.0,0.0,0.0,0.0,0.0,0.1274,0.1787,0.1949,0.209,0.2202,0.2228,0.2224,0.0,0.0,0.0,0.0,0.0,0.0,0.0,0.0,0.0,0.0,0.0,0.0,0.0,0.0,0.0,0.0,0.0,0.0,0.0,0.0,0.0,0.0,0.0,0.0,0.0,0.0,0.0,0.0,0.0,0.0,0.0,0.0,0.0,0.0,0.0,0.0,0.0,0.0,0.0,0.0,0.0,0.0,0.0,0.0,0.0,0.0,0.0,0.0,0.0,0.0,0.0,0.0,0.0,0.0,0.0,0.0,0.0,0.0,0.0,0.0,0.0,0.0,0.0,0.0,0.0,0.0,0.0,0.0,0.0,0.0,0.0,0.0,0.0,0.0,0.0,0.0,0.0,0.0,0.0,0.0,0.0,0.0,0.0,0.0,0.0,0.0,0.0,0.0,0.0,0.0,0.0,0.0,0.0,0.0,0.0,0.0,0.0,0.0,0.0,0.0,0.0,0.0,0.0,0.0,0.0,0.0,0.0,0.0,0.0,0.2351,0.2665,0.2795,0.276,0.2834,0.2788,0.0,0.0,0.0,0.0,0.0,0.0,0.0,0.0,0.0,0.0,0.0,0.0,0.0,0.0,0.0,0.0,0.0,0.0,0.0,0.0,0.0,0.0,0.0,0.0,0.0,0.0,0.0,0.0,0.0,0.0,0.0,0.0,0.0,0.0,0.0,0.0,0.0,0.0,0.0,0.0,0.0,0.0,0.0,0.0,0.0,0.0,0.0,0.0,0.0,0.0,0.0,0.0,0.0,0.0,0.0,0.0,0.0,0.0,0.0,0.0,0.0,0.0,0.0,0.0,0.0,0.0,0.0,0.0,0.0,0.0,0.0,0.0,0.0,0.0,0.0,0.0,0.0,0.0,0.0,0.0,0.0,0.0,0.0,0.0,0.0,0.0,0.0,0.0,0.0,0.0,0.0,0.0,0.0,0.0,0.0,0.0,0.0,0.0,0.0,0.0,0.0,0.0,0.0,0.0,0.0,0.0,0.0,0.0,0.0,0.3695,0.3428,0.3282,0.3282,0.3285,0.3212,0.3034,0.0,0.0,0.0,0.0,0.0,0.0,0.0,0.0,0.0,0.0,0.0,0.0,0.0,0.0,0.0,0.0,0.0,0.0,0.0,0.0,0.0,0.0,0.0,0.0,0.0,0.0,0.0,0.0,0.0,0.0,0.0,0.0,0.0,0.0,0.0,0.0,0.0,0.0,0.0,0.0,0.0,0.0,0.0,0.0,0.0,0.0,0.0,0.0,0.0,0.0,0.0,0.0,0.0,0.0,0.0,0.0,0.0,0.0,0.0,0.0,0.0,0.0,0.0,0.0,0.0,0.0,0.0,0.0,0.0,0.0,0.0,0.0,0.0,0.0,0.0,0.0,0.0,0.0,0.0,0.0,0.0,0.0,0.0,0.0,0.0,0.0,0.0,0.0,0.0,0.0,0.0,0.0,0.0,0.0,0.0,0.0,0.0,0.0,0.0,0.0,0.0,0.0,0.0,0.0,0.0,0.0,0.0,0.0,0.5586,0.4264,0.3673,0.3836,0.3637,0.3536,0.0,0.0,0.0,0.0,0.0,0.0,0.0,0.0,0.0,0.0,0.0,0.0,0.0,0.0,0.0,0.0,0.0,0.0,0.0,0.0,0.0,0.0,0.0,0.0,0.0,0.0,0.0,0.0,0.0,0.0,0.0,0.0,0.0,0.0,0.0,0.0,0.0,0.0,0.0,0.0,0.0,0.0,0.0,0.0,0.0,0.0,0.0,0.0,0.0,0.0,0.0,0.0,0.0,0.0,0.0,0.0,0.0,0.0,0.0,0.0,0.0,0.0,0.0,0.0,0.0,0.0,0.0,0.0,0.0,0.0,0.0,0.0,0.0,0.0,0.0,0.0,0.0,0.0,0.0,0.0,0.0,0.0,0.0,0.0,0.0,0.0,0.0,0.0,0.0,0.0,0.0,0.0,0.0,0.0,0.0,0.0,0.0,0.0,0.0,0.0,0.0,0.0,0.0,0.0,0.0,0.0,0.0,0.0,0.0,0.5739,0.5383,0.4988,0.4636,0.4647,0.4379,0.0,0.0,0.0,0.0,0.0,0.0,0.0,0.0,0.0,0.0,0.0,0.0,0.0,0.0,0.0,0.0,0.0,0.0,0.0,0.0,0.0,0.0,0.0,0.0,0.0,0.0,0.0,0.0,0.0,0.0,0.0,0.0,0.0,0.0,0.0,0.0,0.0,0.0,0.0,0.0,0.0,0.0,0.0,0.0,0.0,0.0,0.0,0.0,0.0,0.0,0.0,0.0,0.0,0.0,0.0,0.0,0.0,0.0,0.0,0.0,0.0,0.0,0.0,0.0,0.0,0.0,0.0,0.0,0.0,0.0,0.0,0.0,0.0,0.0,0.0,0.0,0.0,0.0,0.0,0.0,0.0,0.0,0.0,0.0,0.0,0.0,0.0,0.0,0.0,0.0,0.0,0.0,0.0,0.0,0.0,0.0,0.0,0.0,0.0,0.0,0.0,0.0,0.0,0.0,0.0,0.0,0.0,0.0,0.5129,0.6336,0.6204,0.595,0.5621,0.53,0.4916,0.0,0.0,0.0,0.0,0.0,0.0,0.0,0.0,0.0,0.0,0.0,0.0,0.0,0.0,0.0,0.0,0.0,0.0,0.0,0.0,0.0,0.0,0.0,0.0,0.0,0.0,0.0,0.0,0.0,0.0,0.0,0.0,0.0,0.0,0.0,0.0,0.0,0.0,0.0,0.0,0.0,0.0,0.0,0.0,0.0,0.0,0.0,0.0,0.0,0.0,0.0,0.0,0.0,0.0,0.0,0.0,0.0,0.0,0.0,0.0,0.0,0.0,0.0,0.0,0.0,0.0,0.0,0.0,0.0,0.0,0.0,0.0,0.0,0.0,0.0,0.0,0.0,0.0,0.0,0.0,0.0,0.0,0.0,0.0,0.0,0.0,0.0,0.0,0.0,0.0,0.0,0.0,0.0,0.0,0.0,0.0,0.0,0.0,0.0,0.0,0.0,0.0,0.0,0.0,0.0,0.0,0.0,0.0,0.5589,0.6964,0.67,0.6574,0.6607,0.5797,0.5325,0.0,0.0,0.0,0.0,0.0,0.0,0.0,0.0,0.0,0.0,0.0,0.0,0.0,0.0,0.0,0.0,0.0,0.0,0.0,0.0,0.0,0.0,0.0,0.0,0.0,0.0,0.0,0.0,0.0,0.0,0.0,0.0,0.0,0.0,0.0,0.0,0.0,0.0,0.0,0.0,0.0,0.0,0.0,0.0,0.0,0.0,0.0,0.0,0.0,0.0,0.0,0.0,0.0,0.0,0.0,0.0,0.0,0.0,0.0,0.0,0.0,0.0,0.0,0.0,0.0,0.0,0.0,0.0,0.0,0.0,0.0,0.0,0.0,0.0,0.0,0.0,0.0,0.0,0.0,0.0,0.0,0.0,0.0,0.0,0.0,0.0,0.0,0.0,0.0,0.0,0.0,0.0,0.0,0.0,0.0,0.0,0.0,0.0,0.0,0.0,0.0,0.0,0.0,0.0,0.0,0.0,0.0,0.0,0.6118,0.6971,0.6922,0.6892,0.6927,0.6526,0.5985,0.0,0.0,0.0,0.0,0.0,0.0,0.0,0.0,0.0,0.0,0.0,0.0,0.0,0.0,0.0,0.0,0.0,0.0,0.0,0.0,0.0,0.0,0.0,0.0,0.0,0.0,0.0,0.0,0.0,0.0,0.0,0.0,0.0,0.0,0.0,0.0,0.0,0.0,0.0,0.0,0.0,0.0,0.0,0.0,0.0,0.0,0.0,0.0,0.5539,0.0,0.0,0.0,0.0,0.0,0.0,0.0,0.0,0.0,0.0,0.0,0.0,0.0,0.0,0.0,0.0,0.0,0.0,0.0,0.0,0.0,0.0,0.0,0.0,0.0,0.0,0.0,0.0,0.0,0.0,0.0,0.0,0.0,0.0,0.0,0.0,0.0,0.0,0.0,0.0,0.0,0.0,0.0,0.0,0.0,0.0,0.0,0.0,0.0,0.0,0.0,0.0,0.0,0.0,0.0,0.0,0.0,0.0,0.0,0.6646,0.7209,0.7352,0.7381,0.7235,0.713,0.6593,0.0,0.0,0.0,0.0,0.0,0.0,0.0,0.0,0.0,0.0,0.0,0.0,0.0,0.0,0.0,0.0,0.0,0.0,0.0,0.0,0.0,0.0,0.0,0.0,0.0,0.0,0.0,0.0,0.0,0.0,0.0,0.0,0.0,0.0,0.0,0.0,0.0,0.0,0.0,0.0,0.0,0.0,0.0,0.0,0.0,0.0,0.0,0.0,0.0,0.0,0.0,0.0,0.0,0.0,0.0,0.0,0.0,0.0,0.0,0.0,0.0,0.0,0.0,0.0,0.0,0.0,0.0,0.0,0.0,0.0,0.0,0.0,0.0,0.0,0.0,0.0,0.0,0.0,0.0,0.0,0.0,0.0,0.0,0.0,0.0,0.0,0.0,0.0,0.0,0.0,0.0,0.0,0.0,0.0,0.0,0.0,0.0,0.0,0.0,0.0,0.0,0.0,0.0,0.0,0.0,0.0,0.0,0.6461,0.7088,0.7506,0.7769,0.7782,0.7527,0.7513,0.7096,0.6223,0.0,0.0,0.0,0.0,0.0,0.0,0.0,0.0,0.0,0.0,0.0,0.0,0.0,0.0,0.0,0.0,0.0,0.0,0.0,0.0,0.0,0.0,0.0,0.0,0.0,0.0,0.0,0.0,0.0,0.0,0.0,0.0,0.0,0.0,0.0,0.0,0.0,0.0,0.5452,0.6444,0.0,0.0,0.0,0.0,0.0,0.0,0.0,0.0,0.7332,0.0,0.0,0.0,0.0,0.0,0.0,0.0,0.0,0.0,0.0,0.0,0.0,0.0,0.0,0.0,0.0,0.0,0.0,0.0,0.0,0.0,0.0,0.0,0.0,0.0,0.0,0.0,0.0,0.0,0.0,0.0,0.0,0.0,0.0,0.0,0.0,0.0,0.0,0.0,0.0,0.0,0.0,0.0,0.0,0.0,0.0,0.0,0.0,0.0,0.0,0.0,0.0,0.0,0.0,0.0,0.0,0.5677,0.654,0.7168,0.7506,0.7769,0.7782,0.7527,0.7513,0.7096,0.623,0.0,0.0,0.0,0.0,0.0,0.0,0.0,0.0,0.0,0.0,0.0,0.0,0.0,0.0,0.0,0.0,0.0,0.0,0.0,0.0,0.0,0.0,0.0,0.0,0.0,0.0,0.0,0.0,0.0,0.0,0.0,0.0,0.0,0.0,0.0,0.0,0.0,0.0,0.0,0.7618,0.8042,0.0,0.0,0.0,0.0,0.0,0.0,0.0,0.0,0.7677,0.0,0.0,0.0,0.0,0.0,0.0,0.0,0.0,0.0,0.0,0.0,0.0,0.0,0.0,0.0,0.0,0.0,0.0,0.0,0.0,0.0,0.0,0.0,0.0,0.0,0.0,0.0,0.0,0.0,0.0,0.0,0.0,0.0,0.0,0.0,0.0,0.0,0.0,0.0,0.0,0.0,0.0,0.0,0.0,0.0,0.0,0.0,0.0,0.0,0.0,0.0,0.0,0.0,0.0,0.0,0.6216,0.7041,0.7635,0.7977,0.823,0.8163,0.7722,0.76,0.7096,0.0,0.0,0.0,0.0,0.0,0.0,0.0,0.0,0.0,0.0,0.0,0.0,0.0,0.0,0.0,0.0,0.0,0.0,0.0,0.0,0.0,0.0,0.0,0.0,0.0,0.0,0.0,0.0,0.0,0.0,0.0,0.0,0.0,0.0,0.0,0.0,0.0,0.0,0.0,0.0,0.8037,0.8692,0.9086,0.0,0.0,0.0,0.0,0.0,0.0,0.9496,0.9462,0.0,0.0,0.0,0.0,0.0,0.0,0.0,0.0,0.0,0.0,0.0,0.0,0.0,0.0,0.0,0.0,0.0,0.0,0.0,0.0,0.0,0.0,0.0,0.0,0.0,0.0,0.0,0.0,0.0,0.0,0.0,0.0,0.0,0.0,0.0,0.0,0.0,0.0,0.0,0.0,0.0,0.0,0.0,0.0,0.0,0.0,0.0,0.0,0.0,0.0,0.0,0.0,0.0,0.0,0.0,0.6701,0.7575,0.8132,0.8432,0.8727,0.8575,0.7949,0.7681,0.707,0.0,0.0,0.0,0.0,0.0,0.0,0.0,0.0,0.0,0.0,0.0,0.0,0.0,0.0,0.0,0.0,0.0,0.0,0.0,0.0,0.0,0.0,0.0,0.0,0.0,0.0,0.0,0.0,0.0,0.0,0.0,0.0,0.0,0.0,0.0,0.0,0.0,0.0,0.0,0.0,0.0,0.918,0.9726,0.9339,0.0,0.0,0.0,0.0,1.0651,1.1136,0.0,0.0,0.0,0.0,0.0,0.0,0.0,0.0,0.0,0.0,0.0,0.0,0.0,0.0,0.0,0.0,0.0,0.0,0.0,0.0,0.0,0.0,0.0,0.0,0.0,0.0,0.0,0.0,0.0,0.0,0.0,0.0,0.0,0.0,0.0,0.0,0.0,0.0,0.0,0.0,0.0,0.0,0.0,0.0,0.0,0.0,0.0,0.0,0.0,0.0,0.0,0.0,0.0,0.0,0.0,0.0,0.6701,0.786,0.8443,0.8507,0.8816,0.8677,0.8085,0.7766,0.7017,0.0,0.0,0.0,0.0,0.0,0.0,0.0,0.0,0.0,0.0,0.0,0.0,0.0,0.0,0.0,0.0,0.0,0.0,0.0,0.0,0.0,0.0,0.0,0.0,0.0,0.0,0.0,0.0,0.0,0.0,0.0,0.0,0.0,0.0,0.0,0.0,0.0,0.0,0.0,0.0,0.0,0.9399,1.0066,1.027,1.0375,0.0,0.0,0.0,1.1886,1.1753,0.0,0.0,0.0,0.0,0.0,0.0,0.0,0.0,0.0,0.0,0.0,0.0,0.0,0.0,0.0,0.0,0.0,0.0,0.0,0.0,0.0,0.0,0.0,0.0,0.0,0.0,0.0,0.0,0.0,0.0,0.0,0.0,0.0,0.0,0.0,0.0,0.0,0.0,0.0,0.0,0.0,0.0,0.0,0.0,0.0,0.0,0.0,0.0,0.0,0.0,0.0,0.0,0.0,0.0,0.0,0.6441,0.7266,0.8087,0.8564,0.8609,0.8733,0.8572,0.8134,0.7829,0.7282,0.0,0.0,0.0,0.0,0.0,0.0,0.0,0.0,0.0,0.0,0.0,0.0,0.0,0.0,0.0,0.0,0.0,0.0,0.0,0.0,0.0,0.0,0.0,0.0,0.0,0.0,0.0,0.0,0.0,0.0,0.0,0.0,0.0,0.0,0.0,0.0,0.0,0.0,0.0,0.0,0.0,0.0,1.0736,1.1096,0.0,0.0,0.0,1.2484,1.3228,0.0,0.0,0.0,0.0,0.0,0.0,0.0,0.0,0.0,0.0,0.0,0.0,0.0,0.0,0.0,0.0,0.0,0.0,0.0,0.0,0.0,0.0,0.0,0.0,0.0,0.0,0.0,0.0,0.0,0.0,0.0,0.0,0.0,0.0,0.0,0.0,0.0,0.0,0.0,0.0,0.0,0.0,0.0,0.0,0.0,0.0,0.0,0.0,0.0,0.0,0.0,0.0,0.0,0.0,0.0,0.0,0.0,0.7824,0.834,0.8733,0.9051,0.9011,0.885,0.861,0.8214,0.0,0.0,0.0,0.0,0.0,0.0,0.0,0.0,0.0,0.0,0.0,0.0,0.0,0.0,0.0,0.0,0.0,0.0,0.0,0.0,0.0,0.0,0.0,0.0,0.0,0.0,0.0,0.2771,0.0,0.0,0.0,0.0,0.0,0.0,0.0,0.0,0.0,0.0,0.0,0.0,0.0,0.0,1.0129,1.1206,1.1664,1.216,0.0,0.0,1.3411,1.4168,1.3978,1.3668,0.0,0.0,0.0,0.0,0.0,0.0,0.0,0.0,0.0,0.0,0.0,0.0,0.0,0.0,0.0,0.0,0.0,0.0,0.0,0.0,0.0,0.0,0.0,0.0,0.0,0.0,0.0,0.0,0.0,0.0,0.0,0.0,0.0,0.0,0.0,0.0,0.0,0.0,0.0,0.0,0.0,0.0,0.0,0.0,0.0,0.0,0.0,0.0,0.0,0.0,0.0,0.0,0.0,0.0,0.0,0.814,0.857,0.9173,0.9976,0.9803,0.9826,1.0051,0.9244,0.8439,0.0,0.0,0.0,0.0,0.0,0.0,0.0,0.0,0.0,0.0,0.0,0.0,0.0,0.0,0.0,0.0,0.0,0.0,0.0,0.0,0.0,0.0,0.0,0.0,0.0,0.0,0.0,0.0,0.0,0.0,0.0,0.0,0.0,0.0,0.0,0.0,0.0,0.0,0.0,0.0,0.0,0.9979,1.0994,1.1714,1.2277,0.0,0.0,1.3584,1.4383,1.3879,1.3493,1.3631,0.0,0.0,0.0,0.0,0.0,0.0,0.0,0.0,0.0,0.0,0.0,0.0,0.0,0.0,0.0,0.0,0.0,0.0,0.0,0.0,0.0,0.0,0.0,0.0,0.0,0.0,0.0,0.0,0.0,0.0,0.0,0.0,0.0,0.0,0.0,0.0,0.0,0.0,0.0,0.0,0.0,0.0,0.0,0.0,0.0,0.0,0.0,0.0,0.0,0.0,0.0,0.0,0.0,0.7473,0.8427,0.9044,0.9594,1.0056,1.0039,1.0131,1.0427,1.0097,0.9614,0.0,0.0,0.0,0.0,0.0,0.0,0.0,0.0,0.0,0.0,0.0,0.0,0.0,0.0,0.0,0.0,0.0,0.0,0.0,0.0,0.0,0.0,0.0,0.0,0.0,0.0,0.0,0.0,0.5185,0.566,0.624,0.0,0.0,0.0,0.0,0.0,0.0,0.0,0.0,0.0,0.0,1.0795,1.1484,1.2361,0.0,0.0,1.3459,1.3872,1.4407,1.4181,1.3959,1.3906,1.2962,0.0,0.0,0.0,0.0,0.0,0.0,0.0,0.0,0.0,0.0,0.0,0.0,0.0,0.0,0.0,0.0,0.0,0.0,0.0,0.0,0.0,0.0,0.0,0.0,0.0,0.0,0.0,0.0,0.0,0.0,0.0,0.0,0.0,0.0,0.0,0.0,0.0,0.0,0.0,0.0,0.0,0.0,0.0,0.0,0.0,0.0,0.0,0.0,0.0,0.0,0.0,0.0,0.794,0.8746,0.945,1.0043,1.0502,1.0545,1.0748,1.1132,1.0995,1.0666,0.0,0.0,0.0,0.0,0.0,0.0,0.0,0.0,0.0,0.0,0.0,0.0,0.0,0.0,0.0,0.0,0.0,0.0,0.0,0.0,0.0,0.0,0.0,0.0,0.0,0.0,0.0,0.0,0.5771,0.6221,0.6583,0.0,0.0,0.0,0.0,0.0,0.0,0.0,0.0,0.0,0.0,1.1364,1.1977,1.2765,1.3316,1.344,1.3569,1.3773,1.4165,1.4138,1.4021,1.3993,0.0,0.0,0.0,0.0,0.0,0.0,0.0,0.0,0.0,0.0,0.0,0.0,0.0,0.0,0.0,0.0,0.0,0.0,0.0,0.0,0.0,0.0,0.0,0.0,0.0,0.0,0.0,0.0,0.0,0.0,0.0,0.0,0.0,0.0,0.0,0.0,0.0,0.0,0.0,0.0,0.0,0.0,0.0,0.0,0.0,0.0,0.0,0.0,0.0,0.0,0.0,0.0,0.0,0.0,0.9086,0.9789,1.051,1.1343,1.1582,1.1865,1.2404,1.1968,1.1555,1.1271,0.0,0.0,0.0,0.0,0.0,0.0,0.0,0.0,0.0,0.0,0.0,0.0,0.0,0.0,0.0,0.0,0.0,0.0,0.0,0.0,0.0,0.0,0.0,0.0,0.0,0.0,0.6174,0.641,0.6689,0.0,0.0,0.0,0.0,0.0,0.0,0.0,0.0,0.0,0.0,1.1122,1.1516,1.2278,1.2825,1.3085,1.3133,1.3102,1.3215,1.3552,1.3514,1.3509,0.0,0.0,0.0,0.0,0.0,0.0,0.0,0.0,0.0,0.0,0.0,0.0,0.0,0.0,0.0,0.0,0.0,0.0,0.0,0.0,0.0,0.0,0.0,0.0,0.0,0.0,0.0,0.0,0.0,0.0,0.0,0.0,0.0,0.0,0.0,0.0,0.0,0.0,0.0,0.0,1.2871,1.2897,0.0,0.0,0.0,0.0,0.0,0.0,0.0,0.0,0.0,0.0,0.0,0.0,0.8961,0.9757,1.0408,1.1155,1.2053,1.2066,1.2253,1.2764,1.259,1.2184,1.1538,0.0,0.0,0.0,0.0,0.0,0.0,0.0,0.0,0.0,0.0,0.0,0.0,0.0,0.0,0.0,0.0,0.0,0.0,0.0,0.0,0.0,0.0,0.0,0.0,0.0,0.8475,0.0,0.0,0.0,0.0,0.0,0.0,0.0,0.0,0.0,0.0,0.0,1.0231,1.1267,1.165,1.204,1.2574,1.2825,1.2988,0.0,0.0,0.0,0.0,0.0,0.0,0.0,0.0,0.0,0.0,0.0,0.0,0.0,0.0,1.4547,1.387,1.3742,1.3728,1.3742,0.0,0.0,0.0,0.0,0.0,0.0,0.0,0.0,0.0,0.0,0.0,0.0,0.0,0.0,0.0,0.0,1.01,0.0,0.0,0.0,0.0,0.0,0.0,0.0,0.0,1.3175,1.386,1.4515,1.4515,1.4432,0.0,1.3792,1.275,0.0,0.0,0.0,0.0,0.0,0.0,0.0,0.0,1.0048,1.049,1.1216,1.185,1.2351,1.241,1.2588,1.2871,1.2891,1.2529,1.1861,1.0891,0.9992,0.0,0.0,0.0,0.0,0.0,0.0,0.0,0.0,0.0,0.0,0.0,0.0,0.0,0.0,0.0,0.0,0.0,0.0,0.0,0.0,0.0,0.0,0.0,0.926,0.0,0.0,0.0,0.0,0.0,0.0,0.0,0.0,0.0,1.0762,1.0997,1.1354,1.1992,1.235,1.2624,1.2884,0.0,0.0,0.0,0.0,0.0,0.0,0.0,1.384,1.4195,1.4505,1.5023,1.5986,1.7017,1.7721,1.7679,0.0,0.0,1.6135,1.598,1.6078,1.591,1.591,1.6047,1.6393,1.6118,1.5876,0.0,0.0,0.0,0.0,0.0,0.0,0.0,0.0,1.2617,1.2824,0.0,0.0,0.0,0.0,0.0,0.0,0.0,0.0,0.0,0.0,1.4207,1.4797,1.5376,1.544,1.5325,1.5159,1.5069,1.4714,1.4009,1.1908,0.0,0.0,0.0,0.0,0.0,0.0,1.1463,1.1314,1.2148,1.2564,1.2467,1.2742,1.2871,1.2891,1.2891,1.2686,1.2256,1.1861,1.1172,1.0086,0.9046,0.0,0.0,0.0,0.0,0.0,0.0,0.0,0.0,0.0,0.0,0.0,0.0,0.0,0.0,0.0,0.0,0.0,0.0,0.0,0.0,0.9659,0.0,0.0,0.0,0.0,0.0,0.0,0.0,0.0,0.0,0.0,1.1624,1.2011,1.247,1.2965,0.0,0.0,0.0,0.0,1.2891,1.2891,1.3571,1.3931,1.3567,1.3962,1.4354,1.448,0.0,0.0,1.6895,1.7726,1.849,1.9489,1.98,1.9496,1.7772,1.7825,1.8014,1.7646,1.7637,1.796,1.844,1.8012,1.7497,1.3421,0.0,0.0,0.0,0.0,1.3456,1.4014,1.4386,1.4762,1.4851,1.4663,1.376,0.0,0.0,0.0,0.0,0.0,0.0,1.4332,1.5741,1.596,1.6574,1.758,1.7606,1.7332,1.6824,1.6426,1.5891,1.523,1.4199,1.2951,1.1585,0.0,0.0,0.0,0.0,1.2283,1.2678,1.2957,1.3093,1.3121,1.3044,1.2978,1.2891,1.2891,1.2822,1.2695,1.2275,1.1817,1.1294,1.0446,0.0,0.0,0.0,0.0,0.0,0.0,0.0,0.0,0.0,0.0,0.0,0.0,0.0,0.0,0.0,0.0,0.0,0.0,0.0,1.3012,1.2386,1.1536,0.0,0.0,0.0,0.0,0.0,0.0,0.0,0.0,0.0,1.3044,1.2675,1.2733,0.0,0.0,1.3194,1.3301,1.3104,1.2891,1.2891,0.0,0.0,0.0,1.3857,1.4292,1.477,1.5687,1.6557,1.7187,1.8026,1.8839,1.9636,2.0289,2.0422,1.9573,1.9017,1.878,1.8889,1.8944,1.9154,1.9587,1.9377,1.9085,1.569,1.4823,1.4111,1.4277,1.5,1.5525,1.6069,1.6654,1.6685,1.6446,1.6007,1.5608,1.5169,1.4777,1.4657,0.0,0.0,0.0,1.6071,1.6986,1.72,1.77,1.8367,1.838,1.8143,1.7756,1.7226,1.6741,1.6358,1.5793,1.4876,1.3675,0.0,0.0,1.3067,1.3223,1.3442,1.3743,1.374,1.3676,1.3563,1.3258,1.3085,1.2978,1.2929,1.2891,1.2881,1.2627,1.2332,1.2034,1.1711,1.0923,0.0,0.0,0.0,0.0,0.0,0.0,0.0,0.0,0.0,0.0,0.0,0.6902,0.0,0.0,0.0,0.0,0.9202,1.1021,1.4941,1.3989,0.0,0.0,0.0,0.0,0.0,0.0,0.0,1.304,1.3723,1.4221,1.4358,1.3766,1.3516,1.3955,1.3671,1.3356,1.3321,0.0,1.2891,1.2891,1.358,1.3975,1.3636,1.4184,1.4792,1.518,1.593,1.656,1.7,1.7699,1.8363,1.904,1.9786,2.0256,1.9938,1.9497,1.9282,1.9515,1.964,1.9844,2.0334,2.0075,1.9822,1.7438,1.7698,1.6318,1.6265,1.7081,1.7316,1.7753,1.8344,1.8294,1.7668,1.6717,1.7237,1.6872,1.5964,1.6345,0.0,0.0,1.7281,1.7676,1.7539,1.8028,1.8292,1.8329,1.8342,1.8317,1.8254,1.7752,1.7488,1.7413,1.6861,1.6333,1.5819,1.5174,1.4835,1.4784,1.4873,1.4856,1.4611,1.4507,1.428,1.381,1.3402,1.3133,1.3133,1.2988,1.2929,1.2891,1.2891,1.2743,1.2464,1.2714,1.2341,1.1131,0.0,0.0,0.0,0.0,0.0,0.0,0.0,0.0,0.0,0.0,0.0,0.0,0.0,0.0,0.0,1.154,0.0,1.5281,1.4783,0.0,0.0,0.0,1.3586,1.4067,1.4294,1.4526,1.4805,0.0,0.0,0.0,0.0,1.4654,1.4081,1.3895,1.3668,1.3266,1.3055,1.292,1.2929,1.3606,1.4009,1.383,1.4654,1.5458,1.568,1.5826,1.6114,1.6513,1.7011,1.7479,1.8015,1.8709,1.9287,1.9328,1.949,1.975,1.9662,1.9777,2.0066,2.0571,2.0298,1.9935,1.8047,1.7856,1.7694,1.8036,1.8679,1.9076,1.9385,1.9576,1.9366,1.8784,1.8039,1.8031,1.7932,1.7765,1.7952,1.792,1.7842,1.8096,1.8371,1.8631,1.8769,1.9045,1.9409,1.9422,1.9221,1.8783,1.8645,1.8417,1.8003,1.7451,1.7112,1.6961,1.6353,1.5865,1.5477,1.5397,1.5417,1.5501,1.5309,1.4869,1.4129,1.3716,1.3382,1.318,1.3113,1.2978,1.2891,1.2891,1.2832,1.2782,1.2871,1.2791,1.246,1.1064,0.0,0.0,0.0,0.0,0.0,0.0,0.0,0.0,0.0,0.9866,1.1508,0.0,1.2493,0.0,1.4249,1.6321,1.6984,1.6133,0.0,0.0,1.5012,1.4989,1.5143,1.5414,1.568,1.5981,1.5866,1.5894,1.6143,1.5818,1.5413,1.5002,1.4378,1.3821,1.3515,1.3266,1.3074,1.3182,1.3751,1.4172,1.4218,1.4966,1.5662,1.5788,1.5846,1.5951,1.6171,1.6513,1.6976,1.7445,1.8009,1.8457,1.8714,1.9023,1.9267,1.9455,1.9724,2.0066,2.0434,2.0293,2.0165,1.8496,1.8191,1.849,1.8887,1.9275,1.9622,2.0034,2.0466,2.0147,1.9629,1.907,1.8958,1.8969,1.9103,1.8945,1.8831,1.8773,1.8989,1.9321,1.9748,1.9761,2.0037,2.0539,2.0552,2.0263,1.9761,1.9497,1.9095,1.8568,1.8016,1.7739,1.7752,1.7426,1.7112,1.681,1.6206,1.5936,1.5957,1.5603,1.5085,1.4433,1.4025,1.3647,1.3304,1.2952,1.272,1.2588,1.2393,1.2341,1.2305,1.2666,1.2891,1.289,1.1801,1.0841,0.0,0.0,0.0,0.0,0.0,0.0,0.0,0.0,0.0,0.0,0.0,1.3738,0.0,0.0,0.0,1.7996,1.6833,1.6013,1.5924,1.5772,1.586,1.617,1.6231,1.6384,1.669,1.6496,1.6321,1.6398,1.6144,1.5836,1.5457,1.488,1.428,1.381,1.3552,1.3467,1.343,1.3967,1.445,1.4463,1.5094,1.5592,1.5679,1.583,1.5894,1.6009,1.6239,1.6513,1.6853,1.7269,1.7483,1.7565,1.8283,1.8879,1.901,1.9467,1.9862,2.0118,2.0067,2.0055,1.8815,1.8562,1.8895,1.9121,1.9246,1.9386,1.9973,2.0864,2.0582,2.0217,1.979,1.9905,2.0022,2.0064,1.98,1.9571,1.9459,1.9978,2.0406,2.0819,2.0819,2.1029,2.1481,2.1481,2.123,2.0806,2.025,1.9748,1.9233,1.8681,1.8332,1.8257,1.8194,1.8109,1.8072,1.7045,1.6411,1.62,1.5635,1.513,1.4755,1.4294,1.3836,1.3447,1.2795,1.2345,1.2217,1.1807,1.1596,1.1626,1.2341,1.2715,1.2724,1.2429,1.22,0.0,1.1817,0.0,0.0,0.0,0.0,0.0,0.0,0.0,0.0,1.424,1.4857,1.6211,1.8014,1.895,1.856,1.7292,1.6464,1.6464,1.6258,1.6399,1.7027,1.6849,1.6797,1.7146,1.6876,1.6633,1.6436,1.6318,1.6057,1.5603,1.5289,1.4869,1.4233,1.401,1.3926,1.3716,1.4261,1.4612,1.4738,1.5042,1.5423,1.5516,1.568,1.5881,1.5951,1.6019,1.6161,1.6317,1.66,1.662,1.6146,1.7353,1.8377,1.8532,1.9115,1.9656,1.9811,1.9862,1.9798,1.9049,1.8825,1.8544,1.8607,1.8921,1.8944,1.9222,1.9698,2.0152,2.0158,1.993,2.0574,2.0722,2.0519,2.0779,2.0907,2.0839,2.1117,2.1285,2.133,2.1343,2.1393,2.1481,2.1481,2.143,2.1343,2.123,2.0891,2.0351,1.9683,1.9133,1.8697,1.8031,1.7739,0.0,0.0,0.0,0.0,1.5792,1.5424,1.5006,1.4558,1.4093,1.3552,1.2898,0.0,1.2217,1.1841,1.1596,1.1606,1.1773,0.0,0.0,0.0,0.0,0.0,0.0,0.0,0.0,0.0,0.0,0.0,1.5738,1.5788,1.5652,1.6428,1.7516,1.8817,1.9068,1.8991,1.8668,1.7974,1.7463,1.7303,1.6994,1.6924,1.7152,1.7029,1.6928,1.6934,1.6791,1.662,1.6522,1.6392,1.6188,1.5792,1.5558,1.53,1.4914,1.4627,1.4441,1.4323,1.4403,1.4595,1.47,1.4924,1.5331,1.5891,1.5821,1.5772,1.5955,1.6019,1.5951,1.6005,1.6248,1.6245,1.5542,1.6472,1.7674,1.8283,1.8976,1.9525,1.9759,1.9798,1.9798,1.9291,0.0,1.8537,1.8399,0.0,1.8539,1.8675,1.8843,1.9736,2.0285,2.0682,2.0531,2.076,2.1375,2.1043,2.1076,2.1342,2.1381,2.1668,2.2168,2.1976,2.2046,2.2297,2.2297,2.2159,2.1895,2.1895,2.1619,2.1066,2.0407,1.9837,1.95,1.8663,1.8268,1.8166,1.7704,1.711,1.6414,1.5879,1.5379,1.5006,1.4547,1.4035,1.3505,0.0,0.0,0.0,0.0,0.0,0.0,0.0,0.0,0.0,0.0,0.0,1.4253,1.4299,1.4401,1.4777,1.5773,1.6558,1.703,1.7638,1.7636,1.6924,1.7387,1.8268,1.954,1.931,1.893,1.8498,1.7959,1.7598,1.7461,1.7099,1.6918,1.7002,1.6918,1.6833,1.6791,1.6663,1.6577,1.6534,1.6479,1.6262,1.5869,1.5647,1.5412,1.5074,1.4834,1.4651,1.4419,1.4286,1.4275,1.4365,1.4655,1.5004,1.5403,1.5648,1.5732,1.5736,1.5981,1.6124,1.6001,1.6271,1.6492,1.6444,1.6927,1.7678,1.842,1.9091,1.954,1.9747,1.9798,1.9798,1.9492,1.8857,1.8769,1.8555,1.8232,1.8439,1.8497,1.8566,0.0,0.0,0.0,2.0272,2.0687,2.2003,2.1248,2.1176,2.1728,2.1604,2.2135,2.3034,2.2722,2.2698,2.3081,2.3033,2.2807,2.2309,2.2284,2.201,2.1462,2.0847,2.0349,1.9976,1.9239,1.8708,1.8387,1.7769,1.7113,1.6551,1.588,1.5291,1.4834,1.4362,1.3894,1.3362,1.2739,1.2345,1.2227,1.1797,1.1596,1.1587,1.0937,1.0606,1.0587,1.1996,1.3587,1.5116,1.5137,1.5453,1.6332,1.7001,1.7641,1.8221,1.88,1.8827,1.8104,1.8041,1.8508,1.96,1.9398,1.8939,1.8323,1.7853,1.7529,1.7404,1.6973,1.6718,1.6791,1.6761,1.6663,1.6675,1.6577,1.6534,1.6522,1.6479,1.6337,1.5925,1.568,1.54,1.5006,1.4915,1.4777,1.4477,1.4287,1.4078,1.4073,1.4355,1.4633,1.4846,1.5404,1.5719,1.5711,1.6053,1.627,1.6033,1.6493,1.7092,1.7694,1.8033,1.8268,1.8659,1.918,1.9656,1.9747,1.9798,1.9798,1.9834,1.9707,1.9346,1.916,1.9102,1.9183,1.9256,1.9431,1.9281,1.9551,2.0122,2.0508,2.0995,2.164,2.2048,2.237,2.2628,2.2965,2.3299,0.0,2.3501,2.3325,2.2962,2.2898,2.2696,2.2237,2.22,2.191,2.1355,2.0997,2.0346,1.9305,1.8635,1.7888,1.7088,1.6537,1.6253,1.6271,1.5781,1.5227,1.4474,1.4057,1.3668,1.3246,1.2702,1.2335,1.218,1.1807,1.1596,1.1606,1.1689,1.165,1.1469,1.2861,1.4,1.4536,1.526,1.5865,1.631,1.7466,1.846,1.9212,1.951,1.9546,1.942,1.942,1.9495,1.9675,1.9617,1.9303,1.8551,1.8066,1.7666,1.7295,1.6931,1.6663,1.6577,1.6565,1.6534,1.6534,1.6522,1.6534,1.6534,1.6534,1.6392,1.6032,1.5724,1.5367,1.4994,1.488,1.4823,1.4616,1.443,1.4291,1.4125,1.4125,1.4467,1.4953,1.534,1.5774,1.6052,1.6477,1.6655,1.6332,1.6797,1.7658,1.8745,1.9318,1.9232,1.9021,1.9281,1.9643,1.9759,1.9798,1.9798,2.0127,1.9902,1.9707,1.9492,1.9277,1.9277,1.937,1.9413,1.9303,1.9314,1.9565,2.0139,2.0656,2.1161,2.1618,2.2018,2.2461,2.281,2.3117,2.3442,2.34,2.3219,2.3006,2.2994,2.2941,2.2692,2.2408,2.2159,2.1824,2.1035,2.0257,1.9595,1.8405,1.7391,1.6602,1.6304,1.6143,1.6074,1.5318,1.4682,1.4121,1.3678,1.3372,1.3152,1.2809,1.2616,1.2588,1.2393,1.2275,1.2332,1.2412,1.2422,1.2351,1.3179,1.3726,1.3999,1.4755,1.5481,1.604,1.7384,1.8433,1.9072,1.9273,1.9472,1.969,1.9705,1.9705,1.9705,1.9705,1.9376,1.8589,1.8133,1.7706,1.724,1.6876,1.6663,1.6522,1.6534,1.6534,1.6534,1.6534,1.6534,1.6534,1.6534,1.6392,1.6032,1.5579,1.5096,1.4822,1.4822,1.4811,1.4627,1.4477,1.4373,1.4233,1.4186,1.4378,1.469,1.5334,1.5826,1.6175,1.6818,1.7236,1.694,1.7447,1.8283,1.9285,1.9606,1.9622,1.9509,1.9483,1.9734,1.9798,1.9798,1.9798,2.014,1.9755,1.9745,1.9638,1.9358,1.9506,1.9506,1.9506,1.958,1.9576,1.9561,1.9935,2.0369,2.0855,2.1123,2.1581,2.2107,2.2302,2.2689,2.3014,2.2969,2.288,2.2765,2.2754,2.2708,2.2559,2.226,2.2065,2.1907,2.0839,2.0024,1.9474,1.8016,1.6919,1.6277,1.6165,1.6007,1.5804,1.4955,1.4357,1.4073,1.3648,1.3382,1.3313,1.3214,1.3164,1.3164,1.3164,1.3164,1.3164,1.3154,1.3086,1.291,1.3361,1.3648,1.3764,1.4322,1.5028,1.584,1.7011,1.7933,1.85,1.8731,1.9049,1.942,1.9545,1.9581,1.9581,1.9639,1.9391,1.8608,1.8094,1.7666,1.7253,1.6931,1.6675,1.6522,1.6534,1.6534,1.6534,1.6534,1.6534,1.6534,1.6479,1.6306,1.5812,1.5277,1.4869,1.4719,1.4684,1.4684,1.4627,1.4523,1.4477,1.443,1.4384,1.4428,1.4598,1.5541,1.6188,1.6615,1.7512,1.802,1.7809,1.8254,1.8943,1.9408,1.9666,1.9745,1.9709,1.9786,1.9798,1.9798,1.9798,1.9798,1.9353,1.9325,1.9376,1.9474,1.9575,1.9974,2.0188,2.0188,2.0362,2.0439,2.0332,2.0311,2.0456,2.0911,2.1283,2.1587,2.179,2.206,2.2275,2.2456,2.2446,2.2178,2.1771,2.1739,2.1535,2.1203,2.1107,2.1145,2.1113,2.0392,1.94,1.8104,1.699,1.6367,1.6077,1.5743,1.5494,1.5447,1.4978,1.4701,1.4546,1.4307,1.4129,1.4014,1.4014,1.397,1.3965,1.3961,1.3961,1.3961,1.3941,1.3662,1.3076,1.3748,1.4172,1.41,1.4408,1.4953,1.5715,1.6262,1.6899,1.7626,1.7987,1.8369,1.8745,1.9011,1.9176,1.9205,1.9487,1.9273,1.8606,1.7935,1.7434,1.7212,1.7002,1.6791,1.6565,1.6534,1.6534,1.6534,1.6479,1.6491,1.6423,1.6392,1.6088,1.548,1.5108,1.4731,1.4419,1.4419,1.4477,1.4581,1.4616,1.4616,1.4616,1.4616,1.4818,1.5303,1.6124,1.6815,1.7443,1.8101,1.8697,1.8631,1.8895,1.9282,1.9475,1.9795,1.9747,1.9723,1.9736,1.9798,1.9798,1.9798,1.9798,1.8975,1.8975,1.8984,1.9063,1.932,1.9548,1.9706,1.9696,1.9951,2.0029,2.001,1.9975,2.0246,2.0741,2.1051,2.1118,2.1108,2.1425,2.1415,2.1318,2.1385,2.1293,2.0969,2.11,2.0998,2.0825,2.0812,2.0834,2.071,2.012,1.9165,1.8201,1.7442,1.677,1.6154,1.5889,1.5664,1.5397,1.5233,1.5135,1.4995,1.4459,1.4141,1.4131,1.4087,1.4087,1.4087,1.4087,1.4087,1.4087,1.4087,1.3922,1.3643,1.4008,1.4365,1.4775,1.4572,1.4693,1.5381,1.5586,1.5971,1.6646,1.7037,1.7463,1.7974,1.8372,1.8593,1.8645,1.8835,1.8812,1.8335,1.7733,1.7282,1.7086,1.6918,1.6705,1.6479,1.6436,1.6392,1.625,1.6219,1.6175,1.6088,1.5957,1.5691,1.5255,1.4937,1.4558,1.4269,1.4269,1.4326,1.443,1.4512,1.4605,1.4697,1.4754,1.5025,1.5643,1.6376,1.7085,1.7906,1.8638,1.9186,1.9206,1.9152,1.9018,1.8757,1.8896,1.8895,1.9208,1.9673,1.9798,1.9798,1.9798,1.9798,1.8256,1.8345,1.8416,1.8496,1.8674,1.8904,1.9063,1.9143,1.9311,1.9478,1.9557,1.9706,1.9932,2.0255,2.042,2.0508,2.0342,2.0498,2.0411,2.0157,2.0216,2.0138,2.007,2.0148,2.0216,2.0256,2.0311,2.0266,2.0237,1.9551,1.8884,1.8301,1.775,1.7105,1.6527,1.6282,1.5978,1.5684,1.5488,1.542,1.5322,1.4805,1.4428,1.4428,1.4482,1.4482,1.4428,1.4482,1.4428,1.4428,1.4492,1.4428,1.4428,1.4428,1.4717,1.5155,1.4817,1.4655,1.5109,1.5037,1.5223,1.5867,1.6156,1.66,1.716,1.7652,1.7987,1.8144,1.8545,1.8777,1.8167,1.754,1.7073,1.6905,1.6761,1.6534,1.6306,1.6262,1.6132,1.5944,1.5901,1.578,1.5603,1.5468,1.5289,1.4869,1.4593,1.4326,1.4082,1.3988,1.4035,1.414,1.4186,1.443,1.4731,1.4789,1.5118,1.5681,1.6344,1.7046,1.7927,1.8675,1.9101,1.8869,1.8846,1.8696,1.8339,1.8175,1.8344,1.8845,1.9283,1.9648,1.9786,1.9786,1.9798,1.7302,1.7473,1.7691,1.7781,1.7772,1.8184,1.8505,1.8736,1.8913,1.9161,1.9311,1.9311,1.9381,1.9381,1.9557,1.9645,1.9645,1.932,1.9161,1.9073,1.8904,1.8816,1.8736,1.8816,1.8913,1.9118,1.9161,1.9169,1.9097,1.8667,1.8392,1.8251,1.7562,1.7232,1.7093,1.6504,1.6145,1.6066,1.5595,1.5362,1.5352,1.5303,1.5245,1.5216,1.5332,1.5293,1.5312,1.5332,1.5322,1.5342,1.5303,1.5312,1.5332,1.5322,1.5233,1.5061,1.4978,1.4958,1.4893,1.4742,1.4839,1.5398,1.5554,1.5864,1.6386,1.6905,1.7342,1.7638,1.8839,1.9236,1.8257,1.7325,1.6859,1.6744,1.6565,1.6337,1.6032,1.5856,1.578,1.5591,1.5457,1.5322,1.5153,1.5108,1.4777,1.4398,1.4118,1.3884,1.36,1.3467,1.3563,1.3658,1.381,1.3999,1.4558,1.4605,1.4909,1.5516,1.6063,1.668,1.7422,1.8091,1.8276,1.8425,1.825,1.8039,1.7795,1.7917,1.8296,1.8621,1.8883,1.9221,1.9672,1.9786,1.9798,1.7465,1.7619,1.7781,1.7797,1.7546,1.7781,1.7942,1.8103,1.8273,1.8514,1.8754,1.8843,1.8922,1.8931,1.8843,1.9002,1.9161,1.8913,1.8674,1.8353,1.8031,1.7899,1.7945,1.7962,1.7962,1.8044,1.8447,1.8744,1.8758,1.8534,1.8293,1.81,1.7703,1.7316,1.7016,1.6598,1.6135,1.5704,1.5294,1.5037,1.4852,1.4883,1.4942,1.4942,1.5245,1.542,1.542,1.542,1.542,1.542,1.542,1.542,1.542,1.542,1.5352,1.5243,1.4998,1.4844,1.4764,1.4419,1.4169,1.4302,1.4554,1.5108,1.5706,1.6142,1.6667,1.7581,1.8586,1.8811,1.7958,1.6867,1.6379,1.6638,1.6252,1.5856,1.5579,1.5412,1.5244,1.4869,1.4686,1.449,1.4444,1.4316,1.414,1.3894,1.3705,1.3505,1.3362,1.3256,1.3314,1.3362,1.3409,1.3505,1.3752,1.4118,1.4446,1.5104,1.5657,1.6224,1.6851,1.7215,1.7459,1.7557,1.7434,1.7105,1.6819,1.6985,1.7503,1.8116,1.8388,1.8858,1.9556,1.9619,1.9695,1.7789,1.787,1.8031,1.7878,1.7554,1.7619,1.77,1.77,1.787,1.8031,1.8282,1.8451,1.846,1.8451,1.8362,1.8442,1.8594,1.8434,1.8112,1.7814,1.7425,1.7274,1.7307,1.7273,1.718,1.7231,1.7522,1.7836,1.7989,1.7795,1.7802,1.7916,1.7624,1.7309,1.7008,1.6643,1.6132,1.5679,1.523,1.4866,1.468,1.4593,1.4656,1.4715,1.4942,1.5177,1.5235,1.5313,1.5303,1.5303,1.5245,1.5303,1.5362,1.5352,1.542,1.5381,1.5146,1.5008,1.4907,1.4536,1.4152,1.3932,1.4254,1.479,1.5492,1.5785,1.6427,1.7323,1.7986,1.8158,1.7546,1.6593,1.6114,1.6397,1.6007,1.5485,1.5074,1.4915,1.4593,1.4222,1.4035,1.3884,1.3789,1.3752,1.3621,1.344,1.3344,1.3238,1.3132,1.3084,1.3084,1.3084,1.3094,1.3142,1.3296,1.3525,1.38,1.4382,1.4784,1.5408,1.5924,1.6296,1.6512,1.6621,1.6504,1.6102,1.6006,1.6145,1.6678,1.7399,1.7836,1.8213,1.8865,1.9423,1.9441,1.8193,1.8112,1.8264,1.8103,1.77,1.77,1.77,1.77,1.77,1.7789,1.7959,1.804,1.7959,1.804,1.7959,1.8031,1.7951,1.7627,1.7473,1.7416,1.7064,1.6892,1.697,1.6855,1.673,1.6591,1.6315,1.6402,1.6846,1.6725,1.6934,1.7476,1.7204,1.7117,1.7378,1.6633,1.6309,1.6111,1.5387,1.4907,1.4887,1.4602,1.4469,1.4469,1.4529,1.4656,1.497,1.5088,1.5088,1.5029,1.5029,1.5088,1.5205,1.5303,1.542,1.542,1.5391,1.5391,1.5332,1.5054,1.4745,1.4582,1.4742,1.4966,1.5453,1.5829,1.6294,1.6835,1.7179,1.7241,1.7101,1.6548,1.6107,1.5856,1.5702,1.5238,1.4611,1.4269,1.4035,1.3716,1.3604,1.3546,1.345,1.3524,1.3468,1.3282,1.3203,1.3125,1.2988,1.2968,1.292,1.2929,1.2978,1.3017,1.2978,1.2929,1.32,1.3519,1.3915,1.435,1.4832,1.5182,1.5421,1.5518,1.5579,1.5223,1.5314,1.5544,1.6057,1.6692,1.712,1.7707,1.8482,1.8996,1.8988,1.8754,1.8683,1.8603,1.8362,1.7951,1.7781,1.7619,1.7473,1.7465,1.7554,1.7554,1.7554,1.7554,1.7554,1.7554,1.7473,1.7383,1.7057,1.7066,1.7212,1.6944,1.6799,1.6862,1.6647,1.6535,1.6329,1.5903,1.5891,1.637,1.653,1.6782,1.6971,1.6909,1.6749,1.6718,1.616,1.5859,1.5563,1.4932,1.4495,1.4336,1.4144,1.4001,1.4061,1.4189,1.4309,1.4309,1.4597,1.4656,1.4666,1.4784,1.4902,1.5156,1.5313,1.542,1.542,1.542,1.542,1.5371,1.5096,1.4848,1.4725,1.4576,1.479,1.5285,1.5384,1.5733,1.6358,1.6608,1.6644,1.6513,1.6023,1.5673,1.5499,1.512,1.4618,1.4031,1.3652,1.3392,1.3326,1.3401,1.3511,1.366,1.3718,1.3718,1.345,1.3351,1.3263,1.3018,1.291,1.2891,1.2891,1.2891,1.2891,1.2891,1.2891,1.3027,1.32,1.344,1.3641,1.4005,1.4249,1.4453,1.4562,1.4614,1.4651,1.4731,1.4981,1.5495,1.607,1.6543,1.7345,1.8254,1.8524,1.8485,1.8674,1.8594,1.8683,1.8353,1.787,1.7708,1.7456,1.731,1.7139,1.7057,1.7147,1.7057,1.7066,1.7147,1.7057,1.6976,1.6812,1.6484,1.6484,1.6735,1.6661,1.6533,1.6566,1.6213,1.6055,1.5846,1.5276,1.5401,1.5974,1.6229,1.6448,1.6742,1.6746,1.6627,1.6427,1.6085,1.5796,1.5575,1.5057,1.4742,1.4628,1.4224,1.3941,1.395,1.401,1.401,1.3959,1.4121,1.424,1.4359,1.4488,1.4725,1.5029,1.5254,1.542,1.542,1.542,1.542,1.5391,1.5176,1.5037,1.4975,1.4828,1.4949,1.5361,1.529,1.5442,1.5843,1.5968,1.5941,1.5796,1.5608,1.5319,1.519,1.4831,1.4276,1.3738,1.3401,1.3303,1.3412,1.3618,1.3789,1.4023,1.397,1.4,1.3779,1.3603,1.3457,1.3145,1.2988,1.2939,1.29,1.2891,1.2891,1.2891,1.2891,1.2891,1.3017,1.3104,1.3258,1.3501,1.3693,1.3863,1.4121,1.415,1.4212,1.4294,1.4408,1.4755,1.5381,1.6065,1.6735,1.7451,1.788,1.7891,1.8103,1.8031,1.8425,1.8175,1.761,1.7383,1.7147,1.6976,1.6558,1.6484,1.6566,1.6394,1.6476,1.6566,1.6394,1.6312,1.6229,1.5899,1.565,1.5807,1.5965,1.6066,1.6088,1.5673,1.5514,1.5321,1.4864,1.4915,1.5643,1.5899,1.6147,1.674,1.6725,1.662,1.664,1.641,1.6289,1.6202,1.5664,1.5366,1.5542,1.4707,1.4189,1.4181,1.4001,1.395,1.395,1.3941,1.401,1.407,1.4318,1.4556,1.4843,1.5186,1.542,1.542,1.542,1.542,1.542,1.5371,1.5352,1.5322,1.5303,1.5468,1.5573,1.5456,1.5288,1.5361,1.5392,1.5347,1.5186,1.528,1.5204,1.487,1.4693,1.4335,1.3818,1.3596,1.3584,1.373,1.3931,1.4277,1.4596,1.4434,1.4297,1.4131,1.3896,1.373,1.3496,1.3301,1.3008,1.3008,1.3037,1.3027,1.3065,1.3113,1.3113,1.32,1.32,1.321,1.3258,1.3334,1.3399,1.36,1.3858,1.3873,1.3967,1.4197,1.4475,1.5088,1.5681,1.6098,1.6587,1.7104,1.7302,1.7448,1.7529,1.735,1.7107,1.6952,1.655,1.6312,1.6064,1.5899,1.5816,1.5726,1.5726,1.5726,1.5726,1.5726,1.5567,1.5492,1.5333,1.5075,1.479,1.5047,1.5659,1.5936,1.559,1.539,1.5403,1.5162,1.5325,1.6139,1.6476,1.6968,1.7456,1.7276,1.7204,1.7166,1.6615,1.6502,1.6527,1.5686,1.5375,1.557,1.4891,1.4428,1.441,1.4359,1.4291,1.4291,1.43,1.435,1.435,1.4189,1.4437,1.4961,1.5245,1.542,1.542,1.542,1.542,1.542,1.542,1.542,1.542,1.542,1.542,1.5478,1.542,1.5262,1.5097,1.5164,1.5245,1.4992,1.5166,1.5176,1.4834,1.4572,1.431,1.4067,1.3965,1.3931,1.4,1.4394,1.4746,1.5,1.5059,1.4893,1.4658,1.4453,1.4321,1.408,1.3667,1.3402,1.3343,1.3363,1.3262,1.32,1.3238,1.3334,1.343,1.343,1.3392,1.3344,1.3286,1.3188,1.3195,1.3627,1.3805,1.401,1.4251,1.4649,1.4989,1.5268,1.5708,1.6052,1.6482,1.6606,1.6453,1.6542,1.6378,1.6206,1.6131,1.5816,1.5567,1.5409,1.5235,1.5151,1.5061,1.4977,1.5068,1.5068,1.5061,1.4901,1.4831,1.4755,1.4496,1.4375,1.4654,1.5116,1.5582,1.5427,1.5431,1.5609,1.5433,1.573,1.6335,1.6886,1.7375,1.77,1.7789,1.7757,1.7593,1.7342,1.7081,1.6953,1.6154,1.5817,1.6017,1.5266,1.484,1.4775,1.4656,1.4588,1.4588,1.4597,1.4588,1.4529,1.4359,1.4478,1.502,1.5303,1.542,1.542,1.542,1.542,1.542,1.542,1.542,1.542,1.542,1.542,1.542,1.54,1.5205,1.4635,1.4784,1.473,1.469,1.5039,1.5244,1.5098,1.4824,1.459,1.4434,1.4414,1.4502,1.4668,1.4893,1.5117,1.54,1.541,1.536,1.5202,1.4956,1.4869,1.4676,1.424,1.3942,1.3912,1.3858,1.3748,1.3641,1.3658,1.3742,1.3847,1.3941,1.3858,1.3621,1.3457,1.3311,1.3318,1.3538,1.3873,1.4334,1.4565,1.4598,1.489,1.5064,1.5293,1.5694,1.6198,1.6208,1.5318,1.5304,1.5484,1.5484,1.5311,1.5075,1.4999,1.4915,1.4566,1.4482,1.4566,1.4482,1.4489,1.4657,1.4489,1.4405,1.4398,1.425,1.4166,1.4253,1.4482,1.4905,1.5275,1.5281,1.5341,1.5513,1.559,1.5926,1.6531,1.7041,1.7619,1.8112,1.8425,1.8284,1.8109,1.8024,1.7924,1.7455,1.6694,1.6357,1.6374,1.5677,1.5176,1.5137,1.4951,1.4824,1.4824,1.4824,1.4834,1.4765,1.4656,1.4715,1.5029,1.5313,1.542,1.542,1.542,1.542,1.542,1.542,1.542,1.542,1.542,1.542,1.542,1.54,1.5117,1.4424,1.4053,1.4111,1.4521,1.5029,1.5322,1.5332,1.5352,1.5205,1.4961,1.4853,1.5,1.5342,1.54,1.541,1.542,1.542,1.5468,1.5581,1.5459,1.5497,1.5399,1.5098,1.478,1.4581,1.4486,1.4318,1.4226,1.4082,1.4222,1.4351,1.4501,1.4455,1.4212,1.4003,1.3716,1.3695,1.4021,1.4501,1.5131,1.5165,1.4948,1.4832,1.5068,1.5197,1.5406,1.6032,1.6315,1.4817,1.4817,1.4727,1.4643,1.4566,1.4412,1.4341,1.4334,1.425,1.4243,1.4243,1.4166,1.425,1.425,1.425,1.4166,1.4166,1.4173,1.4088,1.4128,1.4568,1.4824,1.4994,1.4831,1.5069,1.5455,1.5682,1.6065,1.6878,1.7772,1.8585,1.8975,1.9079,1.9219,1.8891,1.8471,1.8255,1.797,1.6996,1.6548,1.65,1.5838,1.5371,1.5362,1.5245,1.5235,1.5235,1.5235,1.5235,1.5186,1.5069,1.502,1.5245,1.5362,1.541,1.542,1.542,1.542,1.542,1.542,1.542,1.542,1.542,1.542,1.542,1.542,1.5176,1.4603,1.3806,1.3929,1.4885,1.5264,1.5459,1.5478,1.5468,1.5429,1.5293,1.5273,1.5303,1.5371,1.542,1.542,1.542,1.5604,1.571,1.5816,1.5995,1.6151,1.6095,1.5966,1.5753,1.5549,1.5127,1.5004,1.5,1.4888,1.4936,1.5017,1.5154,1.5165,1.4869,1.4698,1.447,1.4426,1.4484,1.5051,1.5645,1.5519,1.5233,1.5177,1.5154,1.5406,1.5719,1.6162,1.661,1.4412,1.4412,1.4328,1.4237,1.4243,1.4166,1.4088,1.4088,1.4088,1.4088,1.4088,1.4088,1.4088,1.4088,1.4088,1.4088,1.4088,1.4088,1.4088,1.42,1.4518,1.4812,1.4988,1.4926,1.5147,1.5698,1.6004,1.6573,1.7416,1.8256,1.8984,1.9502,1.9615,1.9478,1.9257,1.8772,1.8404,1.8006,1.7118,1.6602,1.6529,1.5889,1.542,1.542,1.542,1.542,1.542,1.542,1.542,1.5352,1.5303,1.5254,1.5352,1.542,1.542,1.542,1.542,1.542,1.542,1.542,1.542,1.542,1.542,1.542,1.542,1.542,1.5262,1.4883,1.453,1.4543,1.539,1.5604,1.5662,1.57,1.5758,1.5758,1.5768,1.5584,1.542,1.542,1.5478,1.5536,1.5594,1.5778,1.6009,1.6218,1.6549,1.6701,1.7027,1.6904,1.686,1.6565,1.5969,1.5703,1.5777,1.5787,1.5739,1.5796,1.5853,1.5802,1.5605,1.5412,1.5276,1.5184,1.5004,1.5466,1.5876,1.5695,1.5652,1.5574,1.5658,1.5846,1.6209,1.6729,1.7123,1.3995,1.3961,1.4001,1.4021,1.4028,1.4062,1.4088,1.4088,1.4088,1.4088,1.4088,1.4088,1.4088,1.4088,1.4088,1.4088,1.4088,1.4088,1.4088,1.4186,1.4439,1.4739,1.5085,1.5268,1.5584,1.6082,1.6431,1.702,1.775,1.8505,1.9301,1.9797,1.9765,1.956,1.9243,1.8786,1.8416,1.794,1.7259,1.6753,1.6641,1.5967,1.5576,1.542,1.542,1.542,1.542,1.542,1.542,1.542,1.542,1.542,1.542,1.542,1.542,1.542,1.542,1.542,1.542,1.542,1.542,1.542,1.5478,1.5478,1.5526,1.5517,1.5426,1.5442,1.5352,1.5531,1.5864,1.5941,1.6066,1.6171,1.6171,1.6296,1.6239,1.5874,1.5758,1.5652,1.5768,1.5884,1.5999,1.6171,1.64,1.6684,1.7011,1.7302,1.763,1.7817,1.7711,1.7836,1.7395,1.686,1.6846,1.6608,1.658,1.666,1.6694,1.663,1.6516,1.6536,1.6375,1.5668,1.5596,1.5969,1.634,1.6512,1.6422,1.6134,1.6274,1.6622,1.6967,1.7339,1.7715,1.3574,1.338,1.3614,1.3721,1.3761,1.3975,1.4075,1.4088,1.4088,1.4088,1.4088,1.4088,1.4088,1.4088,1.4088,1.4088,1.4088,1.4088,1.4088,1.4173,1.4412,1.4811,1.5154,1.5725,1.6208,1.6704,1.7081,1.7531,1.8201,1.8993,1.9599,2.0003,1.9946,1.9668,1.9228,1.8848,1.8389,1.8008,1.7471,1.709,1.6728,1.6221,1.5713,1.5469,1.542,1.542,1.542,1.542,1.542,1.542,1.542,1.542,1.542,1.542,1.542,1.542,1.542,1.542,1.542,1.542,1.5478,1.5604,1.5662,1.5778,1.5826,1.57,1.5803,1.6239,1.6342,1.6446,1.6602,1.6591,1.6524,1.657,1.6684,1.674,1.6751,1.6684,1.6503,1.6389,1.6343,1.6285,1.6457,1.6673,1.7011,1.7346,1.7678,1.7995,1.8328,1.8502,1.8558,1.8724,1.892,1.84,1.7966,1.7614,1.7419,1.7585,1.7678,1.7703,1.7688,1.7847,1.7542,1.6675,1.6159,1.6262,1.664,1.7155,1.7132,1.6834,1.7143,1.746,1.7751,1.8056,1.856,1.3333,1.3227,1.336,1.3507,1.3654,1.3953,1.4102,1.423,1.4328,1.4321,1.4321,1.4243,1.425,1.4088,1.4088,1.4088,1.4088,1.4088,1.4088,1.4173,1.4496,1.4901,1.5325,1.6072,1.6812,1.7465,1.787,1.8256,1.8816,1.932,1.9759,1.9927,1.9795,1.9375,1.8955,1.8506,1.8242,1.793,1.7607,1.7295,1.7002,1.6436,1.5869,1.5537,1.542,1.542,1.542,1.542,1.542,1.542,1.542,1.542,1.542,1.542,1.542,1.542,1.542,1.5478,1.5546,1.5546,1.5662,1.5836,1.5904,1.6066,1.6171,1.6161,1.6368,1.7069,1.7234,1.7267,1.7423,1.7256,1.7234,1.7335,1.7446,1.7512,1.7678,1.7678,1.7567,1.729,1.7067,1.6955,1.6955,1.7234,1.7623,1.8007,1.8398,1.8667,1.8934,1.9073,1.9132,1.9189,1.9283,1.8883,1.8521,1.8362,1.8152,1.8321,1.848,1.8505,1.8417,1.8392,1.8106,1.7563,1.719,1.6928,1.7264,1.7791,1.7664,1.7607,1.7896,1.8191,1.8485,1.8818,1.923,1.3243,1.3189,1.3328,1.3491,1.3702,1.4082,1.433,1.4539,1.4713,1.4657,1.4559,1.442,1.4212,1.4052,1.4065,1.4092,1.4237,1.425,1.425,1.4328,1.4664,1.5075,1.565,1.6394,1.7221,1.8112,1.8674,1.9152,1.9381,1.9636,1.9782,1.982,1.9512,1.9072,1.8601,1.8291,1.8076,1.79,1.7715,1.75,1.7197,1.6543,1.5918,1.5547,1.5459,1.542,1.542,1.542,1.542,1.542,1.542,1.542,1.542,1.5478,1.5488,1.5478,1.542,1.5536,1.5614,1.573,1.5884,1.6181,1.6285,1.6457,1.674,1.6899,1.7157,1.797,1.8112,1.8064,1.8176,1.7998,1.8007,1.8104,1.8213,1.8321,1.8494,1.8494,1.8494,1.8224,1.7897,1.7733,1.7733,1.7897,1.8278,1.8483,1.8869,1.9028,1.9303,1.9448,1.953,1.9506,1.9421,1.9096,1.8871,1.8983,1.8871,1.8883,1.902,1.9083,1.8882,1.8694,1.848,1.8367,1.8141,1.7987,1.8231,1.8408,1.8396,1.8495,1.8697,1.8858,1.9094,1.9269,1.9506,1.3407,1.3269,1.3608,1.382,1.3957,1.4526,1.4786,1.4873,1.5036,1.4992,1.488,1.4365,1.3879,1.3784,1.4015,1.4248,1.449,1.4657,1.4636,1.4685,1.4942,1.5343,1.6026,1.6632,1.7485,1.8338,1.8955,1.9469,1.9681,1.9993,1.9976,1.9749,1.9394,1.9053,1.8545,1.8203,1.8018,1.7988,1.7939,1.7744,1.7314,1.6543,1.6123,1.5879,1.5625,1.542,1.542,1.542,1.542,1.542,1.542,1.542,1.5478,1.5672,1.5798,1.573,1.5604,1.5478,1.573,1.5894,1.6171,1.6513,1.6729,1.7134,1.7357,1.7689,1.8061,1.8762,1.8709,1.8607,1.8677,1.863,1.8572,1.8602,1.8762,1.8815,1.8987,1.9081,1.9028,1.9028,1.8643,1.8667,1.8667,1.8774,1.8946,1.9146,1.9291,1.946,1.9565,1.9708,1.9759,1.9672,1.9698,1.9346,1.9233,1.9346,1.9346,1.9359,1.9434,1.9535,1.9359,1.9171,1.9434,1.9294,1.9054,1.8765,1.8687,1.8824,1.9116,1.9232,1.9208,1.9408,1.9659,1.9798,1.9759,1.4398,1.3717,1.3925,1.4096,1.4313,1.501,1.5393,1.5488,1.5721,1.5733,1.5337,1.4474,1.4029,1.4071,1.4422,1.4674,1.4989,1.5043,1.5112,1.5145,1.5279,1.561,1.5992,1.6686,1.7467,1.8294,1.8776,1.909,1.9516,1.9716,1.9676,1.9195,1.9023,1.8691,1.8398,1.8125,1.8027,1.8008,1.7969,1.7793,1.7344,1.6797,1.6318,1.6125,1.5654,1.5459,1.542,1.542,1.542,1.542,1.542,1.542,1.5625,1.6098,1.6617,1.6374,1.6369,1.6252,1.6185,1.6327,1.6637,1.7022,1.7301,1.7534,1.792,1.8193,1.8506,1.8934,1.8934,1.8928,1.8976,1.8982,1.9011,1.9105,1.9198,1.9291,1.9396,1.9448,1.95,1.95,1.9448,1.9356,1.9251,1.9251,1.9303,1.9396,1.95,1.9604,1.9708,1.9759,1.9798,1.9786,1.9773,1.971,1.966,1.9673,1.9635,1.961,1.961,1.9698,1.9736,1.9749,1.9826,1.9826,1.9522,1.9309,1.9095,1.9207,1.9495,1.9598,1.9648,1.9736,1.9798,1.9836,1.9924,1.5551,1.4768,1.4697,1.4768,1.5038,1.5689,1.598,1.6068,1.6431,1.6261,1.5651,1.4787,1.4409,1.4657,1.4859,1.5072,1.5446,1.5536,1.5644,1.5666,1.5724,1.5928,1.6365,1.6877,1.749,1.8267,1.8676,1.8941,1.9058,1.9199,1.9093,1.8592,1.866,1.8516,1.8262,1.8086,1.8008,1.8008,1.8008,1.7852,1.7519,1.7076,1.6645,1.6294,1.5871,1.5584,1.5594,1.5752,1.5772,1.5841,1.5517,1.542,1.5576,1.6688,1.7706,1.7809,1.7916,1.7589,1.7301,1.7223,1.7255,1.7523,1.7909,1.8182,1.8333,1.8602,1.8762,1.9004,1.8987,1.8987,1.9052,1.9105,1.9223,1.9368,1.9512,1.9656,1.9747,1.9695,1.9643,1.9643,1.9656,1.9695,1.9656,1.9656,1.9656,1.9656,1.9708,1.9798,1.9798,1.9798,1.9798,1.9798,1.9798,1.9798,1.9798,1.9798,1.9798,1.9798,1.9798,1.9798,1.9798,1.9798,1.9812,1.9837,1.9798,1.9698,1.9434,1.9636,1.9775,1.9737,1.9736,1.9761,1.9811,1.9874,2.03,1.6612,1.6691,1.6315,1.6114,1.6184,1.6552,1.668,1.6542,1.674,1.6531,1.6038,1.5137,1.4943,1.5067,1.5284,1.5551,1.6106,1.6138,1.6223,1.6215,1.6174,1.648,1.6831,1.7261,1.7703,1.8396,1.8667,1.8629,1.8708,1.8679,1.866,1.8643,1.8613,1.8613,1.8477,1.8242,1.8066,1.8027,1.8008,1.8076,1.7752,1.7412,1.6941,1.6847,1.6377,1.6066,1.6077,1.6412,1.6656,1.6646,1.6059,1.5664,1.6039,1.7501,1.8725,1.9587,1.9336,1.9056,1.8812,1.8012,1.7534,1.7909,1.8398,1.8762,1.8845,1.891,1.9004,1.9088,1.9215,1.9155,1.9148,1.921,1.9503,1.9506,1.9651,1.9708,1.9798,1.9798,1.9747,1.9798,1.9798,1.9798,1.9798,1.9747,1.9759,1.9759,1.9759,1.9798,1.9798,1.9798,1.9798,1.9798,1.9798,1.9798,1.9798,1.9798,1.9798,1.9798,1.9798,1.9798,1.9798,1.9798,1.9811,1.9798,1.9798,1.9798,1.9798,1.9813,1.9826,1.9799,1.9811,1.9861,2.0037,2.0213,2.0916,1.6929,1.7024,1.726,1.7097,1.6709,1.7179,1.7279,1.7234,1.7297,1.7026,1.642,1.6148,1.5972,1.5914,1.6088,1.6388,1.6807,1.6891,1.6945,1.6898,1.6919,1.6925,1.7189,1.7323,1.7562,1.8033,1.8225,1.8247,1.8202,1.8291,1.8252,1.8301,1.8516,1.8613,1.8465,1.8477,1.8281,1.8105,1.8134,1.8202,1.8091,1.765,1.7336,1.74,1.676,1.6675,1.689,1.7137,1.7329,1.7366,1.6941,1.6729,1.6901,1.8655,2.0057,2.1055,2.0546,2.0224,1.9936,1.9125,1.8649,1.853,1.8946,1.9182,1.9287,1.9251,1.915,1.9299,1.9836,2.0067,1.9223,1.9613,2.0019,1.9793,1.9735,1.991,1.9962,2.0037,1.9936,1.9999,1.9886,1.9798,1.9798,1.9798,1.9798,1.9798,1.9798,1.9798,1.9798,1.9798,1.9798,1.9798,1.9798,1.9798,1.9798,1.9798,1.9798,1.9811,1.9823,1.9911,1.9949,1.9811,1.9823,1.9811,1.9823,1.9836,1.9836,1.9811,1.9798,1.9811,1.9886,1.9974,2.0213,2.0655,2.1423,1.6973,1.7002,1.7444,1.7504,1.7273,1.7713,1.7755,1.7595,1.7675,1.7385,1.6821,1.6899,1.6821,1.6684,1.6776,1.7009,1.7242,1.7316,1.7432,1.7413,1.7284,1.7278,1.7329,1.7411,1.7555,1.7716,1.7784,1.7959,1.8115,1.8076,1.8251,1.8448,1.8626,1.8853,1.899,1.9002,1.8834,1.8466,1.8472,1.8529,1.8485,1.8168,1.7792,1.7915,1.7573,1.7608,1.7962,1.8239,1.8611,1.8668,1.8488,1.8228,1.8765,1.9775,2.1192,2.1608,2.1519,2.1104,2.0831,2.0268,1.9833,1.9758,1.986,1.9792,1.9613,1.9531,1.9446,1.9499,2.0564,2.1244,2.0151,2.0853,2.0814,2.0635,2.054,2.0614,2.0577,2.0589,2.0363,2.0213,2.0125,2.0125,2.015,2.0175,2.0012,1.9949,1.9798,1.9798,1.9798,1.9798,1.9798,1.9798,1.9798,1.9798,1.9798,1.9823,1.9913,1.9911,1.9962,2.015,2.0162,2.0087,1.9907,1.9815,1.9803,1.9808,1.9897,2.0101,2.0001,1.9823,2.0024,2.0353,2.1096,2.1536,2.192,1.6675,1.6675,1.6724,1.7191,1.7765,1.793,1.7891,1.7724,1.7714,1.7548,1.7235,1.7107,1.7107,1.7185,1.725,1.7357,1.7505,1.7533,1.7584,1.7584,1.7593,1.7617,1.7657,1.7784,1.7852,1.794,1.8008,1.8134,1.8269,1.8405,1.8549,1.8873,1.9247,1.9494,1.9633,1.9889,1.9715,1.9132,1.9085,1.9131,1.9083,1.8923,1.8689,1.8585,1.8714,1.8753,1.9041,1.9508,1.9871,2.0098,2.0187,1.994,1.9738,2.106,2.2173,2.2519,2.258,2.2518,2.2518,2.1479,2.1023,2.0797,2.0748,2.0649,2.0054,1.9867,2.0113,2.0443,2.1712,2.2703,2.2578,2.2337,2.1813,2.1518,2.1423,2.1129,2.1066,2.1054,2.0815,2.0677,2.0665,2.0706,2.0706,2.0655,2.0416,2.015,1.9899,1.9811,1.9823,1.9798,1.9798,1.9798,1.9798,1.9862,1.9875,1.9925,1.9976,2.0039,2.0253,2.0661,2.0835,2.0894,2.0582,2.0106,2.011,2.032,2.0376,2.0456,2.0663,2.0856,2.0658,2.0945,2.1738,2.2324,2.2604,1.6289,1.6318,1.6611,1.6821,1.7197,1.748,1.7677,1.7901,1.793,1.7862,1.7725,1.7666,1.7666,1.7725,1.7735,1.7735,1.7803,1.7872,1.7872,1.7988,1.7969,1.8134,1.8182,1.8142,1.825,1.8337,1.8337,1.8472,1.8607,1.8741,1.8931,1.9245,1.9921,2.0154,2.0004,2.0014,1.9897,1.9579,1.9594,1.977,1.9792,1.9723,1.9705,1.9566,1.9707,1.99,2.0205,2.0709,2.1028,2.1325,2.1428,2.1273,2.0955,2.2037,2.2653,2.2909,2.2921,2.2921,2.2884,2.2399,2.1989,2.1604,2.1343,2.1269,2.0909,2.0932,2.1294,2.1716,2.2434,2.3106,2.2955,2.2879,2.2548,2.2356,2.2147,2.1574,2.1355,2.1368,2.128,2.1242,2.1204,2.1259,2.1272,2.1382,2.1221,2.0891,2.065,2.0128,2.0015,1.9888,1.9798,1.9862,1.9862,1.9926,2.0028,2.0501,2.0719,2.0821,2.114,2.1565,2.1661,2.1729,2.1491,2.1062,2.0986,2.0911,2.1221,2.1514,2.1892,2.2021,2.1915,2.1814,2.2344,2.2815,2.302,1.584,1.5869,1.6152,1.6367,1.6553,1.6973,1.7402,1.7773,1.793,1.8008,1.8008,1.8008,1.8008,1.8008,1.8008,1.8076,1.8076,1.8076,1.8091,1.8215,1.8231,1.8334,1.842,1.8548,1.8588,1.866,1.8731,1.8808,1.9075,1.9264,1.9584,2.0118,2.073,2.0962,2.0809,2.0775,2.0676,2.0499,2.0613,2.0602,2.0598,2.0637,2.0646,2.0534,2.0589,2.0854,2.126,2.1572,2.1777,2.2103,2.2211,2.2173,2.2099,2.2347,2.2957,2.3017,2.303,2.303,2.3053,2.304,2.2543,2.2156,2.1968,2.1956,2.2058,2.2071,2.2372,2.2752,2.31,2.3125,2.3125,2.3125,2.3047,2.2832,2.2635,2.2058,2.2033,2.2071,2.1933,2.1882,2.1895,2.1882,2.1995,2.2051,2.2099,2.1796,2.1504,2.0936,2.0385,2.0271,2.0283,2.0399,2.054,2.0823,2.1134,2.1524,2.1654,2.164,2.2016,2.2512,2.2429,2.247,2.2229,2.2115,2.2069,2.2074,2.2347,2.2698,2.2994,2.3234,2.3296,2.3245,2.3212,2.3404,2.3756,1.5381,1.5391,1.54,1.5654,1.6084,1.6523,1.6963,1.7393,1.7764,1.791,1.792,1.7861,1.7812,1.7891,1.791,1.7929,1.8091,1.8101,1.8157,1.8131,1.8178,1.8392,1.8636,1.8689,1.8994,1.9204,1.932,1.9462,1.9671,1.9977,2.0431,2.1008,2.1533,2.1706,2.1759,2.1737,2.1597,2.1418,2.1439,2.1439,2.1393,2.1592,2.1407,2.1315,2.1329,2.1548,2.1765,2.1909,2.2285,2.2518,2.2652,2.2641,2.2726,2.286,2.2969,2.3078,2.3078,2.3078,2.3078,2.3125,2.3053,2.2777,2.2877,2.3002,2.2927,2.2824,2.2937,2.3025,2.3125,2.3125,2.3125,2.3125,2.3113,2.3025,2.3025,2.2924,2.2924,2.2849,2.2673,2.2594,2.2571,2.2636,2.291,2.2967,2.3002,2.3057,2.2799,2.2485,2.1904,2.1121,2.1225,2.1485,2.1642,2.1917,2.226,2.2631,2.2778,2.2818,2.312,2.3487,2.3376,2.3212,2.3096,2.3005,2.3119,2.3332,2.371,2.393,2.4037,2.4267,2.4515,2.4316,2.4116,2.4423,2.473,1.4678,1.4961,1.4971,1.5205,1.5635,1.6064,1.6514,1.6924,1.7061,1.71,1.71,1.7035,1.7122,1.7035,1.71,1.7248,1.7377,1.753,1.7777,1.7999,1.8268,1.8781,1.9182,1.9375,1.9745,2.0018,2.0237,2.0237,2.0571,2.088,2.1388,2.2025,2.2149,2.2334,2.2518,2.2628,2.232,2.2159,2.2161,2.2087,2.2149,2.2223,2.2116,2.2043,2.1777,2.1895,2.1916,2.1679,2.1956,2.2359,2.2455,2.2508,2.303,2.303,2.3078,2.3078,2.3138,2.3125,2.3125,2.3125,2.3125,2.3125,2.3125,2.3125,2.3125,2.3125,2.3125,2.3125,2.3125,2.3125,2.3125,2.3125,2.3125,2.3125,2.3125,2.3125,2.3125,2.3088,2.2984,2.309,2.3068,2.3406,2.365,2.3835,2.3927,2.4126,2.4148,2.3865,2.335,2.2573,2.2309,2.2627,2.2814,2.308,2.3375,2.3699,2.3876,2.4041,2.4216,2.4332,2.4173,2.4028,2.394,2.4028,2.4289,2.4721,2.5191,2.5259,2.5108,2.5478,2.5725,2.5356,2.5147,2.5384,2.5564,1.4287,1.4512,1.4531,1.4775,1.5195,1.5635,1.5977,1.624,1.6582,1.6655,1.6563,1.6675,1.6646,1.6612,1.6768,1.702,1.7262,1.7605,1.7873,1.8164,1.8381,1.9168,1.9727,2.0015,2.0453,2.0797,2.106,2.1071,2.14,2.1788,2.2297,2.2543,2.2665,2.2787,2.2921,2.2873,2.2812,2.2678,2.2604,2.2592,2.2641,2.2677,2.2615,2.2297,2.1928,2.1814,2.1696,2.1331,2.1624,2.2151,2.2309,2.2585,2.2965,2.3078,2.3078,2.3125,2.3125,2.3125,2.3125,2.3125,2.3125,2.3125,2.3125,2.3125,2.3125,2.3125,2.3125,2.3125,2.3125,2.3125,2.3125,2.3125,2.3125,2.3125,2.3125,2.3125,2.3185,2.3198,2.3305,2.3437,2.3708,2.3989,2.4292,2.4478,2.4794,2.5108,2.5341,2.5294,2.4682,2.3913,2.3765,2.3983,2.4132,2.4347,2.4609,2.4805,2.4987,2.5061,2.5066,2.5079,2.4964,2.4838,2.47,2.505,2.555,2.5867,2.6054,2.6176,2.6133,2.6457,2.6578,2.6312,2.6042,2.6096,2.6218,1.4043,1.4048,1.4121,1.4414,1.4824,1.5215,1.54,1.5498,1.6302,1.6519,1.6316,1.651,1.6432,1.6325,1.6592,1.693,1.7195,1.7549,1.7916,1.8418,1.8635,1.9263,1.9969,2.0228,2.0724,2.14,2.1732,2.1611,2.199,2.2347,2.2665,2.2921,2.3017,2.3078,2.3078,2.3078,2.2955,2.2733,2.2745,2.2758,2.2722,2.271,2.2489,2.1925,2.1679,2.1564,2.125,2.1244,2.1499,2.1988,2.2385,2.2585,2.2937,2.3125,2.3125,2.3125,2.3125,2.3125,2.3125,2.3125,2.3125,2.3125,2.3125,2.3125,2.3125,2.3125,2.3125,2.3125,2.3125,2.3125,2.3125,2.3125,2.3125,2.3125,2.3125,2.3198,2.3258,2.339,2.3509,2.37,2.3923,2.4261,2.4607,2.4835,2.5174,2.5756,2.6108,2.6183,2.6017,2.5203,2.5109,2.5274,2.5374,2.5488,2.5769,2.6007,2.6083,2.6147,2.592,2.5811,2.5577,2.5536,2.5495,2.5881,2.6318,2.6504,2.6674,2.6712,2.6736,2.6841,2.6959,2.7041,2.6989,2.6803,2.6803,1.3379,1.3691,1.3951,1.4385,1.4821,1.5005,1.5298,1.5672,1.6036,1.6019,1.5713,1.5861,1.596,1.6009,1.6306,1.667,1.6932,1.755,1.7823,1.8324,1.8698,1.9424,2.0091,2.0341,2.0876,2.146,2.1824,2.2043,2.2518,2.2775,2.2909,2.3017,2.3125,2.3125,2.3065,2.3053,2.2912,2.2648,2.2435,2.2422,2.241,2.2026,2.1713,2.1456,2.1306,2.1094,2.0886,2.0899,2.1174,2.1594,2.2096,2.256,2.3015,2.3113,2.3125,2.3125,2.3125,2.3125,2.3125,2.3125,2.3125,2.3125,2.3125,2.3125,2.3125,2.3125,2.3125,2.3125,2.3125,2.3125,2.3125,2.3125,2.3125,2.3125,2.3125,2.3258,2.339,2.3509,2.37,2.3923,2.4144,2.4492,2.4835,2.523,2.5578,2.5948,2.6244,2.6481,2.6849,2.6469,2.6228,2.6329,2.6445,2.6657,2.687,2.6817,2.675,2.6645,2.6379,2.6258,2.6204,2.619,2.6204,2.6582,2.6957,2.7033,2.7107,2.7196,2.7233,2.7269,2.7269,2.7284,2.7386,2.7255,2.7269,1.3018,1.3281,1.3733,1.41,1.4389,1.4695,1.4989,1.5235,1.5467,1.5456,1.5381,1.5739,1.6009,1.6114,1.64,1.6673,1.7067,1.7579,1.8185,1.8649,1.8994,1.9695,2.013,2.037,2.0927,2.151,2.1944,2.235,2.2832,2.3017,2.3017,2.3065,2.3125,2.31,2.3015,2.2912,2.2623,2.2367,2.1964,2.1837,2.1893,2.1635,2.1335,2.1117,2.1096,2.0907,2.0803,2.0878,2.1368,2.1845,2.2422,2.2736,2.3027,2.3125,2.3125,2.3125,2.3125,2.3125,2.3125,2.3138,2.3138,2.3138,2.3125,2.3125,2.3125,2.3125,2.3125,2.3125,2.3125,2.3125,2.3125,2.3125,2.3125,2.3125,2.3138,2.3198,2.3497,2.3793,2.3969,2.4144,2.4363,2.4778,2.5118,2.5453,2.5839,2.6218,2.6525,2.6788,2.7115,2.7386,2.7269,2.7167,2.7181,2.7233,2.7269,2.7233,2.7144,2.6989,2.6765,2.6712,2.6645,2.6788,2.6959,2.7107,2.7292,2.7365,2.7452,2.7437,2.7473,2.7473,2.7509,2.7575,2.756,2.756,2.7524,1.2881,1.2988,1.3422,1.3781,1.3972,1.4376,1.4651,1.486,1.5049,1.5143,1.5363,1.6069,1.6416,1.6722,1.6925,1.7246,1.7667,1.817,1.8721,1.904,1.9344,1.9788,2.0182,2.0552,2.0861,2.1443,2.1995,2.246,2.2912,2.3097,2.3198,2.3125,2.3062,2.3025,2.2874,2.2523,2.2198,2.1957,2.1581,2.1232,2.1271,2.1355,2.1132,2.1091,2.1163,2.1239,2.115,2.1415,2.1901,2.2317,2.2783,2.3047,2.316,2.3258,2.3258,2.3258,2.3198,2.3198,2.3138,2.3138,2.3138,2.3138,2.3138,2.3125,2.3198,2.3125,2.3125,2.3198,2.3198,2.3125,2.3125,2.3125,2.3125,2.3138,2.3198,2.3258,2.3616,2.3969,2.4131,2.4305,2.465,2.5005,2.5342,2.5674,2.6002,2.6433,2.675,2.7026,2.7284,2.7423,2.7423,2.7423,2.7423,2.7473,2.756,2.7423,2.7299,2.7248,2.7026,2.7041,2.7093,2.7167,2.7269,2.7386,2.7488,2.7539,2.7539,2.7524,2.756,2.756,2.756,2.756,2.756,2.756,2.756,1.2978,1.3095,1.3242,1.3599,1.4073,1.4487,1.493,1.5401,1.5771,1.588,1.5791,1.6367,1.6922,1.709,1.7171,1.7539,1.8055,1.8661,1.904,1.9356,1.95,1.9743,1.9947,2.0215,2.0376,2.102,2.1863,2.2528,2.2743,2.3145,2.3399,2.3263,2.2819,2.2647,2.243,2.2072,2.1733,2.1565,2.1522,2.1315,2.1026,2.1055,2.1017,2.1095,2.1327,2.1624,2.1892,2.2309,2.259,2.2853,2.3048,2.3242,2.3437,2.3556,2.3616,2.3497,2.345,2.339,2.339,2.3271,2.3271,2.339,2.339,2.3497,2.3437,2.3318,2.3437,2.3628,2.3497,2.3185,2.3125,2.3125,2.3125,2.321,2.3271,2.339,2.3628,2.3923,2.4203,2.4434,2.4765,2.5061,2.5397,2.5674,2.6002,2.6312,2.6645,2.6907,2.7233,2.7423,2.756,2.756,2.756,2.756,2.756,2.7473,2.7386,2.7335,2.7454,2.758,2.758,2.7452,2.7554,2.7763,2.7629,2.7575,2.756,2.756,2.756,2.756,2.756,2.756,2.756,2.7604,2.7634]},{"header":{"parameterUnit":"m.s-1","parameterCategory":1,"la1":31.0,"la2":29.5877,"lo1":-88.7671,"lo2":-86.6584,"dy":0.0162,"dx":0.0185,"nx":115,"ny":88,"refTime":"2024-03-18T12:00:00:Z","depth":0,"parameterNumber":3,"parameterNumberName":"V-component_of_WINDS"},"data":[0.0,0.0,0.0,0.0,0.0,0.0,0.0,0.0,0.0,0.0,0.0,0.0,0.0,0.0,0.0,0.0,0.0,0.0,0.0,0.0,0.0,0.0,0.0,0.0,0.0,0.0,0.0,0.0,0.0,0.0,0.0,0.0,0.0,0.0,0.0,0.0,0.0,0.0,0.0,0.0,0.0,0.0,0.0,0.0,0.0,0.0,0.0,0.0,0.0,0.0,0.0,0.0,0.0,0.0,0.0,0.0,0.0,0.0,0.0,0.0,0.0,0.0,0.0,0.0,0.0,0.0,0.0,0.0,0.0,0.0,0.0,0.0,0.0,0.0,0.0,0.0,0.0,0.0,0.0,0.0,0.0,0.0,0.0,0.0,0.0,0.0,0.0,0.0,0.0,0.0,0.0,0.0,0.0,0.0,0.0,0.0,0.0,0.0,0.0,0.0,0.0,0.0,0.0,0.0,0.0,0.0,0.0,0.0,0.0,0.0,0.0,0.0,0.0,0.0,0.0,0.0,0.0,0.0,0.0,0.0,0.0,0.0,0.0,0.0,0.0,0.0,0.0,0.0,0.0,0.0,0.0,0.0,0.0,0.0,0.0,0.0,0.0,0.0,0.0,0.0,0.0,0.0,0.0,0.0,0.0,0.0,0.0,0.0,0.0,0.0,0.0,0.0,0.0,0.0,0.0,0.0,0.0,0.0,0.0,0.0,0.0,0.0,0.0,0.0,0.0,0.0,0.0,0.0,0.0,0.0,0.0,0.0,0.0,0.0,0.0,0.0,0.0,0.0,0.0,0.0,0.0,0.0,0.0,0.0,0.0,0.0,0.0,0.0,0.0,0.0,0.0,0.0,0.0,0.0,0.0,0.0,0.0,0.0,0.0,0.0,0.0,0.0,0.0,0.0,0.0,0.0,0.0,0.0,0.0,0.0,0.0,0.0,0.0,0.0,0.0,0.0,0.0,0.0,0.0,0.0,0.0,0.0,0.0,0.0,0.0,0.0,0.0,0.0,0.0,0.0,0.0,0.0,0.0,0.0,0.0,0.0,0.0,0.0,0.0,0.0,0.0,0.0,0.0,0.0,0.0,0.0,0.0,0.0,0.0,0.0,0.0,0.0,0.0,0.0,0.0,0.0,0.0,0.0,0.0,0.0,0.0,0.0,0.0,0.0,0.0,0.0,0.0,0.0,0.0,0.0,0.0,0.0,0.0,0.0,0.0,0.0,0.0,0.0,0.0,0.0,0.0,0.0,0.0,0.0,0.0,0.0,0.0,0.0,0.0,0.0,0.0,0.0,0.0,0.0,0.0,0.0,0.0,0.0,0.0,0.0,0.0,0.0,0.0,0.0,0.0,0.0,0.0,0.0,0.0,0.0,0.0,0.0,0.0,0.0,0.0,0.0,0.0,0.0,0.0,0.0,0.0,0.0,0.0,0.0,0.0,0.0,0.0,0.0,0.0,0.0,0.0,0.0,0.0,0.0,0.0,0.0,0.0,0.0,0.0,0.0,0.0,0.0,0.0,0.0,0.0,0.0,0.0,0.0,0.0,0.0,0.0,0.0,0.0,0.0,0.0,0.0,0.0,0.0,0.0,0.0,0.0,0.0,0.0,0.0,0.0,0.0,0.0,0.0,0.0,0.0,0.0,0.0,0.0,0.0,0.0,0.0,0.0,0.0,0.0,0.0,0.0,0.0,0.0,0.0,0.0,0.0,0.0,0.0,0.0,0.0,0.0,0.0,0.0,0.0,0.0,0.0,0.0,0.0,0.0,0.0,0.0,0.0,0.0,0.0,0.0,0.0,0.0,0.0,0.0,0.0,0.0,0.0,0.0,0.0,0.0,0.0,0.0,0.0,0.0,0.0,0.0,0.0,0.0,0.0,0.0,0.0,0.0,0.0,0.0,0.0,0.0,0.0,0.0,0.0,0.0,0.0,0.0,0.0,0.0,0.0,0.0,0.0,0.0,0.0,0.0,0.0,0.0,0.0,0.0,0.0,0.0,0.0,0.0,0.0,0.0,0.0,0.0,0.0,0.0,0.0,0.0,0.0,0.0,0.0,0.0,0.0,0.0,0.0,0.0,0.0,0.0,0.0,0.0,0.0,0.0,0.0,0.0,0.0,0.0,0.0,0.0,0.0,0.0,0.0,0.0,0.0,0.0,0.0,0.0,0.0,0.0,0.0,0.0,0.0,0.0,0.0,0.0,0.0,0.0,0.0,0.0,0.0,0.0,0.0,0.0,0.0,0.0,0.0,0.0,0.0,0.0,0.0,0.0,0.0,0.0,0.0,0.0,0.0,0.0,0.0,0.0,0.0,0.0,0.0,0.0,0.0,0.0,0.0,0.0,0.0,0.0,0.0,0.0,0.0,0.0,0.0,0.0,0.0,0.0,0.0,0.0,0.0,0.0,0.0,0.0,0.0,0.0,0.0,0.0,0.0,0.0,0.0,0.0,0.0,0.0,0.0,0.0,0.0,0.0,0.0,0.0,0.0,0.0,0.0,0.0,0.0,0.0,0.0,0.0,0.0,0.0,0.0,0.0,0.0,0.0,0.0,0.0,0.0,0.0,0.0,0.0,0.0,0.0,0.0,0.0,0.0,0.0,0.0,0.0,0.0,0.0,0.0,0.0,0.0,0.0,0.0,0.0,0.0,0.0,0.0,0.0,0.0,0.0,0.0,0.0,0.0,0.0,0.0,0.0,0.0,0.0,0.0,0.0,0.0,0.0,0.0,0.0,0.0,0.0,0.0,0.0,0.0,0.0,0.0,0.0,0.0,0.0,0.0,0.0,0.0,0.0,0.0,0.0,0.0,0.0,0.0,0.0,0.0,0.0,0.0,0.0,0.0,0.0,0.0,0.0,0.0,0.0,0.0,0.0,0.0,0.0,0.0,0.0,0.0,0.0,0.0,0.0,0.0,0.0,0.0,0.0,0.0,0.0,0.0,0.0,0.0,0.0,0.0,0.0,0.0,0.0,0.0,0.0,0.0,0.0,0.0,0.0,0.0,0.0,0.0,0.0,0.0,0.0,0.0,0.0,0.0,0.0,0.0,0.0,0.0,0.0,0.0,0.0,0.0,0.0,0.0,0.0,0.0,0.0,0.0,0.0,0.0,0.0,0.0,0.0,0.0,0.0,0.0,0.0,0.0,0.0,0.0,0.0,0.0,0.0,0.0,0.0,0.0,0.0,0.0,0.0,0.0,0.0,0.0,0.0,0.0,0.0,0.0,0.0,0.0,0.0,0.0,0.0,0.0,0.0,0.0,0.0,0.0,0.0,0.0,0.0,0.0,0.0,0.0,0.0,0.0,0.0,0.0,0.0,0.0,0.0,0.0,0.0,0.0,0.0,0.0,0.0,0.0,0.0,0.0,0.0,0.0,0.0,0.0,0.0,0.0,0.0,0.0,0.0,0.0,0.0,0.0,0.0,0.0,0.0,0.0,0.0,0.0,0.0,0.0,0.0,0.0,0.0,0.0,0.0,0.0,0.0,0.0,0.0,0.0,0.0,0.0,0.0,0.0,0.0,0.0,0.0,0.0,0.0,0.0,0.0,0.0,0.0,0.0,0.0,0.0,0.0,0.0,0.0,0.0,0.0,0.0,0.0,0.0,0.0,0.0,0.0,0.0,0.0,0.0,0.0,0.0,0.0,0.0,0.0,0.0,0.0,0.0,0.0,0.0,0.0,0.0,0.0,0.0,0.0,0.0,0.0,0.0,0.0,0.0,0.0,0.0,0.0,0.0,0.0,0.0,0.0,0.0,0.0,0.0,0.0,0.0,0.0,0.0,0.0,0.0,0.0,0.0,0.0,0.0,0.0,0.0,0.0,0.0,0.0,0.0,0.0,0.0,0.0,0.0,0.0,0.0,0.0,0.0,0.0,0.0,0.0,0.0,0.0,0.0,0.0,0.0,0.0,0.0,0.0,0.0,0.0,0.0,0.0,0.0,0.0,0.0,0.0,0.0,0.0,0.0,0.0,0.0,0.0,0.0,0.0,0.0,0.0,0.0,0.0,0.0,0.0,0.0,0.0,0.0,0.0,0.0,0.0,0.0,0.0,0.0,0.0,0.0,0.0,0.0,0.0,0.0,0.0,0.0,0.0,0.0,0.0,0.0,0.0,0.0,0.0,0.0,0.0,0.0,0.0,0.0,0.0,0.0,0.0,0.0,0.0,0.0,0.0,0.0,0.0,0.0,0.0,0.0,0.0,0.0,0.0,0.0,0.0,0.0,0.0,0.0,0.0,0.0,0.0,0.0,0.0,0.0,0.0,0.0,0.0,0.0,-0.988,0.0,0.0,0.0,0.0,0.0,0.0,0.0,0.0,0.0,0.0,0.0,0.0,0.0,0.0,0.0,0.0,0.0,0.0,0.0,0.0,0.0,0.0,0.0,0.0,0.0,0.0,0.0,0.0,0.0,0.0,0.0,0.0,0.0,0.0,0.0,0.0,0.0,0.0,0.0,0.0,0.0,0.0,0.0,0.0,0.0,0.0,0.0,0.0,0.0,0.0,0.0,0.0,0.0,0.0,0.0,0.0,0.0,0.0,0.0,0.0,0.0,0.0,0.0,0.0,0.0,0.0,0.0,0.0,0.0,0.0,0.0,0.0,0.0,0.0,0.0,0.0,0.0,0.0,0.0,0.0,0.0,0.0,0.0,0.0,0.0,0.0,0.0,0.0,0.0,0.0,0.0,0.0,0.0,0.0,0.0,0.0,0.0,0.0,0.0,0.0,0.0,0.0,0.0,0.0,0.0,0.0,0.0,0.0,0.0,0.0,-1.0232,-1.0191,-1.0141,-1.0075,-1.0006,0.0,0.0,0.0,0.0,0.0,0.0,0.0,0.0,0.0,0.0,0.0,0.0,0.0,0.0,0.0,0.0,0.0,0.0,0.0,0.0,0.0,0.0,0.0,0.0,0.0,0.0,0.0,0.0,0.0,0.0,0.0,0.0,0.0,0.0,0.0,0.0,0.0,0.0,0.0,0.0,0.0,0.0,0.0,0.0,0.0,0.0,0.0,0.0,0.0,0.0,0.0,0.0,0.0,0.0,0.0,0.0,0.0,0.0,0.0,0.0,0.0,0.0,0.0,0.0,0.0,0.0,0.0,0.0,0.0,0.0,0.0,0.0,0.0,0.0,0.0,0.0,0.0,0.0,0.0,0.0,0.0,0.0,0.0,0.0,0.0,0.0,0.0,0.0,0.0,0.0,0.0,0.0,0.0,0.0,0.0,0.0,0.0,0.0,0.0,0.0,0.0,0.0,0.0,0.0,0.0,0.0,0.0,0.0,0.0,0.0,0.0,0.0,-1.0193,-1.0169,-1.0133,0.0,0.0,0.0,0.0,0.0,0.0,0.0,0.0,0.0,0.0,0.0,0.0,0.0,0.0,0.0,0.0,0.0,0.0,0.0,0.0,0.0,0.0,0.0,0.0,0.0,0.0,0.0,0.0,0.0,0.0,0.0,0.0,0.0,0.0,0.0,0.0,0.0,0.0,0.0,0.0,0.0,0.0,0.0,0.0,0.0,0.0,0.0,0.0,0.0,0.0,0.0,0.0,0.0,0.0,0.0,0.0,0.0,0.0,0.0,0.0,0.0,0.0,0.0,0.0,0.0,0.0,0.0,0.0,0.0,0.0,0.0,0.0,0.0,0.0,0.0,0.0,0.0,0.0,0.0,0.0,0.0,0.0,0.0,0.0,0.0,0.0,0.0,0.0,0.0,0.0,0.0,0.0,0.0,0.0,0.0,0.0,0.0,0.0,0.0,0.0,0.0,0.0,0.0,0.0,0.0,0.0,0.0,0.0,0.0,0.0,-1.0292,-1.0288,-1.0223,0.0,-1.0196,0.0,0.0,0.0,0.0,0.0,0.0,0.0,0.0,0.0,0.0,0.0,0.0,0.0,0.0,0.0,0.0,0.0,0.0,0.0,0.0,0.0,0.0,0.0,0.0,0.0,0.0,0.0,0.0,0.0,0.0,0.0,0.0,0.0,0.0,0.0,0.0,0.0,0.0,0.0,0.0,0.0,0.0,0.0,0.0,0.0,0.0,0.0,0.0,0.0,0.0,0.0,0.0,0.0,0.0,0.0,0.0,0.0,0.0,0.0,0.0,0.0,0.0,0.0,0.0,0.0,0.0,0.0,0.0,0.0,0.0,0.0,0.0,0.0,0.0,0.0,0.0,0.0,0.0,0.0,0.0,0.0,0.0,0.0,0.0,0.0,0.0,0.0,0.0,0.0,0.0,0.0,0.0,0.0,0.0,0.0,0.0,0.0,0.0,0.0,0.0,0.0,0.0,0.0,0.0,0.0,0.0,0.0,0.0,0.0,0.0,-1.031,-1.0311,-1.0234,-1.0193,0.0,0.0,0.0,0.0,0.0,0.0,0.0,0.0,0.0,0.0,0.0,0.0,0.0,0.0,0.0,0.0,0.0,0.0,0.0,0.0,0.0,0.0,0.0,0.0,0.0,0.0,0.0,0.0,0.0,0.0,0.0,0.0,0.0,0.0,0.0,0.0,0.0,0.0,0.0,0.0,0.0,0.0,0.0,0.0,0.0,0.0,0.0,0.0,0.0,0.0,0.0,0.0,0.0,0.0,0.0,0.0,0.0,0.0,0.0,0.0,0.0,0.0,0.0,0.0,0.0,0.0,0.0,0.0,0.0,0.0,0.0,0.0,0.0,0.0,0.0,0.0,0.0,0.0,0.0,0.0,0.0,0.0,0.0,0.0,0.0,0.0,0.0,0.0,0.0,0.0,0.0,0.0,0.0,0.0,0.0,0.0,0.0,0.0,0.0,0.0,0.0,0.0,0.0,0.0,0.0,0.0,0.0,0.0,0.0,0.0,-1.0278,-1.0274,-1.0272,-1.0221,-1.0187,-1.0191,0.0,0.0,0.0,0.0,0.0,0.0,0.0,0.0,0.0,0.0,0.0,0.0,0.0,0.0,0.0,0.0,0.0,0.0,0.0,0.0,0.0,0.0,0.0,0.0,0.0,0.0,0.0,0.0,0.0,0.0,0.0,0.0,0.0,0.0,0.0,0.0,0.0,0.0,0.0,0.0,0.0,0.0,0.0,0.0,0.0,0.0,0.0,0.0,0.0,0.0,0.0,0.0,0.0,0.0,0.0,0.0,0.0,0.0,0.0,0.0,0.0,0.0,0.0,0.0,0.0,0.0,0.0,0.0,0.0,0.0,0.0,0.0,0.0,0.0,0.0,0.0,0.0,0.0,0.0,0.0,0.0,0.0,0.0,0.0,0.0,0.0,0.0,0.0,0.0,0.0,0.0,0.0,0.0,0.0,0.0,0.0,0.0,0.0,0.0,0.0,0.0,0.0,0.0,0.0,0.0,0.0,0.0,0.0,-1.0282,-1.0246,-1.0198,-1.0195,-1.0198,-1.0202,0.0,0.0,0.0,0.0,0.0,0.0,0.0,0.0,0.0,0.0,0.0,0.0,0.0,0.0,0.0,0.0,0.0,0.0,0.0,0.0,0.0,0.0,0.0,0.0,0.0,0.0,0.0,0.0,0.0,0.0,0.0,0.0,0.0,0.0,0.0,0.0,0.0,0.0,0.0,0.0,0.0,0.0,0.0,0.0,0.0,0.0,0.0,0.0,0.0,0.0,0.0,0.0,0.0,0.0,0.0,0.0,0.0,0.0,0.0,0.0,0.0,0.0,0.0,0.0,0.0,0.0,0.0,0.0,0.0,0.0,0.0,0.0,0.0,0.0,0.0,0.0,0.0,0.0,0.0,0.0,0.0,0.0,0.0,0.0,0.0,0.0,0.0,0.0,0.0,0.0,0.0,0.0,0.0,0.0,0.0,0.0,0.0,0.0,0.0,0.0,0.0,0.0,0.0,0.0,0.0,0.0,0.0,0.0,0.0,-1.025,-1.0224,-1.0177,-1.0125,-1.0138,-1.0125,0.0,0.0,0.0,0.0,0.0,0.0,0.0,0.0,0.0,0.0,0.0,0.0,0.0,0.0,0.0,0.0,0.0,0.0,0.0,0.0,0.0,0.0,0.0,0.0,0.0,0.0,0.0,0.0,0.0,0.0,0.0,0.0,0.0,0.0,0.0,0.0,0.0,0.0,0.0,0.0,0.0,0.0,0.0,0.0,0.0,0.0,0.0,0.0,0.0,0.0,0.0,0.0,0.0,0.0,0.0,0.0,0.0,0.0,0.0,0.0,0.0,0.0,0.0,0.0,0.0,0.0,0.0,0.0,0.0,0.0,0.0,0.0,0.0,0.0,0.0,0.0,0.0,0.0,0.0,0.0,0.0,0.0,0.0,0.0,0.0,0.0,0.0,0.0,0.0,0.0,0.0,0.0,0.0,0.0,0.0,0.0,0.0,0.0,0.0,0.0,0.0,0.0,0.0,0.0,0.0,0.0,0.0,0.0,0.0,-1.0158,0.0,-1.0125,-1.0082,-1.0074,-1.0078,0.0,0.0,0.0,0.0,0.0,0.0,0.0,0.0,0.0,0.0,0.0,0.0,0.0,0.0,0.0,0.0,0.0,0.0,0.0,0.0,0.0,0.0,0.0,0.0,0.0,0.0,0.0,0.0,0.0,0.0,0.0,0.0,0.0,0.0,0.0,0.0,0.0,0.0,0.0,0.0,0.0,0.0,0.0,0.0,0.0,0.0,0.0,0.0,0.0,0.0,0.0,0.0,0.0,0.0,0.0,0.0,0.0,0.0,0.0,0.0,0.0,0.0,0.0,0.0,0.0,0.0,0.0,0.0,0.0,0.0,0.0,0.0,0.0,0.0,0.0,0.0,0.0,0.0,0.0,0.0,0.0,0.0,0.0,0.0,0.0,0.0,0.0,0.0,0.0,0.0,0.0,0.0,0.0,0.0,0.0,0.0,0.0,0.0,0.0,0.0,0.0,0.0,0.0,0.0,0.0,0.0,0.0,0.0,-1.0194,-1.0137,-1.0146,-1.0158,-1.0035,-1.0049,-1.003,0.0,0.0,0.0,0.0,0.0,0.0,0.0,0.0,0.0,0.0,0.0,0.0,0.0,0.0,0.0,0.0,0.0,0.0,0.0,0.0,0.0,0.0,0.0,0.0,0.0,0.0,0.0,0.0,0.0,0.0,0.0,0.0,0.0,0.0,0.0,0.0,0.0,0.0,0.0,0.0,0.0,0.0,0.0,0.0,0.0,0.0,0.0,0.0,0.0,0.0,0.0,0.0,0.0,0.0,0.0,0.0,0.0,0.0,0.0,0.0,0.0,0.0,0.0,0.0,0.0,0.0,0.0,0.0,0.0,0.0,0.0,0.0,0.0,0.0,0.0,0.0,0.0,0.0,0.0,0.0,0.0,0.0,0.0,0.0,0.0,0.0,0.0,0.0,0.0,0.0,0.0,0.0,0.0,0.0,0.0,0.0,0.0,0.0,0.0,0.0,0.0,0.0,0.0,0.0,0.0,0.0,0.0,0.0,0.0,-1.0942,-1.1432,-1.1421,-1.0866,-1.0766,-1.0495,0.0,0.0,0.0,0.0,0.0,0.0,0.0,0.0,0.0,0.0,0.0,0.0,0.0,0.0,0.0,0.0,0.0,0.0,0.0,0.0,0.0,0.0,0.0,0.0,0.0,0.0,0.0,0.0,0.0,0.0,0.0,0.0,0.0,0.0,0.0,0.0,0.0,0.0,0.0,0.0,0.0,0.0,0.0,0.0,0.0,0.0,0.0,0.0,0.0,0.0,0.0,0.0,0.0,0.0,0.0,0.0,0.0,0.0,0.0,0.0,0.0,0.0,0.0,0.0,0.0,0.0,0.0,0.0,0.0,0.0,0.0,0.0,0.0,0.0,0.0,0.0,0.0,0.0,0.0,0.0,0.0,0.0,0.0,0.0,0.0,0.0,0.0,0.0,0.0,0.0,0.0,0.0,0.0,0.0,0.0,0.0,0.0,0.0,0.0,0.0,0.0,0.0,0.0,0.0,0.0,0.0,0.0,0.0,0.0,-1.2574,-1.2467,-1.2142,-1.1636,-1.1269,-1.0843,-1.0325,0.0,0.0,0.0,0.0,0.0,0.0,0.0,0.0,0.0,0.0,0.0,0.0,0.0,0.0,0.0,0.0,0.0,0.0,0.0,0.0,0.0,0.0,0.0,0.0,0.0,0.0,0.0,0.0,0.0,0.0,0.0,0.0,0.0,0.0,0.0,0.0,0.0,0.0,0.0,0.0,0.0,0.0,0.0,0.0,0.0,0.0,0.0,0.0,0.0,0.0,0.0,0.0,0.0,0.0,0.0,0.0,0.0,0.0,0.0,0.0,0.0,0.0,0.0,0.0,0.0,0.0,0.0,0.0,0.0,0.0,0.0,0.0,0.0,0.0,0.0,0.0,0.0,0.0,0.0,0.0,0.0,0.0,0.0,0.0,0.0,0.0,0.0,0.0,0.0,0.0,0.0,0.0,0.0,0.0,0.0,0.0,0.0,0.0,0.0,0.0,0.0,0.0,0.0,0.0,0.0,0.0,0.0,0.0,-1.4843,-1.3421,-1.2601,-1.245,-1.1714,-1.1214,0.0,0.0,0.0,0.0,0.0,0.0,0.0,0.0,0.0,0.0,0.0,0.0,0.0,0.0,0.0,0.0,0.0,0.0,0.0,0.0,0.0,0.0,0.0,0.0,0.0,0.0,0.0,0.0,0.0,0.0,0.0,0.0,0.0,0.0,0.0,0.0,0.0,0.0,0.0,0.0,0.0,0.0,0.0,0.0,0.0,0.0,0.0,0.0,0.0,0.0,0.0,0.0,0.0,0.0,0.0,0.0,0.0,0.0,0.0,0.0,0.0,0.0,0.0,0.0,0.0,0.0,0.0,0.0,0.0,0.0,0.0,0.0,0.0,0.0,0.0,0.0,0.0,0.0,0.0,0.0,0.0,0.0,0.0,0.0,0.0,0.0,0.0,0.0,0.0,0.0,0.0,0.0,0.0,0.0,0.0,0.0,0.0,0.0,0.0,0.0,0.0,0.0,0.0,0.0,0.0,0.0,0.0,0.0,0.0,-1.5557,-1.5746,-1.5239,-1.406,-1.3789,-1.2807,0.0,0.0,0.0,0.0,0.0,0.0,0.0,0.0,0.0,0.0,0.0,0.0,0.0,0.0,0.0,0.0,0.0,0.0,0.0,0.0,0.0,0.0,0.0,0.0,0.0,0.0,0.0,0.0,0.0,0.0,0.0,0.0,0.0,0.0,0.0,0.0,0.0,0.0,0.0,0.0,0.0,0.0,0.0,0.0,0.0,0.0,0.0,0.0,0.0,0.0,0.0,0.0,0.0,0.0,0.0,0.0,0.0,0.0,0.0,0.0,0.0,0.0,0.0,0.0,0.0,0.0,0.0,0.0,0.0,0.0,0.0,0.0,0.0,0.0,0.0,0.0,0.0,0.0,0.0,0.0,0.0,0.0,0.0,0.0,0.0,0.0,0.0,0.0,0.0,0.0,0.0,0.0,0.0,0.0,0.0,0.0,0.0,0.0,0.0,0.0,0.0,0.0,0.0,0.0,0.0,0.0,0.0,0.0,-1.544,-1.6835,-1.7279,-1.7038,-1.6097,-1.5072,-1.3882,0.0,0.0,0.0,0.0,0.0,0.0,0.0,0.0,0.0,0.0,0.0,0.0,0.0,0.0,0.0,0.0,0.0,0.0,0.0,0.0,0.0,0.0,0.0,0.0,0.0,0.0,0.0,0.0,0.0,0.0,0.0,0.0,0.0,0.0,0.0,0.0,0.0,0.0,0.0,0.0,0.0,0.0,0.0,0.0,0.0,0.0,0.0,0.0,0.0,0.0,0.0,0.0,0.0,0.0,0.0,0.0,0.0,0.0,0.0,0.0,0.0,0.0,0.0,0.0,0.0,0.0,0.0,0.0,0.0,0.0,0.0,0.0,0.0,0.0,0.0,0.0,0.0,0.0,0.0,0.0,0.0,0.0,0.0,0.0,0.0,0.0,0.0,0.0,0.0,0.0,0.0,0.0,0.0,0.0,0.0,0.0,0.0,0.0,0.0,0.0,0.0,0.0,0.0,0.0,0.0,0.0,0.0,0.0,-1.6005,-1.8143,-1.8284,-1.8309,-1.8151,-1.6035,-1.4731,0.0,0.0,0.0,0.0,0.0,0.0,0.0,0.0,0.0,0.0,0.0,0.0,0.0,0.0,0.0,0.0,0.0,0.0,0.0,0.0,0.0,0.0,0.0,0.0,0.0,0.0,0.0,0.0,0.0,0.0,0.0,0.0,0.0,0.0,0.0,0.0,0.0,0.0,0.0,0.0,0.0,0.0,0.0,0.0,0.0,0.0,0.0,0.0,0.0,0.0,0.0,0.0,0.0,0.0,0.0,0.0,0.0,0.0,0.0,0.0,0.0,0.0,0.0,0.0,0.0,0.0,0.0,0.0,0.0,0.0,0.0,0.0,0.0,0.0,0.0,0.0,0.0,0.0,0.0,0.0,0.0,0.0,0.0,0.0,0.0,0.0,0.0,0.0,0.0,0.0,0.0,0.0,0.0,0.0,0.0,0.0,0.0,0.0,0.0,0.0,0.0,0.0,0.0,0.0,0.0,0.0,0.0,0.0,-1.704,-1.8161,-1.8764,-1.9066,-1.9032,-1.7931,-1.6445,0.0,0.0,0.0,0.0,0.0,0.0,0.0,0.0,0.0,0.0,0.0,0.0,0.0,0.0,0.0,0.0,0.0,0.0,0.0,0.0,0.0,0.0,0.0,0.0,0.0,0.0,0.0,0.0,0.0,0.0,0.0,0.0,0.0,0.0,0.0,0.0,0.0,0.0,0.0,0.0,0.0,0.0,0.0,0.0,0.0,0.0,0.0,0.0,-0.8652,0.0,0.0,0.0,0.0,0.0,0.0,0.0,0.0,0.0,0.0,0.0,0.0,0.0,0.0,0.0,0.0,0.0,0.0,0.0,0.0,0.0,0.0,0.0,0.0,0.0,0.0,0.0,0.0,0.0,0.0,0.0,0.0,0.0,0.0,0.0,0.0,0.0,0.0,0.0,0.0,0.0,0.0,0.0,0.0,0.0,0.0,0.0,0.0,0.0,0.0,0.0,0.0,0.0,0.0,0.0,0.0,0.0,0.0,0.0,-1.8511,-1.9282,-2.0063,-2.028,-1.9877,-1.9457,-1.8115,0.0,0.0,0.0,0.0,0.0,0.0,0.0,0.0,0.0,0.0,0.0,0.0,0.0,0.0,0.0,0.0,0.0,0.0,0.0,0.0,0.0,0.0,0.0,0.0,0.0,0.0,0.0,0.0,0.0,0.0,0.0,0.0,0.0,0.0,0.0,0.0,0.0,0.0,0.0,0.0,0.0,0.0,0.0,0.0,0.0,0.0,0.0,0.0,0.0,0.0,0.0,0.0,0.0,0.0,0.0,0.0,0.0,0.0,0.0,0.0,0.0,0.0,0.0,0.0,0.0,0.0,0.0,0.0,0.0,0.0,0.0,0.0,0.0,0.0,0.0,0.0,0.0,0.0,0.0,0.0,0.0,0.0,0.0,0.0,0.0,0.0,0.0,0.0,0.0,0.0,0.0,0.0,0.0,0.0,0.0,0.0,0.0,0.0,0.0,0.0,0.0,0.0,0.0,0.0,0.0,0.0,0.0,-1.8121,-1.9743,-2.0484,-2.1345,-2.1382,-2.0539,-2.0503,-1.9366,-1.6982,0.0,0.0,0.0,0.0,0.0,0.0,0.0,0.0,0.0,0.0,0.0,0.0,0.0,0.0,0.0,0.0,0.0,0.0,0.0,0.0,0.0,0.0,0.0,0.0,0.0,0.0,0.0,0.0,0.0,0.0,0.0,0.0,0.0,0.0,0.0,0.0,0.0,0.0,-0.9256,-1.0413,0.0,0.0,0.0,0.0,0.0,0.0,0.0,0.0,-0.9954,0.0,0.0,0.0,0.0,0.0,0.0,0.0,0.0,0.0,0.0,0.0,0.0,0.0,0.0,0.0,0.0,0.0,0.0,0.0,0.0,0.0,0.0,0.0,0.0,0.0,0.0,0.0,0.0,0.0,0.0,0.0,0.0,0.0,0.0,0.0,0.0,0.0,0.0,0.0,0.0,0.0,0.0,0.0,0.0,0.0,0.0,0.0,0.0,0.0,0.0,0.0,0.0,0.0,0.0,0.0,0.0,-1.5705,-1.8092,-1.9693,-2.0484,-2.1345,-2.1382,-2.0539,-2.0503,-1.9366,-1.7,0.0,0.0,0.0,0.0,0.0,0.0,0.0,0.0,0.0,0.0,0.0,0.0,0.0,0.0,0.0,0.0,0.0,0.0,0.0,0.0,0.0,0.0,0.0,0.0,0.0,0.0,0.0,0.0,0.0,0.0,0.0,0.0,0.0,0.0,0.0,0.0,0.0,0.0,0.0,-1.2191,-1.2685,0.0,0.0,0.0,0.0,0.0,0.0,0.0,0.0,-0.9914,0.0,0.0,0.0,0.0,0.0,0.0,0.0,0.0,0.0,0.0,0.0,0.0,0.0,0.0,0.0,0.0,0.0,0.0,0.0,0.0,0.0,0.0,0.0,0.0,0.0,0.0,0.0,0.0,0.0,0.0,0.0,0.0,0.0,0.0,0.0,0.0,0.0,0.0,0.0,0.0,0.0,0.0,0.0,0.0,0.0,0.0,0.0,0.0,0.0,0.0,0.0,0.0,0.0,0.0,0.0,-1.6963,-1.9344,-2.0978,-2.1768,-2.2611,-2.2428,-2.1216,-2.0741,-1.9366,0.0,0.0,0.0,0.0,0.0,0.0,0.0,0.0,0.0,0.0,0.0,0.0,0.0,0.0,0.0,0.0,0.0,0.0,0.0,0.0,0.0,0.0,0.0,0.0,0.0,0.0,0.0,0.0,0.0,0.0,0.0,0.0,0.0,0.0,0.0,0.0,0.0,0.0,0.0,0.0,-1.2988,-1.3776,-1.4058,0.0,0.0,0.0,0.0,0.0,0.0,-1.1938,-1.179,0.0,0.0,0.0,0.0,0.0,0.0,0.0,0.0,0.0,0.0,0.0,0.0,0.0,0.0,0.0,0.0,0.0,0.0,0.0,0.0,0.0,0.0,0.0,0.0,0.0,0.0,0.0,0.0,0.0,0.0,0.0,0.0,0.0,0.0,0.0,0.0,0.0,0.0,0.0,0.0,0.0,0.0,0.0,0.0,0.0,0.0,0.0,0.0,0.0,0.0,0.0,0.0,0.0,0.0,0.0,-1.7804,-2.0396,-2.2044,-2.2703,-2.3656,-2.34,-2.184,-2.0961,-1.9292,0.0,0.0,0.0,0.0,0.0,0.0,0.0,0.0,0.0,0.0,0.0,0.0,0.0,0.0,0.0,0.0,0.0,0.0,0.0,0.0,0.0,0.0,0.0,0.0,0.0,0.0,0.0,0.0,0.0,0.0,0.0,0.0,0.0,0.0,0.0,0.0,0.0,0.0,0.0,0.0,0.0,-1.4692,-1.5341,-1.4312,0.0,0.0,0.0,0.0,-1.339,-1.3752,0.0,0.0,0.0,0.0,0.0,0.0,0.0,0.0,0.0,0.0,0.0,0.0,0.0,0.0,0.0,0.0,0.0,0.0,0.0,0.0,0.0,0.0,0.0,0.0,0.0,0.0,0.0,0.0,0.0,0.0,0.0,0.0,0.0,0.0,0.0,0.0,0.0,0.0,0.0,0.0,0.0,0.0,0.0,0.0,0.0,0.0,0.0,0.0,0.0,0.0,0.0,0.0,0.0,0.0,0.0,0.0,-1.6904,-1.9953,-2.1571,-2.1734,-2.3269,-2.3363,-2.177,-2.0909,-1.902,0.0,0.0,0.0,0.0,0.0,0.0,0.0,0.0,0.0,0.0,0.0,0.0,0.0,0.0,0.0,0.0,0.0,0.0,0.0,0.0,0.0,0.0,0.0,0.0,0.0,0.0,0.0,0.0,0.0,0.0,0.0,0.0,0.0,0.0,0.0,0.0,0.0,0.0,0.0,0.0,0.0,-1.5566,-1.6188,-1.5967,-1.5454,0.0,0.0,0.0,-1.4678,-1.4257,0.0,0.0,0.0,0.0,0.0,0.0,0.0,0.0,0.0,0.0,0.0,0.0,0.0,0.0,0.0,0.0,0.0,0.0,0.0,0.0,0.0,0.0,0.0,0.0,0.0,0.0,0.0,0.0,0.0,0.0,0.0,0.0,0.0,0.0,0.0,0.0,0.0,0.0,0.0,0.0,0.0,0.0,0.0,0.0,0.0,0.0,0.0,0.0,0.0,0.0,0.0,0.0,0.0,0.0,0.0,-1.5174,-1.7221,-1.9524,-2.0933,-2.1442,-2.217,-2.2044,-2.0916,-2.0133,-1.8606,0.0,0.0,0.0,0.0,0.0,0.0,0.0,0.0,0.0,0.0,0.0,0.0,0.0,0.0,0.0,0.0,0.0,0.0,0.0,0.0,0.0,0.0,0.0,0.0,0.0,0.0,0.0,0.0,0.0,0.0,0.0,0.0,0.0,0.0,0.0,0.0,0.0,0.0,0.0,0.0,0.0,0.0,-1.7519,-1.7502,0.0,0.0,0.0,-1.627,-1.678,0.0,0.0,0.0,0.0,0.0,0.0,0.0,0.0,0.0,0.0,0.0,0.0,0.0,0.0,0.0,0.0,0.0,0.0,0.0,0.0,0.0,0.0,0.0,0.0,0.0,0.0,0.0,0.0,0.0,0.0,0.0,0.0,0.0,0.0,0.0,0.0,0.0,0.0,0.0,0.0,0.0,0.0,0.0,0.0,0.0,0.0,0.0,0.0,0.0,0.0,0.0,0.0,0.0,0.0,0.0,0.0,0.0,-1.7168,-1.8842,-2.0205,-2.1195,-2.1488,-2.1365,-2.0787,-1.9831,0.0,0.0,0.0,0.0,0.0,0.0,0.0,0.0,0.0,0.0,0.0,0.0,0.0,0.0,0.0,0.0,0.0,0.0,0.0,0.0,0.0,0.0,0.0,0.0,0.0,0.0,0.0,-0.4371,0.0,0.0,0.0,0.0,0.0,0.0,0.0,0.0,0.0,0.0,0.0,0.0,0.0,0.0,-1.711,-1.8467,-1.8667,-1.8815,0.0,0.0,-1.8042,-1.8548,-1.7731,-1.6803,0.0,0.0,0.0,0.0,0.0,0.0,0.0,0.0,0.0,0.0,0.0,0.0,0.0,0.0,0.0,0.0,0.0,0.0,0.0,0.0,0.0,0.0,0.0,0.0,0.0,0.0,0.0,0.0,0.0,0.0,0.0,0.0,0.0,0.0,0.0,0.0,0.0,0.0,0.0,0.0,0.0,0.0,0.0,0.0,0.0,0.0,0.0,0.0,0.0,0.0,0.0,0.0,0.0,0.0,0.0,-1.6063,-1.7768,-1.9341,-2.0798,-2.1761,-2.22,-2.2056,-2.0642,-1.8734,0.0,0.0,0.0,0.0,0.0,0.0,0.0,0.0,0.0,0.0,0.0,0.0,0.0,0.0,0.0,0.0,0.0,0.0,0.0,0.0,0.0,0.0,0.0,0.0,0.0,0.0,0.0,0.0,0.0,0.0,0.0,0.0,0.0,0.0,0.0,0.0,0.0,0.0,0.0,0.0,0.0,-1.7197,-1.8572,-1.921,-1.9458,0.0,0.0,-1.8956,-1.9437,-1.8252,-1.7193,-1.6984,0.0,0.0,0.0,0.0,0.0,0.0,0.0,0.0,0.0,0.0,0.0,0.0,0.0,0.0,0.0,0.0,0.0,0.0,0.0,0.0,0.0,0.0,0.0,0.0,0.0,0.0,0.0,0.0,0.0,0.0,0.0,0.0,0.0,0.0,0.0,0.0,0.0,0.0,0.0,0.0,0.0,0.0,0.0,0.0,0.0,0.0,0.0,0.0,0.0,0.0,0.0,0.0,0.0,-1.4055,-1.5848,-1.7465,-1.8829,-1.9843,-2.0245,-2.0657,-2.1143,-2.0587,-1.9388,0.0,0.0,0.0,0.0,0.0,0.0,0.0,0.0,0.0,0.0,0.0,0.0,0.0,0.0,0.0,0.0,0.0,0.0,0.0,0.0,0.0,0.0,0.0,0.0,0.0,0.0,0.0,0.0,-0.6179,-0.6775,-0.7436,0.0,0.0,0.0,0.0,0.0,0.0,0.0,0.0,0.0,0.0,-1.8326,-1.9303,-2.0371,0.0,0.0,-2.0626,-2.0469,-2.0575,-1.9609,-1.8608,-1.796,-1.6443,0.0,0.0,0.0,0.0,0.0,0.0,0.0,0.0,0.0,0.0,0.0,0.0,0.0,0.0,0.0,0.0,0.0,0.0,0.0,0.0,0.0,0.0,0.0,0.0,0.0,0.0,0.0,0.0,0.0,0.0,0.0,0.0,0.0,0.0,0.0,0.0,0.0,0.0,0.0,0.0,0.0,0.0,0.0,0.0,0.0,0.0,0.0,0.0,0.0,0.0,0.0,0.0,-1.4178,-1.5697,-1.7315,-1.8594,-1.9545,-1.9832,-2.0321,-2.1046,-2.0897,-2.0166,0.0,0.0,0.0,0.0,0.0,0.0,0.0,0.0,0.0,0.0,0.0,0.0,0.0,0.0,0.0,0.0,0.0,0.0,0.0,0.0,0.0,0.0,0.0,0.0,0.0,0.0,0.0,0.0,-0.6757,-0.7349,-0.7811,0.0,0.0,0.0,0.0,0.0,0.0,0.0,0.0,0.0,0.0,-1.9102,-2.0032,-2.1245,-2.2053,-2.1932,-2.1715,-2.1516,-2.1401,-2.0571,-1.9747,-1.8997,0.0,0.0,0.0,0.0,0.0,0.0,0.0,0.0,0.0,0.0,0.0,0.0,0.0,0.0,0.0,0.0,0.0,0.0,0.0,0.0,0.0,0.0,0.0,0.0,0.0,0.0,0.0,0.0,0.0,0.0,0.0,0.0,0.0,0.0,0.0,0.0,0.0,0.0,0.0,0.0,0.0,0.0,0.0,0.0,0.0,0.0,0.0,0.0,0.0,0.0,0.0,0.0,0.0,0.0,-1.5502,-1.7127,-1.8671,-2.0152,-2.1002,-2.1739,-2.2378,-2.1815,-2.1062,-2.0125,0.0,0.0,0.0,0.0,0.0,0.0,0.0,0.0,0.0,0.0,0.0,0.0,0.0,0.0,0.0,0.0,0.0,0.0,0.0,0.0,0.0,0.0,0.0,0.0,0.0,0.0,-0.6767,-0.7341,-0.7797,0.0,0.0,0.0,0.0,0.0,0.0,0.0,0.0,0.0,0.0,-1.8061,-1.9261,-2.074,-2.1664,-2.2214,-2.2185,-2.2022,-2.1886,-2.1794,-2.1009,-2.0313,0.0,0.0,0.0,0.0,0.0,0.0,0.0,0.0,0.0,0.0,0.0,0.0,0.0,0.0,0.0,0.0,0.0,0.0,0.0,0.0,0.0,0.0,0.0,0.0,0.0,0.0,0.0,0.0,0.0,0.0,0.0,0.0,0.0,0.0,0.0,0.0,0.0,0.0,0.0,0.0,-1.3742,-1.377,0.0,0.0,0.0,0.0,0.0,0.0,0.0,0.0,0.0,0.0,0.0,0.0,-1.4552,-1.608,-1.767,-1.9224,-2.0668,-2.1111,-2.1657,-2.2332,-2.2139,-2.1426,-2.0086,0.0,0.0,0.0,0.0,0.0,0.0,0.0,0.0,0.0,0.0,0.0,0.0,0.0,0.0,0.0,0.0,0.0,0.0,0.0,0.0,0.0,0.0,0.0,0.0,0.0,-0.8008,0.0,0.0,0.0,0.0,0.0,0.0,0.0,0.0,0.0,0.0,0.0,-1.4748,-1.6783,-1.8376,-1.9744,-2.0722,-2.1664,-2.2271,0.0,0.0,0.0,0.0,0.0,0.0,0.0,0.0,0.0,0.0,0.0,0.0,0.0,0.0,-1.4483,-1.3162,-1.2927,-1.2914,-1.2927,0.0,0.0,0.0,0.0,0.0,0.0,0.0,0.0,0.0,0.0,0.0,0.0,0.0,0.0,0.0,0.0,-1.2253,0.0,0.0,0.0,0.0,0.0,0.0,0.0,0.0,-1.4761,-1.5326,-1.584,-1.584,-1.5889,0.0,-1.5727,-1.4667,0.0,0.0,0.0,0.0,0.0,0.0,0.0,0.0,-1.5622,-1.6706,-1.8575,-2.0017,-2.0969,-2.1387,-2.1803,-2.2293,-2.2327,-2.1701,-2.0441,-1.8768,-1.6963,0.0,0.0,0.0,0.0,0.0,0.0,0.0,0.0,0.0,0.0,0.0,0.0,0.0,0.0,0.0,0.0,0.0,0.0,0.0,0.0,0.0,0.0,0.0,-0.8826,0.0,0.0,0.0,0.0,0.0,0.0,0.0,0.0,0.0,-1.3899,-1.4726,-1.5844,-1.7448,-1.9017,-2.0301,-2.1128,0.0,0.0,0.0,0.0,0.0,0.0,0.0,-2.2695,-2.2498,-2.2229,-2.1859,-2.1214,-2.037,-1.9682,-1.9378,0.0,0.0,-1.5513,-1.4967,-1.4862,-1.5098,-1.5098,-1.5095,-1.5154,-1.5162,-1.5331,0.0,0.0,0.0,0.0,0.0,0.0,0.0,0.0,-1.5442,-1.5626,0.0,0.0,0.0,0.0,0.0,0.0,0.0,0.0,0.0,0.0,-1.6272,-1.6872,-1.7533,-1.7529,-1.7552,-1.7593,-1.7644,-1.7305,-1.6622,-1.4255,0.0,0.0,0.0,0.0,0.0,0.0,-1.7075,-1.7338,-1.9631,-2.091,-2.1059,-2.1849,-2.2293,-2.2327,-2.2327,-2.1972,-2.1228,-2.0441,-1.8966,-1.6703,-1.4338,0.0,0.0,0.0,0.0,0.0,0.0,0.0,0.0,0.0,0.0,0.0,0.0,0.0,0.0,0.0,0.0,0.0,0.0,0.0,0.0,-0.9087,0.0,0.0,0.0,0.0,0.0,0.0,0.0,0.0,0.0,0.0,-1.4811,-1.5796,-1.7085,-1.8865,0.0,0.0,0.0,0.0,-2.2327,-2.2327,-2.2925,-2.3415,-2.338,-2.3941,-2.4368,-2.4339,0.0,0.0,-2.2729,-2.2087,-2.1554,-2.1083,-2.0683,-1.9753,-1.7694,-1.6768,-1.6507,-1.7041,-1.7106,-1.7193,-1.7652,-1.7394,-1.7194,-1.9167,0.0,0.0,0.0,0.0,-1.6396,-1.7,-1.7452,-1.7749,-1.7777,-1.7552,-1.6398,0.0,0.0,0.0,0.0,0.0,0.0,-1.6707,-1.8431,-1.8604,-1.9235,-2.0224,-2.0253,-2.0026,-1.9612,-1.9233,-1.8688,-1.8071,-1.6922,-1.5572,-1.4116,0.0,0.0,0.0,0.0,-1.722,-1.8446,-1.9857,-2.0953,-2.1623,-2.2034,-2.2254,-2.2327,-2.2327,-2.2209,-2.1989,-2.1262,-2.0263,-1.8984,-1.7215,0.0,0.0,0.0,0.0,0.0,0.0,0.0,0.0,0.0,0.0,0.0,0.0,0.0,0.0,0.0,0.0,0.0,0.0,0.0,-1.012,-1.0579,-1.0711,0.0,0.0,0.0,0.0,0.0,0.0,0.0,0.0,0.0,-1.6253,-1.637,-1.7208,0.0,0.0,-2.0912,-2.1811,-2.2135,-2.2327,-2.2327,0.0,0.0,0.0,-2.4002,-2.463,-2.5075,-2.5227,-2.5134,-2.466,-2.403,-2.3473,-2.3093,-2.2337,-2.152,-2.0898,-1.9865,-1.9279,-1.939,-1.9446,-1.9322,-1.9164,-1.9209,-1.9253,-2.3482,-2.0974,-1.8811,-1.8192,-1.869,-1.8918,-1.9406,-1.9936,-1.9884,-1.96,-1.9076,-1.8519,-1.7918,-1.7225,-1.6787,0.0,0.0,0.0,-1.8817,-2.0065,-2.0318,-2.0816,-2.1505,-2.152,-2.1337,-2.0974,-2.0348,-1.9863,-1.9495,-1.8822,-1.7807,-1.6443,0.0,0.0,-1.6209,-1.7155,-1.8165,-1.9178,-2.0275,-2.116,-2.1811,-2.2065,-2.2214,-2.2254,-2.2282,-2.2327,-2.231,-2.187,-2.1252,-2.043,-1.9782,-1.8,0.0,0.0,0.0,0.0,0.0,0.0,0.0,0.0,0.0,0.0,0.0,-0.5843,0.0,0.0,0.0,0.0,-0.8432,-0.9708,-1.1361,-1.1738,0.0,0.0,0.0,0.0,0.0,0.0,0.0,-1.4356,-1.558,-1.6724,-1.7652,-1.7699,-1.8183,-1.9746,-2.0557,-2.1271,-2.1845,0.0,-2.2327,-2.2327,-2.3169,-2.3843,-2.3858,-2.4692,-2.5492,-2.5899,-2.5995,-2.5994,-2.5684,-2.516,-2.4704,-2.4261,-2.358,-2.2996,-2.2936,-2.2232,-2.1509,-2.1112,-2.0969,-2.0911,-2.0873,-2.0879,-2.0797,-2.724,-2.6487,-2.2667,-2.1197,-2.1377,-2.1288,-2.1536,-2.1959,-2.1899,-2.115,-2.001,-2.0543,-1.993,-1.8446,-1.8475,0.0,0.0,-1.9967,-2.0605,-2.0902,-2.1485,-2.1799,-2.1844,-2.1859,-2.1829,-2.1754,-2.1156,-2.0842,-2.0752,-2.0094,-1.9465,-1.8852,-1.8245,-1.7917,-1.7934,-1.8866,-1.9448,-1.9656,-2.0719,-2.1371,-2.1678,-2.1978,-2.2185,-2.2185,-2.2271,-2.2282,-2.2327,-2.2327,-2.1961,-2.1265,-2.191,-2.0952,-1.7987,0.0,0.0,0.0,0.0,0.0,0.0,0.0,0.0,0.0,0.0,0.0,0.0,0.0,0.0,0.0,-0.9856,0.0,-1.2101,-1.2794,0.0,0.0,0.0,-1.278,-1.3408,-1.4294,-1.5241,-1.6157,0.0,0.0,0.0,0.0,-1.9624,-2.0016,-2.0994,-2.1768,-2.1969,-2.2163,-2.2265,-2.2282,-2.3448,-2.4388,-2.4445,-2.5639,-2.6506,-2.6488,-2.6469,-2.6295,-2.6046,-2.5701,-2.5313,-2.491,-2.4492,-2.4139,-2.4082,-2.3749,-2.3329,-2.2321,-2.2062,-2.2091,-2.2449,-2.2249,-2.1946,-2.9164,-2.7761,-2.6607,-2.552,-2.4564,-2.4307,-2.4261,-2.4283,-2.3598,-2.2787,-2.1883,-2.1584,-2.1183,-2.0709,-2.0651,-2.0705,-2.0798,-2.1094,-2.1605,-2.2203,-2.2368,-2.2697,-2.3131,-2.3146,-2.2906,-2.2484,-2.2319,-2.1949,-2.1455,-2.0797,-2.0393,-2.0213,-1.9576,-1.8991,-1.8527,-1.8846,-1.9382,-2.011,-2.0501,-2.0942,-2.1448,-2.1738,-2.1945,-2.2044,-2.2152,-2.2254,-2.2327,-2.2327,-2.2226,-2.2029,-2.2181,-2.1933,-2.1154,-1.6637,0.0,0.0,0.0,0.0,0.0,0.0,0.0,0.0,0.0,-0.8205,-0.9529,0.0,-1.0483,0.0,-1.2277,-1.4001,-1.4063,-1.4336,0.0,0.0,-1.4624,-1.473,-1.4881,-1.5686,-1.6596,-1.7516,-1.8012,-1.8609,-1.9497,-1.9886,-2.0177,-2.046,-2.1117,-2.1694,-2.184,-2.1969,-2.2084,-2.2157,-2.2886,-2.3703,-2.438,-2.5662,-2.6589,-2.6537,-2.6503,-2.6417,-2.626,-2.6046,-2.577,-2.5502,-2.5132,-2.4829,-2.4611,-2.4348,-2.4006,-2.3601,-2.3299,-2.3083,-2.2995,-2.2937,-2.2893,-3.063,-2.9397,-2.9164,-2.8534,-2.7656,-2.6518,-2.6109,-2.6195,-2.5328,-2.424,-2.3032,-2.2694,-2.2506,-2.2367,-2.1987,-2.1854,-2.198,-2.2233,-2.2822,-2.3535,-2.355,-2.3879,-2.4477,-2.4492,-2.4148,-2.355,-2.3236,-2.2757,-2.2128,-2.147,-2.1141,-2.1156,-2.0767,-2.0393,-2.0034,-1.9572,-1.9591,-2.015,-2.0426,-2.0763,-2.1197,-2.1493,-2.1735,-2.1924,-2.177,-2.1703,-2.1803,-2.1465,-2.1269,-2.1312,-2.1938,-2.2327,-2.2215,-1.8,-1.4256,0.0,0.0,0.0,0.0,0.0,0.0,0.0,0.0,0.0,0.0,0.0,-1.1733,0.0,0.0,0.0,-1.5167,-1.5425,-1.5667,-1.5785,-1.591,-1.6069,-1.6312,-1.6881,-1.757,-1.8455,-1.8811,-1.9194,-1.9717,-2.0025,-2.027,-2.0512,-2.0958,-2.1371,-2.1678,-2.1794,-2.1869,-2.1915,-2.2571,-2.3351,-2.419,-2.5246,-2.5949,-2.5965,-2.6216,-2.6452,-2.6382,-2.6241,-2.6046,-2.5828,-2.5244,-2.4738,-2.4512,-2.4153,-2.384,-2.3686,-2.3616,-2.3566,-2.3348,-2.3392,-2.3377,-3.1782,-3.1046,-3.0684,-3.0452,-3.021,-2.8339,-2.7617,-2.7687,-2.6945,-2.5645,-2.4008,-2.404,-2.3968,-2.3805,-2.3081,-2.2814,-2.2986,-2.3494,-2.4104,-2.4701,-2.4701,-2.5061,-2.56,-2.56,-2.53,-2.4686,-2.4133,-2.3535,-2.2921,-2.2263,-2.1944,-2.1854,-2.1779,-2.1774,-2.1729,-2.0677,-2.0086,-2.0005,-2.0376,-2.073,-2.0975,-2.1291,-2.1615,-2.1836,-2.1295,-2.1063,-2.116,-2.045,-1.9985,-2.0035,-2.1269,-2.2023,-2.1927,-1.8779,-1.5971,0.0,-1.3066,0.0,0.0,0.0,0.0,0.0,0.0,0.0,0.0,-1.1896,-1.2858,-1.4919,-1.6363,-1.684,-1.5922,-1.6338,-1.6681,-1.6681,-1.6909,-1.7206,-1.7632,-1.791,-1.8331,-1.9043,-1.9413,-1.9647,-1.9762,-1.9884,-2.0096,-2.0426,-2.0662,-2.0942,-2.1402,-2.1573,-2.165,-2.1738,-2.2386,-2.3158,-2.3816,-2.4547,-2.5046,-2.5196,-2.5713,-2.63,-2.6417,-2.6399,-2.6243,-2.5986,-2.5199,-2.441,-2.4165,-2.3774,-2.3416,-2.3193,-2.35,-2.3739,-2.361,-2.3566,-2.3595,-3.2664,-3.1799,-3.117,-3.0814,-3.0576,-3.017,-2.9459,-2.8528,-2.7993,-2.7118,-2.6091,-2.6334,-2.6168,-2.568,-2.5319,-2.5137,-2.5168,-2.5166,-2.5254,-2.542,-2.5435,-2.5495,-2.56,-2.56,-2.554,-2.5435,-2.53,-2.4896,-2.4253,-2.3666,-2.3107,-2.258,-2.2267,-2.2102,0.0,0.0,0.0,0.0,-2.0304,-2.0561,-2.0844,-2.1183,-2.1495,-2.1794,-2.1256,0.0,-2.116,-2.0407,-1.9985,-2.0002,-2.0289,0.0,0.0,0.0,0.0,0.0,0.0,0.0,0.0,0.0,0.0,0.0,-1.2687,-1.2842,-1.2731,-1.3663,-1.4828,-1.6071,-1.6796,-1.7175,-1.7181,-1.774,-1.8162,-1.8314,-1.8627,-1.8796,-1.8801,-1.8912,-1.9133,-1.931,-1.9487,-1.9632,-1.969,-1.9797,-1.999,-2.0304,-2.046,-2.0677,-2.1006,-2.1183,-2.131,-2.1436,-2.2179,-2.2799,-2.2964,-2.3654,-2.4298,-2.4705,-2.5074,-2.5611,-2.6164,-2.6399,-2.6417,-2.6247,-2.5382,-2.4544,-2.4279,-2.3967,-2.3561,-2.3191,-2.3538,-2.3897,-2.3653,-2.3595,-2.3595,-3.3246,0.0,-3.1786,-3.1392,0.0,-3.0855,-3.0475,-2.9865,-2.9259,-2.857,-2.7823,-2.7619,-2.73,-2.6872,-2.6337,-2.626,-2.6473,-2.5937,-2.6053,-2.6654,-2.6306,-2.6273,-2.6572,-2.6572,-2.6408,-2.6093,-2.6093,-2.5764,-2.5106,-2.4537,-2.4172,-2.3867,-2.3463,-2.3277,-2.3357,-2.3072,-2.2198,-2.0635,-2.0508,-2.0595,-2.0844,-2.1166,-2.1509,-2.1823,0.0,0.0,0.0,0.0,0.0,0.0,0.0,0.0,0.0,0.0,0.0,-1.8161,-1.7041,-1.5785,-1.4332,-1.4327,-1.4205,-1.3729,-1.422,-1.4409,-1.3951,-1.4525,-1.5329,-1.6396,-1.6934,-1.7271,-1.7478,-1.8196,-1.8707,-1.8889,-1.9242,-1.9376,-1.9302,-1.9376,-1.945,-1.9487,-1.9596,-1.9669,-1.9705,-1.9726,-1.9904,-2.022,-2.0392,-2.0545,-2.0843,-2.099,-2.1119,-2.1277,-2.1789,-2.2192,-2.2227,-2.2784,-2.3326,-2.3719,-2.4444,-2.5176,-2.5679,-2.6079,-2.6312,-2.6112,-2.5297,-2.445,-2.4152,-2.384,-2.346,-2.3157,-2.347,-2.3809,-2.3638,-2.3595,-2.3595,-3.3761,-3.2662,-3.251,-3.2138,-3.1579,-3.1459,-3.1402,-3.1362,0.0,0.0,0.0,-2.8818,-2.8474,-2.829,-2.7566,-2.7473,-2.7811,-2.7038,-2.7213,-2.8193,-2.7564,-2.7534,-2.7876,-2.7941,-2.7545,-2.6943,-2.6913,-2.6582,-2.592,-2.5516,-2.5241,-2.5114,-2.4848,-2.4714,-2.4735,-2.4123,-2.3127,-2.1766,-2.1073,-2.0854,-2.099,-2.1293,-2.1601,-2.1911,-2.1306,-2.1063,-2.1177,-2.0433,-1.9985,-1.9968,-1.8944,-1.8278,-1.8245,-1.9197,-2.0049,-2.0522,-1.903,-1.7621,-1.6619,-1.6133,-1.5608,-1.502,-1.536,-1.5451,-1.5191,-1.5205,-1.553,-1.6446,-1.6863,-1.7203,-1.7464,-1.8246,-1.8798,-1.8993,-1.9354,-1.9574,-1.9487,-1.9538,-1.9596,-1.9611,-1.9669,-1.9705,-1.969,-1.9726,-1.9818,-2.02,-2.0342,-2.053,-2.0844,-2.0909,-2.1007,-2.1262,-2.1484,-2.1575,-2.1671,-2.2,-2.2425,-2.2753,-2.3834,-2.4792,-2.5143,-2.569,-2.6038,-2.5909,-2.5036,-2.4297,-2.3912,-2.3608,-2.3277,-2.294,-2.3371,-2.3739,-2.3638,-2.3595,-2.3595,-3.4353,-3.4134,-3.3508,-3.3186,-3.3085,-3.306,-3.3018,-3.2824,-3.1157,-3.0688,-3.1134,-3.0693,-3.0836,-3.134,-3.0767,-3.0509,-3.0441,-3.0064,-2.9955,0.0,-2.9945,-2.9587,-2.9127,-2.9177,-2.879,-2.8207,-2.8161,-2.7793,-2.7211,-2.7241,-2.6756,-2.5853,-2.6005,-2.6028,-2.5696,-2.4984,-2.421,-2.3346,-2.233,-2.1646,-2.1358,-2.1542,-2.1768,-2.1936,-2.1351,-2.1046,-2.1204,-2.045,-1.9985,-2.0002,-2.0247,-2.0179,-1.9765,-2.0683,-2.1252,-2.115,-2.0342,-1.9245,-1.7956,-1.7696,-1.729,-1.6481,-1.6371,-1.6328,-1.6296,-1.6296,-1.6358,-1.6509,-1.6607,-1.6854,-1.7451,-1.8145,-1.8697,-1.904,-1.9391,-1.9596,-1.9669,-1.9654,-1.9705,-1.9705,-1.969,-1.9705,-1.9705,-1.9705,-1.9797,-2.0065,-2.0308,-2.0579,-2.0924,-2.0958,-2.0974,-2.1167,-2.1294,-2.1388,-2.1544,-2.1544,-2.1857,-2.2378,-2.3176,-2.406,-2.4601,-2.5373,-2.577,-2.5513,-2.4786,-2.4083,-2.3672,-2.3435,-2.3227,-2.2972,-2.339,-2.3724,-2.3653,-2.3595,-2.3595,-3.4861,-3.4472,-3.4134,-3.3761,-3.3389,-3.3389,-3.3381,-3.3288,-3.2446,-3.2144,-3.2243,-3.2073,-3.2114,-3.2275,-3.19,-3.1887,-3.2078,-3.1252,-3.1099,-3.1393,-3.0912,-3.0534,-3.0254,-3.0239,-3.0033,-2.9707,-2.9335,-2.9009,-2.87,-2.8169,-2.7627,-2.7094,-2.6905,-2.6526,-2.6059,-2.5716,-2.5217,-2.4517,-2.3144,-2.2183,-2.164,-2.1784,-2.1928,-2.2106,-2.1855,-2.1742,-2.1803,-2.1465,-2.1262,-2.1252,-2.1498,-2.1515,-2.1285,-2.1611,-2.1754,-2.1556,-2.0975,-2.0175,-1.9201,-1.848,-1.7801,-1.7173,-1.6976,-1.6778,-1.6522,-1.6534,-1.6534,-1.6534,-1.6534,-1.6769,-1.741,-1.8133,-1.8659,-1.9064,-1.9413,-1.9596,-1.969,-1.9705,-1.9705,-1.9705,-1.9705,-1.9705,-1.9705,-1.9705,-1.9797,-2.0065,-2.0395,-2.0778,-2.107,-2.107,-2.1054,-2.1183,-2.1262,-2.1309,-2.1402,-2.1433,-2.1517,-2.1778,-2.2734,-2.3462,-2.3981,-2.4701,-2.5196,-2.5114,-2.4573,-2.4153,-2.3815,-2.3679,-2.3488,-2.3353,-2.3426,-2.3623,-2.3595,-2.3595,-2.3595,-3.5416,-3.4916,-3.4899,-3.4533,-3.4041,-3.3956,-3.3956,-3.3956,-3.3914,-3.3736,-3.3541,-3.3342,-3.324,-3.3214,-3.2998,-3.3074,-3.3242,-3.245,-3.2253,-3.2716,-3.2053,-3.1636,-3.1478,-3.1462,-3.1399,-3.1193,-3.0638,-3.037,-3.0291,-2.935,-2.873,-2.8468,-2.7611,-2.6945,-2.6562,-2.6378,-2.5994,-2.5292,-2.405,-2.3088,-2.2413,-2.2491,-2.2605,-2.2714,-2.2772,-2.2801,-2.2801,-2.2801,-2.2801,-2.2801,-2.2784,-2.2665,-2.2361,-2.2459,-2.2491,-2.2352,-2.1742,-2.0972,-2.0093,-1.9059,-1.8249,-1.7787,-1.7544,-1.7227,-1.6808,-1.6693,-1.665,-1.665,-1.6552,-1.6782,-1.7504,-1.8173,-1.8697,-1.9078,-1.9391,-1.9611,-1.969,-1.9705,-1.9705,-1.9705,-1.9705,-1.9705,-1.9705,-1.9726,-1.9869,-2.0239,-2.0646,-2.0942,-2.1119,-2.1167,-2.1167,-2.1183,-2.123,-2.1262,-2.1294,-2.1325,-2.139,-2.144,-2.2403,-2.3119,-2.351,-2.4214,-2.4689,-2.4625,-2.4444,-2.4138,-2.3967,-2.3857,-2.3741,-2.3593,-2.358,-2.3595,-2.3595,-2.3595,-2.3595,-3.6207,-3.6155,-3.6061,-3.6053,-3.5865,-3.5667,-3.5501,-3.5501,-3.5447,-3.5402,-3.5216,-3.4482,-3.4555,-3.5148,-3.4901,-3.4714,-3.4703,-3.4462,-3.43,-3.4252,-3.4235,-3.3827,-3.3206,-3.3157,-3.2847,-3.2341,-3.2194,-3.2099,-3.205,-3.1401,-3.0599,-2.9543,-2.8276,-2.7647,-2.7568,-2.6995,-2.6303,-2.5581,-2.5428,-2.4957,-2.4208,-2.4168,-2.4228,-2.4272,-2.4272,-2.432,-2.4188,-2.4303,-2.4303,-2.4303,-2.4269,-2.3663,-2.2649,-2.3456,-2.418,-2.4177,-2.3171,-2.1859,-2.0388,-1.9728,-1.9185,-1.8574,-1.8224,-1.7894,-1.7557,-1.7269,-1.7115,-1.7141,-1.6791,-1.6976,-1.7733,-1.8411,-1.886,-1.9116,-1.9302,-1.9487,-1.9654,-1.9705,-1.9705,-1.9705,-1.9726,-1.9741,-1.9747,-1.9797,-2.0045,-2.0543,-2.0794,-2.1039,-2.1277,-2.1277,-2.1262,-2.1215,-2.1167,-2.1167,-2.1167,-2.1167,-2.136,-2.1855,-2.2397,-2.2933,-2.3465,-2.4021,-2.4477,-2.4281,-2.4076,-2.3918,-2.3837,-2.3801,-2.3638,-2.3505,-2.352,-2.3595,-2.3595,-2.3595,-2.3595,-3.6451,-3.6451,-3.6468,-3.6426,-3.6335,-3.6191,-3.6105,-3.6088,-3.5993,-3.5949,-3.5915,-3.5487,-3.5423,-3.5566,-3.5383,-3.5321,-3.5304,-3.5135,-3.5118,-3.5131,-3.5068,-3.4918,-3.4726,-3.4601,-3.4435,-3.4151,-3.3632,-3.3342,-3.3143,-3.2199,-3.1275,-3.0442,-2.9463,-2.8612,-2.784,-2.752,-2.6995,-2.627,-2.6252,-2.6083,-2.5713,-2.4917,-2.4492,-2.4475,-2.4523,-2.4523,-2.4523,-2.4523,-2.4523,-2.4523,-2.4523,-2.4235,-2.363,-2.414,-2.4881,-2.5592,-2.3896,-2.241,-2.1464,-2.0683,-1.9989,-1.9405,-1.9089,-1.8727,-1.8291,-1.7975,-1.8113,-1.8809,-1.8031,-1.7543,-1.8097,-1.8606,-1.9026,-1.9228,-1.9376,-1.956,-1.9726,-1.9762,-1.9797,-1.9889,-1.994,-1.9975,-2.0045,-2.015,-2.0357,-2.0711,-2.0941,-2.1183,-2.1355,-2.1355,-2.134,-2.1294,-2.1214,-2.1151,-2.1087,-2.1071,-2.1358,-2.1829,-2.2335,-2.2879,-2.3336,-2.3856,-2.412,-2.393,-2.3546,-2.3277,-2.3163,-2.2821,-2.2619,-2.2892,-2.3445,-2.3595,-2.3595,-2.3595,-2.3595,-3.6816,-3.6794,-3.6736,-3.6696,-3.665,-3.6509,-3.6426,-3.6385,-3.6318,-3.6251,-3.6208,-3.6105,-3.5958,-3.58,-3.5728,-3.5701,-3.5773,-3.5684,-3.5711,-3.581,-3.5732,-3.5776,-3.5837,-3.5793,-3.5732,-3.562,-3.5003,-3.4577,-3.4185,-3.3026,-3.2059,-3.1381,-3.0437,-2.9479,-2.8482,-2.806,-2.7536,-2.7029,-2.6826,-2.6708,-2.6539,-2.5642,-2.5116,-2.5116,-2.5084,-2.5084,-2.5116,-2.5084,-2.5116,-2.5116,-2.5101,-2.5116,-2.5116,-2.5116,-2.549,-2.6117,-2.466,-2.3339,-2.272,-2.1778,-2.1049,-2.0493,-2.0041,-1.9522,-1.9058,-1.8683,-1.9038,-2.0063,-1.98,-1.9445,-1.8731,-1.8975,-1.9213,-1.9362,-1.9538,-1.9705,-1.9869,-1.9904,-2.001,-2.0135,-2.017,-2.0289,-2.0426,-2.0527,-2.0662,-2.0942,-2.1135,-2.134,-2.1479,-2.154,-2.1509,-2.1464,-2.1433,-2.1294,-2.1039,-2.1023,-2.1292,-2.1682,-2.2189,-2.2518,-2.3048,-2.3478,-2.3588,-2.3197,-2.2761,-2.248,-2.2445,-2.2049,-2.1959,-2.2559,-2.3083,-2.3415,-2.358,-2.358,-2.3595,-3.7317,-3.7259,-3.7091,-3.7069,-3.7052,-3.6873,-3.6713,-3.6574,-3.6527,-3.6419,-3.6318,-3.6318,-3.6259,-3.6259,-3.6208,-3.6182,-3.6182,-3.6335,-3.6419,-3.6444,-3.6509,-3.6533,-3.6574,-3.6533,-3.6527,-3.653,-3.6419,-3.5862,-3.4991,-3.4202,-3.3351,-3.2423,-3.104,-3.0149,-2.9756,-2.8586,-2.7823,-2.7688,-2.7148,-2.6742,-2.6725,-2.664,-2.6538,-2.6488,-2.6556,-2.6488,-2.6522,-2.6556,-2.6539,-2.6573,-2.6505,-2.6522,-2.6556,-2.6539,-2.6252,-2.5697,-2.5428,-2.4895,-2.395,-2.3029,-2.2313,-2.1788,-2.0829,-2.0124,-1.9878,-1.9362,-1.9602,-2.038,-2.2155,-2.2226,-2.0277,-1.9669,-1.9479,-1.9604,-1.9654,-1.9818,-2.0065,-2.0204,-2.0289,-2.041,-2.0512,-2.0613,-2.0761,-2.0794,-2.1007,-2.1245,-2.1432,-2.1584,-2.1764,-2.1869,-2.1811,-2.1751,-2.1678,-2.1556,-2.1183,-2.1151,-2.1391,-2.1752,-2.2008,-2.2035,-2.2501,-2.2845,-2.2772,-2.2551,-2.2139,-2.1883,-2.178,-2.1831,-2.1999,-2.2389,-2.2705,-2.3008,-2.3548,-2.358,-2.3595,-3.7241,-3.7147,-3.7069,-3.7105,-3.7203,-3.7069,-3.6992,-3.6913,-3.6851,-3.6731,-3.6609,-3.6585,-3.6544,-3.6561,-3.6585,-3.6502,-3.6419,-3.6527,-3.665,-3.6811,-3.697,-3.7316,-3.7835,-3.787,-3.787,-3.7831,-3.7614,-3.6986,-3.6035,-3.5227,-3.4404,-3.351,-3.2436,-3.1401,-3.0384,-2.979,-2.9108,-2.8186,-2.7877,-2.755,-2.7072,-2.6989,-2.6956,-2.6956,-2.6808,-2.6708,-2.6708,-2.6708,-2.6708,-2.6708,-2.6708,-2.6708,-2.6708,-2.6708,-2.659,-2.6269,-2.5847,-2.5326,-2.4693,-2.3646,-2.2675,-2.1918,-2.1375,-2.1083,-2.1033,-2.0476,-2.0582,-2.2302,-2.3896,-2.3969,-2.2476,-2.0923,-2.0137,-2.0455,-2.034,-2.0204,-2.0395,-2.0545,-2.0695,-2.0942,-2.1071,-2.1182,-2.1214,-2.1324,-2.1464,-2.1601,-2.1721,-2.1823,-2.1911,-2.1953,-2.194,-2.1911,-2.1882,-2.1823,-2.1691,-2.1432,-2.1518,-2.1874,-2.2155,-2.2228,-2.2567,-2.2537,-2.2447,-2.2271,-2.182,-2.1408,-2.1335,-2.1354,-2.1614,-2.2173,-2.2506,-2.2979,-2.3618,-2.3694,-2.3681,-3.7087,-3.7048,-3.697,-3.7066,-3.722,-3.7147,-3.7108,-3.7108,-3.7048,-3.697,-3.6869,-3.6806,-3.6823,-3.6806,-3.6829,-3.6788,-3.669,-3.6771,-3.693,-3.714,-3.7583,-3.8125,-3.8645,-3.9024,-3.9044,-3.8701,-3.8226,-3.7606,-3.6882,-3.6085,-3.5318,-3.4601,-3.3498,-3.2383,-3.1325,-3.0812,-3.0022,-2.9179,-2.8644,-2.8107,-2.7609,-2.7302,-2.7135,-2.7103,-2.6956,-2.6825,-2.6791,-2.6792,-2.6775,-2.6775,-2.6808,-2.6775,-2.6742,-2.6725,-2.6708,-2.664,-2.6234,-2.5863,-2.5561,-2.4555,-2.367,-2.2959,-2.2483,-2.2345,-2.2437,-2.1726,-2.22,-2.3626,-2.51,-2.5457,-2.4261,-2.2733,-2.1678,-2.1466,-2.105,-2.0832,-2.0843,-2.0909,-2.1135,-2.1386,-2.1509,-2.1584,-2.1645,-2.1691,-2.1797,-2.1932,-2.1991,-2.2032,-2.2073,-2.2101,-2.2101,-2.2101,-2.2118,-2.2089,-2.202,-2.1857,-2.1661,-2.1936,-2.2021,-2.221,-2.2325,-2.2224,-2.2113,-2.1957,-2.1605,-2.1175,-2.0953,-2.0945,-2.1347,-2.1972,-2.2424,-2.2897,-2.3401,-2.3879,-2.3688,-3.6891,-3.693,-3.6834,-3.6913,-3.7108,-3.7108,-3.7108,-3.7108,-3.7108,-3.7087,-3.7027,-3.6987,-3.7027,-3.6987,-3.7027,-3.697,-3.7009,-3.7164,-3.7259,-3.735,-3.8326,-3.885,-3.9029,-3.9949,-3.9896,-3.9085,-3.8205,-3.7721,-3.7396,-3.6701,-3.6109,-3.5437,-3.4132,-3.3234,-3.2855,-3.1614,-3.0835,-3.03,-2.9246,-2.8483,-2.8295,-2.7607,-2.7213,-2.7213,-2.7181,-2.7135,-2.7007,-2.6942,-2.6942,-2.6975,-2.6975,-2.6942,-2.6876,-2.6775,-2.6708,-2.6708,-2.6657,-2.6657,-2.6556,-2.5814,-2.5157,-2.4755,-2.4295,-2.372,-2.3569,-2.3248,-2.3378,-2.4381,-2.5589,-2.6297,-2.5594,-2.4883,-2.3767,-2.2229,-2.1811,-2.1661,-2.1359,-2.1355,-2.1509,-2.1738,-2.1877,-2.189,-2.1949,-2.2178,-2.2304,-2.2324,-2.2303,-2.2281,-2.2271,-2.2237,-2.2265,-2.2282,-2.2254,-2.2209,-2.2254,-2.2282,-2.2077,-2.1953,-2.1842,-2.1887,-2.1989,-2.1987,-2.182,-2.1655,-2.1442,-2.1049,-2.0982,-2.1007,-2.1502,-2.2051,-2.2412,-2.2972,-2.3656,-2.4096,-2.3553,-3.6609,-3.6667,-3.6708,-3.6829,-3.7009,-3.7069,-3.7147,-3.7259,-3.7241,-3.722,-3.722,-3.722,-3.722,-3.722,-3.722,-3.7259,-3.7279,-3.7429,-3.7447,-3.7552,-3.8507,-3.9337,-3.9967,-4.0944,-4.0926,-3.9914,-3.8632,-3.7897,-3.765,-3.7345,-3.6825,-3.5984,-3.5451,-3.4531,-3.3349,-3.295,-3.2336,-3.1044,-3.0114,-2.9394,-2.8753,-2.791,-2.7478,-2.7448,-2.7404,-2.7341,-2.7341,-2.7166,-2.7135,-2.7152,-2.7087,-2.7023,-2.6926,-2.6792,-2.6708,-2.6708,-2.6708,-2.6708,-2.6623,-2.6015,-2.5459,-2.5124,-2.4622,-2.4494,-2.458,-2.4149,-2.4343,-2.531,-2.6195,-2.6379,-2.6046,-2.5893,-2.496,-2.3305,-2.2736,-2.2295,-2.1814,-2.1847,-2.1961,-2.207,-2.2526,-2.2937,-2.319,-2.3405,-2.3405,-2.3064,-2.3009,-2.2856,-2.2434,-2.2361,-2.2327,-2.2327,-2.2327,-2.2327,-2.2327,-2.2327,-2.2225,-2.2077,-2.1932,-2.1831,-2.1878,-2.1837,-2.1631,-2.1488,-2.1263,-2.1119,-2.1039,-2.1198,-2.1623,-2.222,-2.2769,-2.3441,-2.4224,-2.4141,-2.3554,-3.665,-3.669,-3.6667,-3.6811,-3.7048,-3.7126,-3.7223,-3.7334,-3.7392,-3.7429,-3.741,-3.7429,-3.7447,-3.741,-3.7429,-3.7466,-3.754,-3.7685,-3.7685,-3.7809,-3.9013,-3.9914,-4.0492,-4.116,-4.1285,-4.0486,-3.9031,-3.8119,-3.7862,-3.7774,-3.7381,-3.6736,-3.6326,-3.5455,-3.4058,-3.3723,-3.2931,-3.1583,-3.0532,-2.9729,-2.9022,-2.8066,-2.7509,-2.7526,-2.7496,-2.7496,-2.7544,-2.7417,-2.7355,-2.7293,-2.7247,-2.712,-2.6975,-2.6825,-2.6708,-2.6708,-2.6708,-2.6708,-2.6657,-2.6285,-2.5914,-2.5679,-2.5426,-2.5378,-2.5564,-2.5196,-2.5447,-2.5728,-2.6315,-2.64,-2.6031,-2.6235,-2.5749,-2.4547,-2.3735,-2.3069,-2.2528,-2.2526,-2.2697,-2.2883,-2.3351,-2.3883,-2.4289,-2.432,-2.4371,-2.3866,-2.3562,-2.3308,-2.2767,-2.2496,-2.2412,-2.2344,-2.2327,-2.2327,-2.2327,-2.2327,-2.2327,-2.2209,-2.2135,-2.2065,-2.2032,-2.1913,-2.176,-2.164,-2.1481,-2.137,-2.1291,-2.1261,-2.1569,-2.2276,-2.2943,-2.3353,-2.38,-2.3944,-2.3421,-3.6913,-3.697,-3.6753,-3.6856,-3.7129,-3.7279,-3.741,-3.7466,-3.7631,-3.7685,-3.7649,-3.7703,-3.7667,-3.7649,-3.7703,-3.7739,-3.7774,-3.7915,-3.8018,-3.8397,-3.9514,-4.0525,-4.1104,-4.1097,-4.0949,-4.0708,-3.9232,-3.8354,-3.8,-3.7915,-3.781,-3.738,-3.6701,-3.5846,-3.4887,-3.4022,-3.3213,-3.2144,-3.0577,-2.9676,-2.9385,-2.8103,-2.7404,-2.7386,-2.7478,-2.7526,-2.7526,-2.7509,-2.7496,-2.7465,-2.7359,-2.7233,-2.7055,-2.6842,-2.6708,-2.6708,-2.6708,-2.6708,-2.6708,-2.6623,-2.659,-2.6539,-2.6505,-2.6657,-2.6438,-2.6371,-2.6084,-2.5564,-2.6,-2.6185,-2.5782,-2.6202,-2.6201,-2.5627,-2.4575,-2.3857,-2.3459,-2.3431,-2.3528,-2.3782,-2.4252,-2.4729,-2.5154,-2.5,-2.4763,-2.4475,-2.4069,-2.3782,-2.3376,-2.3038,-2.253,-2.2417,-2.2468,-2.2225,-2.218,-2.2152,-2.2152,-2.2077,-2.2077,-2.2094,-2.2065,-2.1974,-2.1866,-2.1764,-2.1648,-2.1568,-2.1507,-2.145,-2.1664,-2.2264,-2.271,-2.2991,-2.3147,-2.3327,-2.2961,-3.7206,-3.7167,-3.7208,-3.7321,-3.7413,-3.7613,-3.7739,-3.7845,-3.7915,-3.7949,-3.7966,-3.7966,-3.7966,-3.7966,-3.7966,-3.8052,-3.8104,-3.8189,-3.8271,-3.8528,-3.9455,-4.1061,-4.2063,-4.1421,-4.0891,-4.0656,-3.9243,-3.8171,-3.7792,-3.7667,-3.7449,-3.7223,-3.7049,-3.6478,-3.5588,-3.4834,-3.4022,-3.2789,-3.0785,-2.9693,-2.9282,-2.8006,-2.7279,-2.7244,-2.7293,-2.7307,-2.7307,-2.7324,-2.7276,-2.7276,-2.7404,-2.7296,-2.699,-2.6808,-2.6708,-2.6708,-2.6708,-2.6708,-2.6708,-2.6708,-2.6708,-2.6708,-2.6708,-2.6708,-2.6674,-2.6708,-2.6303,-2.563,-2.5363,-2.5246,-2.5579,-2.6268,-2.6285,-2.5693,-2.4987,-2.4416,-2.4242,-2.4188,-2.4252,-2.4371,-2.4932,-2.5541,-2.5981,-2.6082,-2.5795,-2.5389,-2.5033,-2.4681,-2.4143,-2.3435,-2.2866,-2.2765,-2.2685,-2.2291,-2.2077,-2.2032,-2.1974,-2.1915,-2.1915,-2.1961,-2.1991,-2.2003,-2.1948,-2.1852,-2.1702,-2.1565,-2.1573,-2.1531,-2.1923,-2.2118,-2.2424,-2.2643,-2.2713,-2.279,-2.2238,-3.7614,-3.7596,-3.7667,-3.7721,-3.7774,-3.7949,-3.8052,-3.8138,-3.8186,-3.8219,-3.8234,-3.8267,-3.8252,-3.8252,-3.8234,-3.8318,-3.8387,-3.8437,-3.8515,-3.8706,-3.9456,-4.0972,-4.2237,-4.1815,-4.1272,-4.0662,-3.9431,-3.845,-3.7793,-3.7485,-3.7261,-3.7108,-3.7087,-3.6408,-3.5095,-3.4784,-3.3888,-3.2394,-3.0542,-2.9438,-2.9196,-2.7826,-2.719,-2.707,-2.7135,-2.7149,-2.7149,-2.7166,-2.7149,-2.7181,-2.7293,-2.723,-2.6957,-2.6775,-2.6708,-2.6708,-2.6708,-2.6708,-2.6708,-2.6708,-2.6708,-2.6708,-2.6708,-2.6708,-2.6708,-2.6674,-2.6336,-2.5222,-2.4726,-2.4758,-2.519,-2.6048,-2.6404,-2.615,-2.5676,-2.527,-2.5,-2.4966,-2.5118,-2.5406,-2.5795,-2.6184,-2.6674,-2.6691,-2.6472,-2.6067,-2.5645,-2.5243,-2.479,-2.3936,-2.3204,-2.304,-2.2615,-2.2109,-2.1831,-2.1751,-2.1675,-2.1631,-2.157,-2.1648,-2.1797,-2.1853,-2.1828,-2.1732,-2.1665,-2.1568,-2.1453,-2.1391,-2.144,-2.1665,-2.202,-2.2147,-2.2104,-2.2295,-2.1706,-3.8153,-3.8117,-3.8086,-3.8086,-3.8135,-3.8271,-3.8322,-3.8354,-3.8446,-3.8478,-3.8446,-3.8478,-3.8496,-3.8433,-3.8496,-3.8528,-3.851,-3.8627,-3.8658,-3.8896,-3.952,-4.0675,-4.1684,-4.1702,-4.1306,-4.0677,-3.9831,-3.8686,-3.7793,-3.7394,-3.7147,-3.693,-3.6753,-3.5884,-3.4787,-3.4259,-3.3184,-3.1816,-3.0116,-2.9208,-2.8795,-2.7709,-2.696,-2.6892,-2.6973,-2.7021,-2.7021,-2.7021,-2.7038,-2.7053,-2.7135,-2.7103,-2.6975,-2.6792,-2.6708,-2.6708,-2.6708,-2.6708,-2.6708,-2.6708,-2.6708,-2.6708,-2.6708,-2.6708,-2.6708,-2.6674,-2.6184,-2.4983,-2.4588,-2.4689,-2.5152,-2.6031,-2.6539,-2.6556,-2.659,-2.6336,-2.5913,-2.5727,-2.5981,-2.6573,-2.6674,-2.6691,-2.6708,-2.6708,-2.6657,-2.632,-2.5984,-2.5664,-2.513,-2.4398,-2.3653,-2.3109,-2.2521,-2.1838,-2.1595,-2.1479,-2.1386,-2.1276,-2.1198,-2.123,-2.137,-2.146,-2.1529,-2.1497,-2.1285,-2.1198,-2.1115,-2.1066,-2.1053,-2.1183,-2.1519,-2.1404,-2.1302,-2.1666,-2.1455,-3.835,-3.835,-3.8364,-3.8396,-3.8446,-3.8546,-3.8614,-3.8596,-3.8627,-3.8609,-3.8609,-3.8658,-3.8627,-3.8627,-3.8627,-3.8658,-3.8658,-3.8676,-3.8707,-3.8817,-3.9488,-3.9914,-4.0372,-4.0474,-4.0573,-4.0261,-3.9059,-3.8078,-3.7468,-3.7052,-3.6673,-3.6451,-3.6264,-3.5769,-3.4792,-3.402,-3.3448,-3.2088,-3.0194,-2.91,-2.8723,-2.7571,-2.6759,-2.6742,-2.6808,-2.6791,-2.6791,-2.6791,-2.6791,-2.6842,-2.6908,-2.6957,-2.6808,-2.6742,-2.6691,-2.6708,-2.6708,-2.6708,-2.6708,-2.6708,-2.6708,-2.6708,-2.6708,-2.6708,-2.6708,-2.6708,-2.6285,-2.5421,-2.4906,-2.5128,-2.5912,-2.6437,-2.6641,-2.6674,-2.6657,-2.659,-2.6488,-2.6454,-2.6505,-2.6623,-2.6708,-2.6708,-2.6708,-2.6623,-2.6538,-2.6453,-2.623,-2.5974,-2.5386,-2.4704,-2.4027,-2.3271,-2.2426,-2.1729,-2.1423,-2.1263,-2.1134,-2.1052,-2.0954,-2.0777,-2.0942,-2.0991,-2.1054,-2.0989,-2.0878,-2.0811,-2.0761,-2.0782,-2.0775,-2.0889,-2.105,-2.1205,-2.134,-2.1448,-2.1549,-3.8546,-3.8546,-3.8578,-3.859,-3.8609,-3.8658,-3.8707,-3.8707,-3.8707,-3.8707,-3.8707,-3.8707,-3.8707,-3.8707,-3.8707,-3.8707,-3.8707,-3.8707,-3.8707,-3.875,-3.909,-3.9355,-3.9561,-3.9396,-3.9458,-3.9852,-3.9118,-3.8115,-3.735,-3.6816,-3.6468,-3.6105,-3.5754,-3.4959,-3.421,-3.3519,-3.2695,-3.1664,-3.0102,-2.9047,-2.8774,-2.752,-2.6708,-2.6708,-2.6708,-2.6708,-2.6708,-2.6708,-2.6708,-2.6725,-2.6775,-2.6825,-2.6725,-2.6708,-2.6708,-2.6708,-2.6708,-2.6708,-2.6708,-2.6708,-2.6708,-2.6708,-2.6708,-2.6708,-2.6708,-2.6708,-2.6303,-2.5778,-2.5552,-2.5836,-2.6522,-2.6623,-2.6589,-2.6521,-2.6487,-2.6487,-2.6504,-2.659,-2.6708,-2.6708,-2.6674,-2.664,-2.6607,-2.6521,-2.6382,-2.6208,-2.5977,-2.5717,-2.5243,-2.4595,-2.4079,-2.3331,-2.2388,-2.1713,-2.1321,-2.1045,-2.0886,-2.0867,-2.0848,-2.0593,-2.0522,-2.0545,-2.055,-2.052,-2.0556,-2.0431,-2.0412,-2.0454,-2.0584,-2.0668,-2.0874,-2.1221,-2.151,-2.1703,-2.1818,-3.845,-3.8358,-3.8469,-3.8524,-3.8542,-3.8634,-3.8707,-3.8707,-3.8707,-3.8707,-3.8707,-3.8707,-3.8707,-3.8707,-3.8707,-3.8707,-3.8707,-3.8707,-3.8707,-3.8713,-3.8619,-3.8903,-3.9043,-3.8761,-3.8572,-3.9065,-3.8708,-3.8003,-3.7214,-3.6713,-3.6301,-3.5899,-3.5112,-3.4398,-3.3499,-3.2703,-3.2059,-3.123,-3.0044,-2.9163,-2.8822,-2.7655,-2.6979,-2.6708,-2.6708,-2.6708,-2.6708,-2.6708,-2.6708,-2.6708,-2.6708,-2.6708,-2.6708,-2.6708,-2.6708,-2.6708,-2.6708,-2.6708,-2.6708,-2.6708,-2.6708,-2.6708,-2.6674,-2.6674,-2.6624,-2.6607,-2.632,-2.6084,-2.5933,-2.6236,-2.6401,-2.64,-2.6347,-2.626,-2.626,-2.6206,-2.6241,-2.6418,-2.6487,-2.6572,-2.6504,-2.6435,-2.6365,-2.626,-2.6118,-2.5937,-2.5701,-2.5411,-2.4946,-2.4523,-2.4044,-2.3561,-2.2669,-2.1972,-2.1563,-2.1353,-2.1126,-2.1038,-2.0987,-2.0813,-2.0579,-2.0788,-2.0865,-2.0326,-2.0234,-2.0166,-2.0269,-2.0482,-2.0553,-2.0558,-2.1018,-2.1662,-2.1914,-2.1995,-2.2171,-3.7294,-3.6762,-3.7404,-3.7698,-3.7808,-3.8395,-3.867,-3.8707,-3.8707,-3.8707,-3.8707,-3.8707,-3.8707,-3.8707,-3.8707,-3.8707,-3.8707,-3.8707,-3.8707,-3.8676,-3.8546,-3.8583,-3.847,-3.8198,-3.7953,-3.7738,-3.7698,-3.7382,-3.6908,-3.6485,-3.6097,-3.5718,-3.4897,-3.4066,-3.3305,-3.2645,-3.185,-3.119,-3.026,-2.96,-2.8975,-2.8095,-2.7215,-2.6793,-2.6708,-2.6708,-2.6708,-2.6708,-2.6708,-2.6708,-2.6708,-2.6708,-2.6708,-2.6708,-2.6708,-2.6708,-2.6708,-2.6708,-2.6708,-2.6708,-2.6674,-2.6623,-2.6589,-2.6521,-2.6469,-2.6521,-2.6301,-2.5988,-2.59,-2.6066,-2.6059,-2.6043,-2.6063,-2.601,-2.5937,-2.5901,-2.5917,-2.5937,-2.603,-2.6101,-2.6154,-2.6189,-2.6082,-2.5921,-2.5701,-2.5476,-2.5246,-2.4997,-2.4657,-2.4331,-2.3968,-2.3539,-2.3054,-2.242,-2.1892,-2.1751,-2.1607,-2.1523,-2.1446,-2.1476,-2.1362,-2.1458,-2.128,-2.0777,-2.0314,-2.0081,-2.0276,-2.0535,-2.0783,-2.0975,-2.1552,-2.2248,-2.2416,-2.2598,-2.292,-3.6633,-3.634,-3.6707,-3.711,-3.7514,-3.7821,-3.8224,-3.8572,-3.8578,-3.8559,-3.8559,-3.8609,-3.8627,-3.8707,-3.8707,-3.8707,-3.8707,-3.8707,-3.8707,-3.8676,-3.8515,-3.8318,-3.8171,-3.7863,-3.754,-3.7241,-3.7048,-3.6816,-3.6533,-3.6335,-3.5831,-3.5043,-3.4286,-3.3558,-3.2831,-3.2053,-3.1596,-3.1055,-3.0497,-2.9956,-2.9448,-2.8467,-2.7486,-2.6911,-2.6708,-2.6708,-2.6708,-2.6708,-2.6708,-2.6708,-2.6708,-2.6708,-2.6708,-2.6708,-2.6708,-2.6708,-2.6708,-2.6674,-2.6657,-2.6657,-2.6589,-2.6486,-2.6468,-2.6347,-2.626,-2.6243,-2.6068,-2.5545,-2.5551,-2.56,-2.5589,-2.5584,-2.5551,-2.546,-2.5384,-2.5362,-2.5246,-2.5246,-2.5323,-2.5513,-2.5663,-2.5738,-2.5738,-2.5551,-2.5285,-2.5013,-2.4751,-2.4549,-2.4343,-2.4085,-2.3838,-2.3591,-2.3185,-2.2705,-2.2269,-2.2275,-2.2118,-2.2029,-2.2024,-2.2054,-2.1949,-2.1919,-2.1674,-2.1212,-2.076,-2.0444,-2.0393,-2.0739,-2.1051,-2.1454,-2.21,-2.2665,-2.293,-2.3238,-2.3432,-3.5897,-3.575,-3.5886,-3.6325,-3.6893,-3.7168,-3.7575,-3.8123,-3.8328,-3.8433,-3.8428,-3.8314,-3.8266,-3.8346,-3.8383,-3.8456,-3.859,-3.8627,-3.8627,-3.8578,-3.8451,-3.8271,-3.8018,-3.7703,-3.7354,-3.693,-3.665,-3.6402,-3.6259,-3.6165,-3.5505,-3.4677,-3.3795,-3.3034,-3.2381,-3.1681,-3.1309,-3.1004,-3.0683,-3.0311,-2.9786,-2.8653,-2.7571,-2.6928,-2.6776,-2.6708,-2.6708,-2.6708,-2.6708,-2.6708,-2.6708,-2.6708,-2.6708,-2.6674,-2.6691,-2.6674,-2.6708,-2.664,-2.664,-2.6572,-2.6435,-2.6277,-2.6189,-2.6082,-2.5901,-2.5775,-2.5556,-2.4847,-2.4816,-2.5092,-2.5132,-2.5116,-2.5013,-2.4918,-2.4839,-2.4759,-2.4655,-2.4655,-2.4655,-2.4855,-2.5091,-2.5208,-2.5208,-2.5091,-2.4815,-2.4639,-2.4369,-2.4245,-2.4051,-2.3909,-2.3691,-2.3558,-2.3248,-2.2858,-2.269,-2.2825,-2.269,-2.2604,-2.2667,-2.2742,-2.2503,-2.2278,-2.2024,-2.1889,-2.162,-2.1341,-2.1159,-2.1083,-2.1634,-2.2139,-2.2681,-2.308,-2.3266,-2.3375,-2.3558,-3.4477,-3.3902,-3.4545,-3.4861,-3.5205,-3.6409,-3.7062,-3.7279,-3.7929,-3.8303,-3.8263,-3.7666,-3.7369,-3.7363,-3.7485,-3.7857,-3.8245,-3.8433,-3.8378,-3.8255,-3.8176,-3.7975,-3.7755,-3.7577,-3.6864,-3.6382,-3.6219,-3.6233,-3.5874,-3.5701,-3.5307,-3.438,-3.3592,-3.3,-3.2121,-3.1529,-3.1207,-3.1157,-3.1072,-3.0734,-2.9989,-2.8653,-2.7926,-2.7503,-2.7063,-2.6708,-2.6708,-2.6708,-2.6708,-2.6708,-2.6708,-2.6708,-2.6674,-2.6606,-2.6554,-2.6572,-2.6623,-2.6674,-2.6572,-2.6452,-2.626,-2.6046,-2.5885,-2.5642,-2.5492,-2.5262,-2.4974,-2.4451,-2.4492,-2.4692,-2.4786,-2.4723,-2.4645,-2.4574,-2.4451,-2.441,-2.4302,-2.4204,-2.4245,-2.4245,-2.4517,-2.4549,-2.4549,-2.4467,-2.4359,-2.4177,-2.4036,-2.3925,-2.3839,-2.3696,-2.3653,-2.3548,-2.3475,-2.3158,-2.3023,-2.3158,-2.3158,-2.3071,-2.3161,-2.3281,-2.3071,-2.2847,-2.2855,-2.2691,-2.2408,-2.2166,-2.1977,-2.204,-2.2381,-2.2718,-2.3095,-2.3335,-2.3533,-2.3595,-2.3653,-3.3311,-3.3322,-3.3617,-3.4032,-3.4555,-3.5576,-3.6263,-3.671,-3.7036,-3.7518,-3.7724,-3.6744,-3.631,-3.6419,-3.6848,-3.7253,-3.757,-3.7947,-3.7878,-3.7486,-3.7347,-3.6998,-3.6344,-3.5988,-3.5615,-3.533,-3.4943,-3.4616,-3.467,-3.4848,-3.4601,-3.3414,-3.2949,-3.2374,-3.1867,-3.1393,-3.1224,-3.119,-3.1123,-3.0818,-3.004,-2.9093,-2.8264,-2.7789,-2.7114,-2.6776,-2.6708,-2.6708,-2.6708,-2.6708,-2.6708,-2.6708,-2.6928,-2.7194,-2.7384,-2.6203,-2.6712,-2.6783,-2.6412,-2.6256,-2.599,-2.5717,-2.553,-2.5394,-2.5123,-2.4926,-2.467,-2.4343,-2.4343,-2.4446,-2.4508,-2.4405,-2.4333,-2.4234,-2.4135,-2.4036,-2.3952,-2.3909,-2.3867,-2.3867,-2.3909,-2.4009,-2.4094,-2.4094,-2.4051,-2.3952,-2.3867,-2.3782,-2.3696,-2.3653,-2.3595,-2.358,-2.3565,-2.349,-2.343,-2.3445,-2.34,-2.337,-2.337,-2.3475,-2.352,-2.3432,-2.3316,-2.3316,-2.3163,-2.2909,-2.2757,-2.2688,-2.2725,-2.3048,-2.3415,-2.352,-2.3595,-2.364,-2.3744,-3.242,-3.2784,-3.2816,-3.3169,-3.3776,-3.4426,-3.5065,-3.5669,-3.5847,-3.631,-3.6429,-3.5479,-3.5002,-3.5385,-3.5872,-3.6164,-3.6389,-3.705,-3.6856,-3.6464,-3.6163,-3.5774,-3.5297,-3.4795,-3.4512,-3.3997,-3.4042,-3.3649,-3.3515,-3.3592,-3.3405,-3.2364,-3.2483,-3.207,-3.163,-3.1326,-3.119,-3.119,-3.119,-3.092,-3.0345,-2.9428,-2.8685,-2.794,-2.7214,-2.659,-2.6607,-2.6876,-2.691,-2.6892,-2.6742,-2.6708,-2.6843,-2.7501,-2.7927,-2.7163,-2.7326,-2.6956,-2.6515,-2.6145,-2.5702,-2.5378,-2.5107,-2.491,-2.4775,-2.4574,-2.4451,-2.4214,-2.4302,-2.4302,-2.4276,-2.4234,-2.4166,-2.4024,-2.3882,-2.3739,-2.3638,-2.3681,-2.3724,-2.3724,-2.3739,-2.3681,-2.3739,-2.3739,-2.3739,-2.3739,-2.3696,-2.3595,-2.3595,-2.3595,-2.3595,-2.3595,-2.3595,-2.3595,-2.3595,-2.3595,-2.3595,-2.3595,-2.3595,-2.3595,-2.3595,-2.3595,-2.3507,-2.3537,-2.3595,-2.3475,-2.3161,-2.3093,-2.3051,-2.3314,-2.352,-2.355,-2.361,-2.3684,-2.4193,-3.1912,-3.1893,-3.202,-3.2144,-3.2284,-3.3017,-3.3455,-3.3915,-3.4514,-3.4658,-3.4394,-3.3603,-3.3562,-3.4041,-3.4329,-3.4724,-3.5137,-3.5208,-3.519,-3.5173,-3.5084,-3.4747,-3.4318,-3.4059,-3.4008,-3.3705,-3.3332,-3.2927,-3.2568,-3.2517,-3.2483,-3.229,-3.2239,-3.2239,-3.2002,-3.1596,-3.1292,-3.1224,-3.119,-3.1151,-3.0594,-2.9707,-2.876,-2.8317,-2.7255,-2.6347,-2.6364,-2.6914,-2.7314,-2.7297,-2.7126,-2.6995,-2.7229,-2.7871,-2.829,-2.8367,-2.7614,-2.7214,-2.6741,-2.6085,-2.5512,-2.5107,-2.4751,-2.4451,-2.4338,-2.4313,-2.4214,-2.4322,-2.4594,-2.4518,-2.4399,-2.4151,-2.4192,-2.4088,-2.3945,-2.3696,-2.3595,-2.3595,-2.3638,-2.3595,-2.3595,-2.3595,-2.3595,-2.3638,-2.3653,-2.3653,-2.3653,-2.3595,-2.3595,-2.3595,-2.3595,-2.3595,-2.3595,-2.3595,-2.3595,-2.3595,-2.3595,-2.3595,-2.3595,-2.3595,-2.3595,-2.3595,-2.361,-2.3595,-2.3595,-2.3595,-2.3595,-2.3404,-2.3316,-2.3492,-2.361,-2.367,-2.3879,-2.4088,-2.4926,-3.0857,-3.0871,-3.1298,-3.1654,-3.1927,-3.2651,-3.3017,-3.3107,-3.3405,-3.3236,-3.2755,-3.2389,-3.2389,-3.2809,-3.3354,-3.3599,-3.3894,-3.444,-3.4174,-3.3892,-3.375,-3.3397,-3.302,-3.2752,-3.2513,-3.2366,-3.2213,-3.2089,-3.1687,-3.1681,-3.1613,-3.1698,-3.207,-3.2239,-3.2144,-3.2002,-3.1664,-3.1202,-3.1095,-3.1055,-3.0712,-2.952,-2.8569,-2.8394,-2.6952,-2.6429,-2.664,-2.69,-2.7333,-2.7656,-2.7781,-2.7841,-2.7851,-2.8453,-2.8778,-2.8979,-2.8021,-2.7457,-2.682,-2.6083,-2.5318,-2.4701,-2.4359,-2.4223,-2.4139,-2.4094,-2.4621,-2.4925,-2.5275,-2.5341,-2.5279,-2.4879,-2.4502,-2.4334,-2.4154,-2.3833,-2.3789,-2.3879,-2.3759,-2.3834,-2.3699,-2.3595,-2.3595,-2.3595,-2.3595,-2.3595,-2.3595,-2.3595,-2.3595,-2.3595,-2.3595,-2.3595,-2.3595,-2.3595,-2.3595,-2.3595,-2.3595,-2.361,-2.3625,-2.3729,-2.3774,-2.361,-2.3625,-2.361,-2.3625,-2.364,-2.364,-2.361,-2.3595,-2.361,-2.3699,-2.3804,-2.4088,-2.4507,-2.5418,-2.9847,-2.9898,-3.0366,-3.0938,-3.1648,-3.2119,-3.2363,-3.2406,-3.2385,-3.2187,-3.1802,-3.1783,-3.1802,-3.205,-3.2399,-3.2674,-3.2772,-3.3087,-3.2959,-3.2748,-3.2507,-3.2156,-3.1751,-3.1572,-3.1671,-3.1312,-3.1274,-3.1263,-3.1219,-3.1151,-3.1139,-3.1318,-3.178,-3.2167,-3.2562,-3.242,-3.1974,-3.1194,-3.0895,-3.0838,-3.0613,-2.9503,-2.8472,-2.8256,-2.706,-2.6477,-2.6756,-2.7041,-2.7591,-2.807,-2.8469,-2.889,-2.9034,-2.9044,-2.8903,-2.8545,-2.8171,-2.7627,-2.7025,-2.6176,-2.55,-2.5063,-2.4856,-2.4661,-2.4329,-2.4119,-2.4338,-2.5412,-2.5969,-2.6351,-2.6143,-2.541,-2.5138,-2.5033,-2.4807,-2.4567,-2.4522,-2.4537,-2.4268,-2.4088,-2.3984,-2.3984,-2.4014,-2.4044,-2.3849,-2.3774,-2.3595,-2.3595,-2.3595,-2.3595,-2.3595,-2.3595,-2.3595,-2.3595,-2.3595,-2.3625,-2.3626,-2.3729,-2.3789,-2.4014,-2.4029,-2.3939,-2.3936,-2.4038,-2.4023,-2.3816,-2.3818,-2.385,-2.3731,-2.3625,-2.3864,-2.4149,-2.503,-2.5553,-2.5893,-2.9028,-2.9028,-2.9113,-2.9926,-3.1082,-3.1213,-3.1303,-3.1487,-3.147,-3.1496,-3.1579,-3.1671,-3.1671,-3.1651,-3.1771,-3.1802,-3.1743,-3.1794,-3.1722,-3.1722,-3.1739,-3.1457,-3.1368,-3.1274,-3.1235,-3.123,-3.119,-3.1095,-3.1015,-3.0935,-3.0871,-3.0949,-3.1408,-3.2126,-3.3,-3.2937,-3.2014,-3.0767,-3.0543,-3.0468,-3.0245,-2.942,-2.8641,-2.8078,-2.7356,-2.6782,-2.6818,-2.7349,-2.7858,-2.8176,-2.883,-2.9286,-2.968,-2.8854,-2.8381,-2.8057,-2.8008,-2.7932,-2.7807,-2.6763,-2.6077,-2.5682,-2.5395,-2.5274,-2.4876,-2.4425,-2.44,-2.5816,-2.6574,-2.6817,-2.6436,-2.5923,-2.5881,-2.5644,-2.5418,-2.5181,-2.5106,-2.5091,-2.4807,-2.4642,-2.4627,-2.4567,-2.4567,-2.4507,-2.4224,-2.4014,-2.3714,-2.361,-2.3625,-2.3595,-2.3595,-2.3595,-2.3595,-2.3566,-2.3581,-2.3641,-2.3701,-2.3775,-2.4029,-2.4298,-2.4611,-2.4791,-2.4747,-2.4608,-2.4504,-2.4432,-2.4283,-2.4164,-2.4193,-2.4311,-2.4403,-2.4851,-2.5792,-2.637,-2.6466,-2.8213,-2.8264,-2.8772,-2.9282,-2.9786,-3.0277,-3.0772,-3.1162,-3.1213,-3.1252,-3.1329,-3.1385,-3.1385,-3.1329,-3.1346,-3.1346,-3.1308,-3.1269,-3.1269,-3.1157,-3.1123,-3.1095,-3.1021,-3.0954,-3.0982,-3.0975,-3.0975,-3.0895,-3.0814,-3.0733,-3.0593,-3.065,-3.0822,-3.1484,-3.1858,-3.1874,-3.1232,-3.0438,-3.0172,-3.0011,-2.9903,-2.9103,-2.8405,-2.8073,-2.7375,-2.7017,-2.6936,-2.7607,-2.7905,-2.8171,-2.8826,-2.9013,-2.9243,-2.8462,-2.7974,-2.779,-2.7806,-2.7806,-2.776,-2.7173,-2.6675,-2.6208,-2.5892,-2.5801,-2.5364,-2.5167,-2.5603,-2.6344,-2.7094,-2.7294,-2.7116,-2.7026,-2.6871,-2.6292,-2.5931,-2.5597,-2.545,-2.5465,-2.536,-2.5315,-2.527,-2.5224,-2.5239,-2.5146,-2.4847,-2.4461,-2.4178,-2.3776,-2.3642,-2.3596,-2.3595,-2.3566,-2.3566,-2.3538,-2.3554,-2.3792,-2.3939,-2.4058,-2.4427,-2.4808,-2.5139,-2.5441,-2.5386,-2.5212,-2.5122,-2.5032,-2.4847,-2.4749,-2.4963,-2.511,-2.5099,-2.5316,-2.6046,-2.6361,-2.6365,-2.7435,-2.7486,-2.7977,-2.8349,-2.867,-2.9397,-3.0142,-3.0784,-3.1055,-3.119,-3.119,-3.119,-3.119,-3.119,-3.119,-3.1151,-3.1151,-3.1151,-3.0712,-3.0616,-3.0493,-3.0363,-3.0356,-3.0416,-3.0482,-3.0599,-3.0716,-3.0692,-3.0526,-3.0384,-3.0156,-2.9967,-3.0023,-3.0076,-3.0419,-3.0513,-3.0509,-2.9826,-2.9438,-2.9422,-2.9281,-2.8799,-2.8286,-2.8005,-2.7698,-2.7425,-2.7458,-2.7611,-2.7873,-2.8163,-2.8301,-2.8381,-2.8414,-2.822,-2.7725,-2.7675,-2.769,-2.769,-2.7595,-2.758,-2.7105,-2.6639,-2.6414,-2.6399,-2.6288,-2.6303,-2.6662,-2.7235,-2.753,-2.756,-2.756,-2.756,-2.7345,-2.6733,-2.6619,-2.6288,-2.6258,-2.6303,-2.6138,-2.6078,-2.5863,-2.5848,-2.5753,-2.5705,-2.5534,-2.5073,-2.4629,-2.419,-2.3763,-2.3629,-2.3644,-2.3674,-2.3733,-2.3745,-2.3888,-2.4116,-2.4261,-2.4352,-2.4776,-2.5223,-2.5688,-2.5963,-2.5912,-2.5779,-2.5612,-2.5505,-2.537,-2.5319,-2.5315,-2.5467,-2.5647,-2.593,-2.6352,-2.6338,-2.6153,-2.664,-2.6657,-2.6674,-2.7114,-2.7858,-2.8619,-2.9381,-3.0125,-3.0768,-3.1021,-3.1038,-3.0937,-3.0852,-3.0987,-3.1021,-3.0898,-3.0712,-3.0729,-3.0218,-2.9732,-2.952,-2.9433,-2.9395,-2.9477,-2.9815,-3.0145,-3.0326,-3.0258,-3.0146,-2.9897,-2.9589,-2.9182,-2.8967,-2.8936,-2.9139,-2.9375,-2.9454,-2.9077,-2.8842,-2.8842,-2.8779,-2.8654,-2.828,-2.8031,-2.7922,-2.758,-2.7485,-2.742,-2.7643,-2.7807,-2.7849,-2.7959,-2.794,-2.7855,-2.774,-2.7625,-2.7625,-2.7625,-2.7625,-2.756,-2.7595,-2.7265,-2.7385,-2.7535,-2.7445,-2.72,-2.7335,-2.744,-2.756,-2.756,-2.756,-2.756,-2.7545,-2.744,-2.744,-2.732,-2.732,-2.723,-2.7021,-2.6807,-2.6545,-2.6387,-2.6123,-2.6073,-2.5885,-2.5495,-2.499,-2.4431,-2.4009,-2.3664,-2.3676,-2.3862,-2.3931,-2.4024,-2.4187,-2.4269,-2.4426,-2.4469,-2.5121,-2.5632,-2.6076,-2.6352,-2.622,-2.6117,-2.6017,-2.58,-2.5426,-2.5327,-2.5441,-2.5572,-2.5497,-2.5849,-2.6088,-2.5962,-2.5833,-2.5423,-2.5913,-2.593,-2.6336,-2.708,-2.7824,-2.8602,-2.9313,-2.955,-2.9617,-2.9617,-2.9655,-2.9807,-2.9655,-2.9617,-2.9576,-2.9501,-2.9319,-2.901,-2.8665,-2.8401,-2.851,-2.8572,-2.8725,-2.9135,-2.9539,-2.9722,-2.9722,-2.9515,-2.9273,-2.8904,-2.8446,-2.835,-2.8204,-2.8183,-2.832,-2.844,-2.8491,-2.8365,-2.8398,-2.835,-2.8317,-2.8054,-2.7962,-2.7624,-2.7281,-2.7063,-2.6652,-2.6753,-2.7003,-2.6999,-2.7184,-2.769,-2.769,-2.7625,-2.7625,-2.7575,-2.756,-2.756,-2.756,-2.756,-2.756,-2.756,-2.756,-2.756,-2.756,-2.756,-2.756,-2.756,-2.756,-2.756,-2.756,-2.756,-2.756,-2.756,-2.756,-2.756,-2.7515,-2.727,-2.7155,-2.6891,-2.6572,-2.6381,-2.624,-2.5997,-2.5759,-2.5335,-2.4713,-2.4179,-2.3787,-2.3715,-2.3844,-2.3936,-2.4005,-2.41,-2.4221,-2.4403,-2.4679,-2.5297,-2.5753,-2.6036,-2.6222,-2.6356,-2.6222,-2.582,-2.5488,-2.5191,-2.5149,-2.5108,-2.4928,-2.4842,-2.5356,-2.5701,-2.5495,-2.5342,-2.4746,-2.5135,-2.5169,-2.5592,-2.6319,-2.708,-2.7672,-2.8129,-2.8721,-2.8994,-2.8979,-2.9028,-2.8977,-2.9064,-2.9042,-2.8895,-2.8728,-2.8588,-2.819,-2.7443,-2.7251,-2.7374,-2.7529,-2.7803,-2.8281,-2.8756,-2.912,-2.9136,-2.892,-2.8653,-2.8284,-2.8088,-2.7989,-2.789,-2.7806,-2.7871,-2.792,-2.8005,-2.8039,-2.8024,-2.7959,-2.7879,-2.7803,-2.7534,-2.7079,-2.6819,-2.6436,-2.5876,-2.6116,-2.6516,-2.6587,-2.6916,-2.749,-2.7625,-2.7625,-2.756,-2.756,-2.756,-2.756,-2.756,-2.756,-2.756,-2.756,-2.756,-2.756,-2.756,-2.756,-2.756,-2.756,-2.756,-2.756,-2.756,-2.756,-2.756,-2.756,-2.756,-2.7509,-2.7524,-2.7408,-2.7321,-2.7034,-2.6759,-2.651,-2.6365,-2.6014,-2.5438,-2.5011,-2.4641,-2.4149,-2.3705,-2.3661,-2.3774,-2.3818,-2.3822,-2.3973,-2.4164,-2.4341,-2.4628,-2.5066,-2.5521,-2.5851,-2.5946,-2.5915,-2.5714,-2.5439,-2.5089,-2.4724,-2.4624,-2.4584,-2.435,-2.4247,-2.4536,-2.4821,-2.4765,-2.4664,-2.4323,-2.4455,-2.4458,-2.4966,-2.5676,-2.6353,-2.6674,-2.6843,-2.8093,-2.8757,-2.8693,-2.874,-2.8605,-2.8418,-2.8308,-2.8176,-2.7923,-2.7679,-2.7069,-2.6182,-2.6005,-2.6152,-2.638,-2.6601,-2.7254,-2.8015,-2.845,-2.842,-2.84,-2.822,-2.7989,-2.7806,-2.7675,-2.7625,-2.7625,-2.7625,-2.76,-2.7455,-2.747,-2.7485,-2.7564,-2.7549,-2.7403,-2.6955,-2.6652,-2.6393,-2.5893,-2.5771,-2.5965,-2.6321,-2.6677,-2.6916,-2.7335,-2.756,-2.756,-2.756,-2.756,-2.756,-2.756,-2.756,-2.756,-2.756,-2.756,-2.756,-2.756,-2.756,-2.756,-2.756,-2.756,-2.756,-2.756,-2.756,-2.756,-2.756,-2.756,-2.7524,-2.7473,-2.7386,-2.7284,-2.7144,-2.6922,-2.6592,-2.6272,-2.6056,-2.5729,-2.509,-2.4667,-2.4416,-2.405,-2.3605,-2.362,-2.3672,-2.3765,-2.3872,-2.403,-2.4146,-2.4323,-2.4597,-2.4921,-2.5034,-2.5245,-2.5314,-2.5384,-2.5102,-2.4758,-2.45,-2.4229,-2.4157,-2.4073,-2.3956,-2.3852,-2.3819,-2.3878,-2.4028,-2.4028,-2.3173,-2.3714,-2.4286,-2.4915,-2.5542,-2.5729,-2.6101,-2.6606,-2.6821,-2.7059,-2.7215,-2.7197,-2.723,-2.7314,-2.7138,-2.6939,-2.6706,-2.6515,-2.5812,-2.5338,-2.5039,-2.5199,-2.5372,-2.5572,-2.6245,-2.6979,-2.7437,-2.7712,-2.7932,-2.7875,-2.779,-2.7675,-2.756,-2.756,-2.761,-2.7595,-2.7305,-2.6991,-2.6737,-2.6722,-2.6707,-2.6366,-2.5991,-2.5798,-2.5618,-2.5363,-2.5002,-2.5017,-2.5347,-2.5734,-2.6333,-2.6886,-2.755,-2.7545,-2.756,-2.756,-2.756,-2.756,-2.756,-2.756,-2.756,-2.756,-2.756,-2.756,-2.756,-2.756,-2.756,-2.756,-2.756,-2.756,-2.756,-2.756,-2.756,-2.756,-2.756,-2.7473,-2.7386,-2.7284,-2.7144,-2.6922,-2.6698,-2.6379,-2.6056,-2.5674,-2.5355,-2.4948,-2.458,-2.4266,-2.3859,-2.3521,-2.3616,-2.3707,-2.3812,-2.3897,-2.3982,-2.4041,-2.4086,-2.4203,-2.4492,-2.4593,-2.465,-2.4637,-2.465,-2.4358,-2.406,-2.3916,-2.3772,-2.3641,-2.3569,-2.3497,-2.3497,-2.3509,-2.339,-2.3484,-2.3497,-2.2547,-2.3004,-2.3667,-2.4177,-2.4551,-2.4824,-2.5195,-2.548,-2.5363,-2.5346,-2.5598,-2.6066,-2.6382,-2.6295,-2.6118,-2.5921,-2.5663,-2.5339,-2.5029,-2.4636,-2.4421,-2.4539,-2.4638,-2.4821,-2.55,-2.621,-2.6738,-2.7112,-2.7575,-2.7675,-2.7675,-2.761,-2.756,-2.753,-2.755,-2.7305,-2.6961,-2.6538,-2.606,-2.5682,-2.5634,-2.5444,-2.5314,-2.5166,-2.503,-2.4806,-2.4792,-2.4881,-2.5465,-2.6033,-2.6722,-2.7096,-2.7565,-2.756,-2.756,-2.756,-2.756,-2.756,-2.756,-2.7575,-2.7575,-2.7575,-2.756,-2.756,-2.756,-2.756,-2.756,-2.756,-2.756,-2.756,-2.756,-2.756,-2.756,-2.756,-2.7575,-2.7524,-2.7269,-2.7011,-2.6855,-2.6698,-2.6472,-2.6111,-2.5784,-2.5453,-2.5061,-2.4664,-2.4305,-2.4015,-2.3675,-2.339,-2.3497,-2.3616,-2.3628,-2.3569,-2.3497,-2.3569,-2.37,-2.3878,-2.4099,-2.4157,-2.4203,-2.4015,-2.3852,-2.3772,-2.362,-2.3475,-2.3343,-2.333,-2.3258,-2.3258,-2.3185,-2.3138,-2.3125,-2.3125,-2.3198,-2.231,-2.2383,-2.2899,-2.3164,-2.3254,-2.3809,-2.4145,-2.4131,-2.3968,-2.3885,-2.4,-2.5102,-2.5645,-2.575,-2.557,-2.5449,-2.523,-2.4895,-2.4508,-2.4261,-2.3994,-2.4111,-2.4267,-2.4492,-2.4972,-2.5555,-2.6213,-2.6767,-2.7305,-2.7405,-2.7524,-2.756,-2.7485,-2.744,-2.726,-2.6841,-2.6221,-2.5708,-2.5156,-2.4425,-2.4469,-2.4784,-2.4743,-2.4804,-2.4999,-2.5088,-2.4984,-2.5297,-2.5986,-2.6479,-2.7031,-2.7345,-2.7479,-2.7473,-2.7473,-2.7473,-2.7524,-2.7524,-2.7575,-2.7575,-2.7575,-2.7575,-2.7575,-2.756,-2.7524,-2.756,-2.756,-2.7524,-2.7524,-2.756,-2.756,-2.756,-2.756,-2.7575,-2.7524,-2.7473,-2.7167,-2.6855,-2.6683,-2.6525,-2.6204,-2.5893,-2.5564,-2.523,-2.4892,-2.4434,-2.4086,-2.3806,-2.3509,-2.3318,-2.3318,-2.3318,-2.3318,-2.3258,-2.3125,-2.3318,-2.3522,-2.3582,-2.3806,-2.3819,-2.376,-2.3616,-2.3497,-2.339,-2.3271,-2.321,-2.321,-2.3198,-2.3125,-2.3125,-2.3125,-2.3125,-2.3125,-2.3125,-2.3125,-2.2254,-2.2231,-2.2257,-2.2521,-2.2965,-2.296,-2.3211,-2.3603,-2.3381,-2.3213,-2.3084,-2.3159,-2.3724,-2.4751,-2.4409,-2.4363,-2.4737,-2.443,-2.4261,-2.4009,-2.3867,-2.3844,-2.3878,-2.3985,-2.4283,-2.494,-2.5711,-2.6377,-2.6629,-2.698,-2.7276,-2.7238,-2.6718,-2.6634,-2.6613,-2.6072,-2.5334,-2.4808,-2.4326,-2.3673,-2.325,-2.3487,-2.3756,-2.3948,-2.4212,-2.4549,-2.4963,-2.5663,-2.5987,-2.6406,-2.6985,-2.7333,-2.7321,-2.7218,-2.7167,-2.7269,-2.7335,-2.7386,-2.7386,-2.7488,-2.7488,-2.7386,-2.7386,-2.7269,-2.7321,-2.7423,-2.7321,-2.7181,-2.7269,-2.7509,-2.756,-2.756,-2.756,-2.7539,-2.7488,-2.7386,-2.7181,-2.6922,-2.6645,-2.6433,-2.6096,-2.5839,-2.5508,-2.523,-2.4892,-2.4536,-2.4203,-2.391,-2.3569,-2.3318,-2.3125,-2.3125,-2.3125,-2.3125,-2.3125,-2.3258,-2.339,-2.345,-2.3552,-2.3764,-2.3764,-2.3343,-2.3223,-2.3399,-2.3286,-2.3138,-2.3125,-2.3125,-2.3125,-2.3125,-2.3125,-2.3125,-2.3125,-2.3163,-2.3188]}]]